[[{"header":{"parameterUnit":"m.s-1","parameterCategory":1,"la1":31.0,"la2":29.5877,"lo1":-88.7671,"lo2":-86.6584,"dy":0.0162,"dx":0.0185,"nx":115,"ny":88,"refTime":"2023-10-07T12:00:00:Z","depth":0,"parameterNumber":2,"parameterNumberName":"U-component_of_WINDS"},"data":[0.0,0.0,0.0,0.0,0.0,0.0,0.0,0.0,0.0,0.0,0.0,0.0,0.0,0.0,0.0,0.0,0.0,0.0,0.0,0.0,0.0,0.0,0.0,0.0,0.0,0.0,0.0,0.0,0.0,0.0,0.0,0.0,0.0,0.0,0.0,0.0,0.0,0.0,0.0,0.0,0.0,0.0,0.0,0.0,0.0,0.0,0.0,0.0,0.0,0.0,0.0,0.0,0.0,0.0,0.0,0.0,0.0,0.0,0.0,0.0,0.0,0.0,0.0,0.0,0.0,0.0,0.0,0.0,0.0,0.0,0.0,0.0,0.0,0.0,0.0,0.0,0.0,0.0,0.0,0.0,0.0,0.0,0.0,0.0,0.0,0.0,0.0,0.0,0.0,0.0,0.0,0.0,0.0,0.0,0.0,0.0,0.0,0.0,0.0,0.0,0.0,0.0,0.0,0.0,0.0,0.0,0.0,0.0,0.0,0.0,0.0,0.0,0.0,0.0,0.0,0.0,0.0,0.0,0.0,0.0,0.0,0.0,0.0,0.0,0.0,0.0,0.0,0.0,0.0,0.0,0.0,0.0,0.0,0.0,0.0,0.0,0.0,0.0,0.0,0.0,0.0,0.0,0.0,0.0,0.0,0.0,0.0,0.0,0.0,0.0,0.0,0.0,0.0,0.0,0.0,0.0,0.0,0.0,0.0,0.0,0.0,0.0,0.0,0.0,0.0,0.0,0.0,0.0,0.0,0.0,0.0,0.0,0.0,0.0,0.0,0.0,0.0,0.0,0.0,0.0,0.0,0.0,0.0,0.0,0.0,0.0,0.0,0.0,0.0,0.0,0.0,0.0,0.0,0.0,0.0,0.0,0.0,0.0,0.0,0.0,0.0,0.0,0.0,0.0,0.0,0.0,0.0,0.0,0.0,0.0,0.0,0.0,0.0,0.0,0.0,0.0,0.0,0.0,0.0,0.0,0.0,0.0,0.0,0.0,0.0,0.0,0.0,0.0,0.0,0.0,0.0,0.0,0.0,0.0,0.0,0.0,0.0,0.0,0.0,0.0,0.0,0.0,0.0,0.0,0.0,0.0,0.0,0.0,0.0,0.0,0.0,0.0,0.0,0.0,0.0,0.0,0.0,0.0,0.0,0.0,0.0,0.0,0.0,0.0,0.0,0.0,0.0,0.0,0.0,0.0,0.0,0.0,0.0,0.0,0.0,0.0,0.0,0.0,0.0,0.0,0.0,0.0,0.0,0.0,0.0,0.0,0.0,0.0,0.0,0.0,0.0,0.0,0.0,0.0,0.0,0.0,0.0,0.0,0.0,0.0,0.0,0.0,0.0,0.0,0.0,0.0,0.0,0.0,0.0,0.0,0.0,0.0,0.0,0.0,0.0,0.0,0.0,0.0,0.0,0.0,0.0,0.0,0.0,0.0,0.0,0.0,0.0,0.0,0.0,0.0,0.0,0.0,0.0,0.0,0.0,0.0,0.0,0.0,0.0,0.0,0.0,0.0,0.0,0.0,0.0,0.0,0.0,0.0,0.0,0.0,0.0,0.0,0.0,0.0,0.0,0.0,0.0,0.0,0.0,0.0,0.0,0.0,0.0,0.0,0.0,0.0,0.0,0.0,0.0,0.0,0.0,0.0,0.0,0.0,0.0,0.0,0.0,0.0,0.0,0.0,0.0,0.0,0.0,0.0,0.0,0.0,0.0,0.0,0.0,0.0,0.0,0.0,0.0,0.0,0.0,0.0,0.0,0.0,0.0,0.0,0.0,0.0,0.0,0.0,0.0,0.0,0.0,0.0,0.0,0.0,0.0,0.0,0.0,0.0,0.0,0.0,0.0,0.0,0.0,0.0,0.0,0.0,0.0,0.0,0.0,0.0,0.0,0.0,0.0,0.0,0.0,0.0,0.0,0.0,0.0,0.0,0.0,0.0,0.0,0.0,0.0,0.0,0.0,0.0,0.0,0.0,0.0,0.0,0.0,0.0,0.0,0.0,0.0,0.0,0.0,0.0,0.0,0.0,0.0,0.0,0.0,0.0,0.0,0.0,0.0,0.0,0.0,0.0,0.0,0.0,0.0,0.0,0.0,0.0,0.0,0.0,0.0,0.0,0.0,0.0,0.0,0.0,0.0,0.0,0.0,0.0,0.0,0.0,0.0,0.0,0.0,0.0,0.0,0.0,0.0,0.0,0.0,0.0,0.0,0.0,0.0,0.0,0.0,0.0,0.0,0.0,0.0,0.0,0.0,0.0,0.0,0.0,0.0,0.0,0.0,0.0,0.0,0.0,0.0,0.0,0.0,0.0,0.0,0.0,0.0,0.0,0.0,0.0,0.0,0.0,0.0,0.0,0.0,0.0,0.0,0.0,0.0,0.0,0.0,0.0,0.0,0.0,0.0,0.0,0.0,0.0,0.0,0.0,0.0,0.0,0.0,0.0,0.0,0.0,0.0,0.0,0.0,0.0,0.0,0.0,0.0,0.0,0.0,0.0,0.0,0.0,0.0,0.0,0.0,0.0,0.0,0.0,0.0,0.0,0.0,0.0,0.0,0.0,0.0,0.0,0.0,0.0,0.0,0.0,0.0,0.0,0.0,0.0,0.0,0.0,0.0,0.0,0.0,0.0,0.0,0.0,0.0,0.0,0.0,0.0,0.0,0.0,0.0,0.0,0.0,0.0,0.0,0.0,0.0,0.0,0.0,0.0,0.0,0.0,0.0,0.0,0.0,0.0,0.0,0.0,0.0,0.0,0.0,0.0,0.0,0.0,0.0,0.0,0.0,0.0,0.0,0.0,0.0,0.0,0.0,0.0,0.0,0.0,0.0,0.0,0.0,0.0,0.0,0.0,0.0,0.0,0.0,0.0,0.0,0.0,0.0,0.0,0.0,0.0,0.0,0.0,0.0,0.0,0.0,0.0,0.0,0.0,0.0,0.0,0.0,0.0,0.0,0.0,0.0,0.0,0.0,0.0,0.0,0.0,0.0,0.0,0.0,0.0,0.0,0.0,0.0,0.0,0.0,0.0,0.0,0.0,0.0,0.0,0.0,0.0,0.0,0.0,0.0,0.0,0.0,0.0,0.0,0.0,0.0,0.0,0.0,0.0,0.0,0.0,0.0,0.0,0.0,0.0,0.0,0.0,0.0,0.0,0.0,0.0,0.0,0.0,0.0,0.0,0.0,0.0,0.0,0.0,0.0,0.0,0.0,0.0,0.0,0.0,0.0,0.0,0.0,0.0,0.0,0.0,0.0,0.0,0.0,0.0,0.0,0.0,0.0,0.0,0.0,0.0,0.0,0.0,0.0,0.0,0.0,0.0,0.0,0.0,0.0,0.0,0.0,0.0,0.0,0.0,0.0,0.0,0.0,0.0,0.0,0.0,0.0,0.0,0.0,0.0,0.0,0.0,0.0,0.0,0.0,0.0,0.0,0.0,0.0,0.0,0.0,0.0,0.0,0.0,0.0,0.0,0.0,0.0,0.0,0.0,0.0,0.0,0.0,0.0,0.0,0.0,0.0,0.0,0.0,0.0,0.0,0.0,0.0,0.0,0.0,0.0,0.0,0.0,0.0,0.0,0.0,0.0,0.0,0.0,0.0,0.0,0.0,0.0,0.0,0.0,0.0,0.0,0.0,0.0,0.0,0.0,0.0,0.0,0.0,0.0,0.0,0.0,0.0,0.0,0.0,0.0,0.0,0.0,0.0,0.0,0.0,0.0,0.0,0.0,0.0,0.0,0.0,0.0,0.0,0.0,0.0,0.0,0.0,0.0,0.0,0.0,0.0,0.0,0.0,0.0,0.0,0.0,0.0,0.0,0.0,0.0,0.0,0.0,0.0,0.0,0.0,0.0,0.0,0.0,0.0,0.0,0.0,0.0,0.0,0.0,0.0,0.0,0.0,0.0,0.0,0.0,0.0,0.0,0.0,0.0,0.0,0.0,0.0,0.0,0.0,0.0,0.0,0.0,0.0,0.0,0.0,0.0,0.0,0.0,0.0,0.0,0.0,0.0,0.0,0.0,0.0,0.0,0.0,0.0,0.0,0.0,0.0,0.0,0.0,0.0,0.0,0.0,0.0,0.0,0.0,0.0,0.0,0.0,0.0,0.0,0.0,0.0,0.0,0.0,0.0,0.0,0.0,0.0,0.0,0.0,0.0,0.0,0.0,0.0,0.0,0.0,0.0,0.0,0.0,0.0,0.0,0.0,0.0,0.0,0.0,0.0,0.0,0.0,0.0,0.0,0.0,0.0,0.0,0.0,0.0,0.0,0.0,0.0,0.0,0.0,0.0,0.0,0.0,0.0,0.0,0.0,0.0,0.0,0.0,0.0,0.0,0.0,0.0,0.0,0.0,0.0,0.0,0.0,0.0,0.0,0.0,0.0,0.0,0.0,0.0,0.0,0.0,0.0,0.0,0.0,0.0,0.0,0.0,0.0,0.0,0.0,0.0,0.0,0.0,0.0,0.0,0.0,0.0,0.0,0.0,0.0,0.0,0.0,0.0,0.0,0.0,0.0,0.0,0.0,0.0,0.0,0.0,0.0,0.0,0.0,0.0,0.0,0.0,0.0,0.0,0.0,0.0,0.0,0.0,0.0,0.0,0.0,0.0,0.0,0.0,0.0,0.0,0.0,0.0,0.0,0.0,0.0,0.0,0.0,0.0,0.0,0.0,0.0,0.0,0.0,0.0,0.0,0.0,0.0,0.0,0.0,0.0,0.0,0.0,0.0,0.0,0.0,0.0,0.0,0.0,0.0,0.0,0.0,0.0,0.0,0.0,0.0,0.0,0.0,0.0,0.0,0.0,0.0,0.0,0.0,0.0,0.0,0.0,0.0,0.0,0.0,0.0,0.0,0.0,0.0,0.0,0.0,0.0,0.0,0.0,0.0,0.0,0.0,0.0,0.0,0.0,0.0,0.0,0.0,0.0,0.0,0.0,0.0,0.0,0.0,0.0,0.0,0.0,0.0,0.0,0.0,0.0,0.0,0.0,0.0,0.0,0.0,0.0,0.0,0.0,0.0,0.0,0.0,0.0,0.0,0.0,0.0,0.0,0.0,0.0,0.0,0.0,0.0,0.0,0.0,0.0,0.0,0.0,0.0,0.0,0.0,0.0,0.0,0.0,0.0,0.0,0.0,0.0,0.0,0.0,0.0,0.0,0.0,0.0,0.0,0.0,0.0,0.0,0.0,0.0,0.0,0.0,0.0,0.0,0.0,0.0,0.0,0.0,0.0,0.0,0.0,0.0,0.0,0.0,0.0,0.0,0.0,0.0,0.0,0.0,0.0,0.0,0.0,0.0,0.0,0.0,0.0,0.0,0.0,0.0,0.0,0.0,0.0,0.0,0.0,0.0,0.0,0.0,0.0,0.0,0.0,0.0,0.0,0.0,0.0,0.0,0.0,0.0,0.0,0.0,0.0,0.0,0.0,0.0,0.0,0.0,0.0,0.0,0.0,0.0,0.0,0.0,0.0,0.0,0.0,0.0,0.0,0.0,0.0,0.0,0.0,0.0,0.0,0.0,0.0,0.0,0.0,0.0,0.0,0.0,0.0,0.0,0.0,0.0,0.0,0.0,0.0,0.0,0.0,0.0,0.0,0.0,0.0,0.0,0.0,0.0,0.0,0.0,0.0,0.0,0.0,0.0,0.0,0.0,0.0,0.0,0.0,0.0,0.0,0.0,0.0,0.0,0.0,0.0,0.0,0.0,0.0,0.0,0.0,0.0,0.0,0.0,0.0,0.0,0.0,0.0,0.0,0.0,0.0,0.0,0.0,0.0,0.0,0.0,0.0,0.0,0.0,0.0,0.0,0.0,0.0,0.0,0.0,0.0,0.0,0.0,0.0,0.0,0.0,0.0,0.0,0.0,0.0,0.0,0.0,0.0,0.0,0.0,0.0,0.0,0.0,0.0,0.0,0.0,0.0,0.0,0.0,0.0,0.0,0.0,0.0,0.0,0.0,0.0,0.0,0.0,0.0,0.0,0.0,0.0,0.0,0.0,0.0,0.0,0.0,0.0,0.0,0.0,0.0,0.0,0.0,0.0,0.0,0.0,0.0,0.0,0.0,0.0,0.0,0.0,0.0,0.0,0.0,0.0,0.0,0.0,0.0,0.0,0.0,0.0,0.0,0.0,0.0,0.0,0.0,0.0,0.0,0.0,0.0,0.0,0.0,0.0,0.0,0.0,0.0,0.0,0.0,0.0,0.0,0.0,0.0,0.0,0.0,0.0,0.0,0.0,0.0,0.0,0.0,0.0,0.0,0.0,0.0,0.0,0.0,0.0,0.0,0.0,0.0,0.0056,0.0224,0.0393,0.0449,0.0,0.0,0.0,0.0,0.0,0.0,0.0,0.0,0.0,0.0,0.0,0.0,0.0,0.0,0.0,0.0,0.0,0.0,0.0,0.0,0.0,0.0,0.0,0.0,0.0,0.0,0.0,0.0,0.0,0.0,0.0,0.0,0.0,0.0,0.0,0.0,0.0,0.0,0.0,0.0,0.0,0.0,0.0,0.0,0.0,0.0,0.0,0.0,0.0,0.0,0.0,0.0,0.0,0.0,0.0,0.0,0.0,0.0,0.0,0.0,0.0,0.0,0.0,0.0,0.0,0.0,0.0,0.0,0.0,0.0,0.0,0.0,0.0,0.0,0.0,0.0,0.0,0.0,0.0,0.0,0.0,0.0,0.0,0.0,0.0,0.0,0.0,0.0,0.0,0.0,0.0,0.0,0.0,0.0,0.0,0.0,0.0,0.0,0.0,0.0,0.0,0.0,0.0,0.0,0.0,0.0,0.0,0.0,0.0,0.0,0.0224,0.0336,0.0561,0.0785,0.0785,0.0561,0.0,0.0,0.0,0.0,0.0,0.0,0.0,0.0,0.0,0.0,0.0,0.0,0.0,0.0,0.0,0.0,0.0,0.0,0.0,0.0,0.0,0.0,0.0,0.0,0.0,0.0,0.0,0.0,0.0,0.0,0.0,0.0,0.0,0.0,0.0,0.0,0.0,0.0,0.0,0.0,0.0,0.0,0.0,0.0,0.0,0.0,0.0,0.0,0.0,0.0,0.0,0.0,0.0,0.0,0.0,0.0,0.0,0.0,0.0,0.0,0.0,0.0,0.0,0.0,0.0,0.0,0.0,0.0,0.0,0.0,0.0,0.0,0.0,0.0,0.0,0.0,0.0,0.0,0.0,0.0,0.0,0.0,0.0,0.0,0.0,0.0,0.0,0.0,0.0,0.0,0.0,0.0,0.0,0.0,0.0,0.0,0.0,0.0,0.0,0.0,0.0,0.0,0.0,0.0,0.0,0.0,0.0,0.0,0.0393,0.0729,0.0897,0.0897,0.0897,0.0897,0.0,0.0,0.0,0.0,0.0,0.0,0.0,0.0,0.0,0.0,0.0,0.0,0.0,0.0,0.0,0.0,0.0,0.0,0.0,0.0,0.0,0.0,0.0,0.0,0.0,0.0,0.0,0.0,0.0,0.0,0.0,0.0,0.0,0.0,0.0,0.0,0.0,0.0,0.0,0.0,0.0,0.0,0.0,0.0,0.0,0.0,0.0,0.0,0.0,0.0,0.0,0.0,0.0,0.0,0.0,0.0,0.0,0.0,0.0,0.0,0.0,0.0,0.0,0.0,0.0,0.0,0.0,0.0,0.0,0.0,0.0,0.0,0.0,0.0,0.0,0.0,0.0,0.0,0.0,0.0,0.0,0.0,0.0,0.0,0.0,0.0,0.0,0.0,0.0,0.0,0.0,0.0,0.0,0.0,0.0,0.0,0.0,0.0,0.0,0.0,0.0,0.0,0.0,0.0,0.0,0.0,0.0,0.0,0.0,0.0729,0.1009,0.1513,0.2239,0.1793,0.1738,0.0,0.0,0.0,0.0,0.0,0.0,0.0,0.0,0.0,0.0,0.0,0.0,0.0,0.0,0.0,0.0,0.0,0.0,0.0,0.0,0.0,0.0,0.0,0.0,0.0,0.0,0.0,0.0,0.0,0.0,0.0,0.0,0.0,0.0,0.0,0.0,0.0,0.0,0.0,0.0,0.0,0.0,0.0,0.0,0.0,0.0,0.0,0.0,0.0,0.0,0.0,0.0,0.0,0.0,0.0,0.0,0.0,0.0,0.0,0.0,0.0,0.0,0.0,0.0,0.0,0.0,0.0,0.0,0.0,0.0,0.0,0.0,0.0,0.0,0.0,0.0,0.0,0.0,0.0,0.0,0.0,0.0,0.0,0.0,0.0,0.0,0.0,0.0,0.0,0.0,0.0,0.0,0.0,0.0,0.0,0.0,0.0,0.0,0.0,0.0,0.0,0.0,0.0,0.0,0.0,0.0,0.0,0.0,0.0,0.1737,0.0,0.2854,0.3189,0.2688,0.2464,0.0,0.0,0.0,0.0,0.0,0.0,0.0,0.0,0.0,0.0,0.0,0.0,0.0,0.0,0.0,0.0,0.0,0.0,0.0,0.0,0.0,0.0,0.0,0.0,0.0,0.0,0.0,0.0,0.0,0.0,0.0,0.0,0.0,0.0,0.0,0.0,0.0,0.0,0.0,0.0,0.0,0.0,0.0,0.0,0.0,0.0,0.0,0.0,0.0,0.0,0.0,0.0,0.0,0.0,0.0,0.0,0.0,0.0,0.0,0.0,0.0,0.0,0.0,0.0,0.0,0.0,0.0,0.0,0.0,0.0,0.0,0.0,0.0,0.0,0.0,0.0,0.0,0.0,0.0,0.0,0.0,0.0,0.0,0.0,0.0,0.0,0.0,0.0,0.0,0.0,0.0,0.0,0.0,0.0,0.0,0.0,0.0,0.0,0.0,0.0,0.0,0.0,0.0,0.0,0.0,0.0,0.0,0.0,0.1849,0.3525,0.4693,0.4749,0.3692,0.3636,0.308,0.0,0.0,0.0,0.0,0.0,0.0,0.0,0.0,0.0,0.0,0.0,0.0,0.0,0.0,0.0,0.0,0.0,0.0,0.0,0.0,0.0,0.0,0.0,0.0,0.0,0.0,0.0,0.0,0.0,0.0,0.0,0.0,0.0,0.0,0.0,0.0,0.0,0.0,0.0,0.0,0.0,0.0,0.0,0.0,0.0,0.0,0.0,0.0,0.0,0.0,0.0,0.0,0.0,0.0,0.0,0.0,0.0,0.0,0.0,0.0,0.0,0.0,0.0,0.0,0.0,0.0,0.0,0.0,0.0,0.0,0.0,0.0,0.0,0.0,0.0,0.0,0.0,0.0,0.0,0.0,0.0,0.0,0.0,0.0,0.0,0.0,0.0,0.0,0.0,0.0,0.0,0.0,0.0,0.0,0.0,0.0,0.0,0.0,0.0,0.0,0.0,0.0,0.0,0.0,0.0,0.0,0.0,0.0,0.0,0.3639,0.4804,0.5584,0.5977,0.525,0.4637,0.0,0.0,0.0,0.0,0.0,0.0,0.0,0.0,0.0,0.0,0.0,0.0,0.0,0.0,0.0,0.0,0.0,0.0,0.0,0.0,0.0,0.0,0.0,0.0,0.0,0.0,0.0,0.0,0.0,0.0,0.0,0.0,0.0,0.0,0.0,0.0,0.0,0.0,0.0,0.0,0.0,0.0,0.0,0.0,0.0,0.0,0.0,0.0,0.0,0.0,0.0,0.0,0.0,0.0,0.0,0.0,0.0,0.0,0.0,0.0,0.0,0.0,0.0,0.0,0.0,0.0,0.0,0.0,0.0,0.0,0.0,0.0,0.0,0.0,0.0,0.0,0.0,0.0,0.0,0.0,0.0,0.0,0.0,0.0,0.0,0.0,0.0,0.0,0.0,0.0,0.0,0.0,0.0,0.0,0.0,0.0,0.0,0.0,0.0,0.0,0.0,0.0,0.0,0.0,0.0,0.0,0.0,0.0,0.0,0.5184,0.6256,0.6997,0.7285,0.6601,0.603,0.5577,0.0,0.0,0.0,0.0,0.0,0.0,0.0,0.0,0.0,0.0,0.0,0.0,0.0,0.0,0.0,0.0,0.0,0.0,0.0,0.0,0.0,0.0,0.0,0.0,0.0,0.0,0.0,0.0,0.0,0.0,0.0,0.0,0.0,0.0,0.0,0.0,0.0,0.0,0.0,0.0,0.0,0.0,0.0,0.0,0.0,0.0,0.0,0.0,0.0,0.0,0.0,0.0,0.0,0.0,0.0,0.0,0.0,0.0,0.0,0.0,0.0,0.0,0.0,0.0,0.0,0.0,0.0,0.0,0.0,0.0,0.0,0.0,0.0,0.0,0.0,0.0,0.0,0.0,0.0,0.0,0.0,0.0,0.0,0.0,0.0,0.0,0.0,0.0,0.0,0.0,0.0,0.0,0.0,0.0,0.0,0.0,0.0,0.0,0.0,0.0,0.0,0.0,0.0,0.0,0.0,0.0,0.0,0.0,0.7694,0.8813,0.8865,0.7735,0.7735,0.71,0.0,0.0,0.0,0.0,0.0,0.0,0.0,0.0,0.0,0.0,0.0,0.0,0.0,0.0,0.0,0.0,0.0,0.0,0.0,0.0,0.0,0.0,0.0,0.0,0.0,0.0,0.0,0.0,0.0,0.0,0.0,0.0,0.0,0.0,0.0,0.0,0.0,0.0,0.0,0.0,0.0,0.0,0.0,0.0,0.0,0.0,0.0,0.0,0.0,0.0,0.0,0.0,0.0,0.0,0.0,0.0,0.0,0.0,0.0,0.0,0.0,0.0,0.0,0.0,0.0,0.0,0.0,0.0,0.0,0.0,0.0,0.0,0.0,0.0,0.0,0.0,0.0,0.0,0.0,0.0,0.0,0.0,0.0,0.0,0.0,0.0,0.0,0.0,0.0,0.0,0.0,0.0,0.0,0.0,0.0,0.0,0.0,0.0,0.0,0.0,0.0,0.0,0.0,0.0,0.0,0.0,0.0,0.0,0.0,0.9018,0.9467,0.9486,0.8981,0.8916,0.7915,0.0,0.0,0.0,0.0,0.0,0.0,0.0,0.0,0.0,0.0,0.0,0.0,0.0,0.0,0.0,0.0,0.0,0.0,0.0,0.0,0.0,0.0,0.0,0.0,0.0,0.0,0.0,0.0,0.0,0.0,0.0,0.0,0.0,0.0,0.0,0.0,0.0,0.0,0.0,0.0,0.0,0.0,0.0,0.0,0.0,0.0,0.0,0.0,0.0,0.0,0.0,0.0,0.0,0.0,0.0,0.0,0.0,0.0,0.0,0.0,0.0,0.0,0.0,0.0,0.0,0.0,0.0,0.0,0.0,0.0,0.0,0.0,0.0,0.0,0.0,0.0,0.0,0.0,0.0,0.0,0.0,0.0,0.0,0.0,0.0,0.0,0.0,0.0,0.0,0.0,0.0,0.0,0.0,0.0,0.0,0.0,0.0,0.0,0.0,0.0,0.0,0.0,0.0,0.0,0.0,0.0,0.0,0.0,0.842,0.964,0.9774,0.9768,0.9666,0.9598,0.8906,0.0,0.0,0.0,0.0,0.0,0.0,0.0,0.0,0.0,0.0,0.0,0.0,0.0,0.0,0.0,0.0,0.0,0.0,0.0,0.0,0.0,0.0,0.0,0.0,0.0,0.0,0.0,0.0,0.0,0.0,0.0,0.0,0.0,0.0,0.0,0.0,0.0,0.0,0.0,0.0,0.0,0.0,0.0,0.0,0.0,0.0,0.0,0.0,0.0,0.0,0.0,0.0,0.0,0.0,0.0,0.0,0.0,0.0,0.0,0.0,0.0,0.0,0.0,0.0,0.0,0.0,0.0,0.0,0.0,0.0,0.0,0.0,0.0,0.0,0.0,0.0,0.0,0.0,0.0,0.0,0.0,0.0,0.0,0.0,0.0,0.0,0.0,0.0,0.0,0.0,0.0,0.0,0.0,0.0,0.0,0.0,0.0,0.0,0.0,0.0,0.0,0.0,0.0,0.0,0.0,0.0,0.0,0.0,0.8695,0.9808,0.9869,0.9937,0.9997,0.9862,0.9788,0.0,0.0,0.0,0.0,0.0,0.0,0.0,0.0,0.0,0.0,0.0,0.0,0.0,0.0,0.0,0.0,0.0,0.0,0.0,0.0,0.0,0.0,0.0,0.0,0.0,0.0,0.0,0.0,0.0,0.0,0.0,0.0,0.0,0.0,0.0,0.0,0.0,0.0,0.0,0.0,0.0,0.0,0.0,0.0,0.0,0.0,0.0,0.0,0.0,0.0,0.0,0.0,0.0,0.0,0.0,0.0,0.0,0.0,0.0,0.0,0.0,0.0,0.0,0.0,0.0,0.0,0.0,0.0,0.0,0.0,0.0,0.0,0.0,0.0,0.0,0.0,0.0,0.0,0.0,0.0,0.0,0.0,0.0,0.0,0.0,0.0,0.0,0.0,0.0,0.0,0.0,0.0,0.0,0.0,0.0,0.0,0.0,0.0,0.0,0.0,0.0,0.0,0.0,0.0,0.0,0.0,0.0,0.0,0.9929,1.0181,1.0181,1.0195,1.0229,1.008,0.9555,0.0,0.0,0.0,0.0,0.0,0.0,0.0,0.0,0.0,0.0,0.0,0.0,0.0,0.0,0.0,0.0,0.0,0.0,0.0,0.0,0.0,0.0,0.0,0.0,0.0,0.0,0.0,0.0,0.0,0.0,0.0,0.0,0.0,0.0,0.0,0.0,0.0,0.0,0.0,0.0,0.0,0.0,0.0,0.0,0.0,0.0,0.0,0.0,1.9,0.0,0.0,0.0,0.0,0.0,0.0,0.0,0.0,0.0,0.0,0.0,0.0,0.0,0.0,0.0,0.0,0.0,0.0,0.0,0.0,0.0,0.0,0.0,0.0,0.0,0.0,0.0,0.0,0.0,0.0,0.0,0.0,0.0,0.0,0.0,0.0,0.0,0.0,0.0,0.0,0.0,0.0,0.0,0.0,0.0,0.0,0.0,0.0,0.0,0.0,0.0,0.0,0.0,0.0,0.0,0.0,0.0,0.0,0.0,1.034,1.034,1.034,1.031,1.0371,1.0297,0.9945,0.0,0.0,0.0,0.0,0.0,0.0,0.0,0.0,0.0,0.0,0.0,0.0,0.0,0.0,0.0,0.0,0.0,0.0,0.0,0.0,0.0,0.0,0.0,0.0,0.0,0.0,0.0,0.0,0.0,0.0,0.0,0.0,0.0,0.0,0.0,0.0,0.0,0.0,0.0,0.0,0.0,0.0,0.0,0.0,0.0,0.0,0.0,0.0,0.0,0.0,0.0,0.0,0.0,0.0,0.0,0.0,0.0,0.0,0.0,0.0,0.0,0.0,0.0,0.0,0.0,0.0,0.0,0.0,0.0,0.0,0.0,0.0,0.0,0.0,0.0,0.0,0.0,0.0,0.0,0.0,0.0,0.0,0.0,0.0,0.0,0.0,0.0,0.0,0.0,0.0,0.0,0.0,0.0,0.0,0.0,0.0,0.0,0.0,0.0,0.0,0.0,0.0,0.0,0.0,0.0,0.0,0.0,1.0351,1.0351,1.0344,1.0344,1.0405,1.0521,1.0527,1.0466,1.0351,0.0,0.0,0.0,0.0,0.0,0.0,0.0,0.0,0.0,0.0,0.0,0.0,0.0,0.0,0.0,0.0,0.0,0.0,0.0,0.0,0.0,0.0,0.0,0.0,0.0,0.0,0.0,0.0,0.0,0.0,0.0,0.0,0.0,0.0,0.0,0.0,0.0,0.0,1.2618,1.3997,0.0,0.0,0.0,0.0,0.0,0.0,0.0,0.0,1.9136,0.0,0.0,0.0,0.0,0.0,0.0,0.0,0.0,0.0,0.0,0.0,0.0,0.0,0.0,0.0,0.0,0.0,0.0,0.0,0.0,0.0,0.0,0.0,0.0,0.0,0.0,0.0,0.0,0.0,0.0,0.0,0.0,0.0,0.0,0.0,0.0,0.0,0.0,0.0,0.0,0.0,0.0,0.0,0.0,0.0,0.0,0.0,0.0,0.0,0.0,0.0,0.0,0.0,0.0,0.0,0.0,1.0643,1.0649,1.0649,1.0649,1.0649,1.0656,1.0683,1.0683,1.067,1.0649,0.0,0.0,0.0,0.0,0.0,0.0,0.0,0.0,0.0,0.0,0.0,0.0,0.0,0.0,0.0,0.0,0.0,0.0,0.0,0.0,0.0,0.0,0.0,0.0,0.0,0.0,0.0,0.0,0.0,0.0,0.0,0.0,0.0,0.0,0.0,0.0,0.0,0.0,0.0,1.3997,1.4977,0.0,0.0,0.0,0.0,0.0,0.0,0.0,0.0,1.9136,0.0,0.0,0.0,0.0,0.0,0.0,0.0,0.0,0.0,0.0,0.0,0.0,0.0,0.0,0.0,0.0,0.0,0.0,0.0,0.0,0.0,0.0,0.0,0.0,0.0,0.0,0.0,0.0,0.0,0.0,0.0,0.0,0.0,0.0,0.0,0.0,0.0,0.0,0.0,0.0,0.0,0.0,0.0,0.0,0.0,0.0,0.0,0.0,0.0,0.0,0.0,0.0,0.0,0.0,0.0,1.0717,1.0717,1.0717,1.0717,1.0717,1.0717,1.0717,1.0717,1.0717,0.0,0.0,0.0,0.0,0.0,0.0,0.0,0.0,0.0,0.0,0.0,0.0,0.0,0.0,0.0,0.0,0.0,0.0,0.0,0.0,0.0,0.0,0.0,0.0,0.0,0.0,0.0,0.0,0.0,0.0,0.0,0.0,0.0,0.0,0.0,0.0,0.0,0.0,0.0,0.0,1.3997,1.4651,1.3923,0.0,0.0,0.0,0.0,0.0,0.0,1.9136,1.9136,0.0,0.0,0.0,0.0,0.0,0.0,0.0,0.0,0.0,0.0,0.0,0.0,0.0,0.0,0.0,0.0,0.0,0.0,0.0,0.0,0.0,0.0,0.0,0.0,0.0,0.0,0.0,0.0,0.0,0.0,0.0,0.0,0.0,0.0,0.0,0.0,0.0,0.0,0.0,0.0,0.0,0.0,0.0,0.0,0.0,0.0,0.0,0.0,0.0,0.0,0.0,0.0,0.0,0.0,0.0,1.0717,1.0717,1.0717,1.0717,1.0717,1.0717,1.0717,1.0717,1.0717,0.0,0.0,0.0,0.0,0.0,0.0,0.0,0.0,0.0,0.0,0.0,0.0,0.0,0.0,0.0,0.0,0.0,0.0,0.0,0.0,0.0,0.0,0.0,0.0,0.0,0.0,0.0,0.0,0.0,0.0,0.0,0.0,0.0,0.0,0.0,0.0,0.0,0.0,0.0,0.0,0.0,1.4184,1.3341,1.4193,0.0,0.0,0.0,0.0,1.9136,1.9136,0.0,0.0,0.0,0.0,0.0,0.0,0.0,0.0,0.0,0.0,0.0,0.0,0.0,0.0,0.0,0.0,0.0,0.0,0.0,0.0,0.0,0.0,0.0,0.0,0.0,0.0,0.0,0.0,0.0,0.0,0.0,0.0,0.0,0.0,0.0,0.0,0.0,0.0,0.0,0.0,0.0,0.0,0.0,0.0,0.0,0.0,0.0,0.0,0.0,0.0,0.0,0.0,0.0,0.0,0.0,0.0,1.0717,1.0717,1.0717,1.0717,1.0717,1.0717,1.0717,1.0717,1.0717,0.0,0.0,0.0,0.0,0.0,0.0,0.0,0.0,0.0,0.0,0.0,0.0,0.0,0.0,0.0,0.0,0.0,0.0,0.0,0.0,0.0,0.0,0.0,0.0,0.0,0.0,0.0,0.0,0.0,0.0,0.0,0.0,0.0,0.0,0.0,0.0,0.0,0.0,0.0,0.0,0.0,1.3407,1.452,1.4782,1.5424,0.0,0.0,1.9136,1.9136,1.9136,0.0,0.0,0.0,0.0,0.0,0.0,0.0,0.0,0.0,0.0,0.0,0.0,0.0,0.0,0.0,0.0,0.0,0.0,0.0,0.0,0.0,0.0,0.0,0.0,0.0,0.0,0.0,0.0,0.0,0.0,0.0,0.0,0.0,0.0,0.0,0.0,0.0,0.0,0.0,0.0,0.0,0.0,0.0,0.0,0.0,0.0,0.0,0.0,0.0,0.0,0.0,0.0,0.0,0.0,0.0,1.0779,1.0853,1.0928,1.0975,1.0968,1.0968,1.0968,1.0968,1.0968,1.0934,0.0,0.0,0.0,0.0,0.0,0.0,0.0,0.0,0.0,0.0,0.0,0.0,0.0,0.0,0.0,0.0,0.0,0.0,0.0,0.0,0.0,0.0,0.0,0.0,0.0,0.0,0.0,0.0,0.0,0.0,0.0,0.0,0.0,0.0,0.0,0.0,0.0,0.0,0.0,0.0,0.0,0.0,1.5016,1.5177,0.0,0.0,0.0,1.9531,1.9543,0.0,0.0,0.0,0.0,0.0,0.0,0.0,0.0,0.0,0.0,0.0,0.0,0.0,0.0,0.0,0.0,0.0,0.0,0.0,0.0,0.0,0.0,0.0,0.0,0.0,0.0,0.0,0.0,0.0,0.0,0.0,0.0,0.0,0.0,0.0,0.0,0.0,0.0,0.0,0.0,0.0,0.0,0.0,0.0,0.0,0.0,0.0,0.0,0.0,0.0,0.0,0.0,0.0,0.0,0.0,0.0,0.0,1.1002,1.1111,1.1234,1.1234,1.1234,1.1234,1.1234,1.1234,0.0,0.0,0.0,0.0,0.0,0.0,0.0,0.0,0.0,0.0,0.0,0.0,0.0,0.0,0.0,0.0,0.0,0.0,0.0,0.0,0.0,0.0,0.0,0.0,0.0,0.0,0.0,1.0826,0.0,0.0,0.0,0.0,0.0,0.0,0.0,0.0,0.0,0.0,0.0,0.0,0.0,0.0,1.5214,1.5357,1.5413,1.6059,0.0,0.0,1.9881,1.9881,1.9881,1.9881,0.0,0.0,0.0,0.0,0.0,0.0,0.0,0.0,0.0,0.0,0.0,0.0,0.0,0.0,0.0,0.0,0.0,0.0,0.0,0.0,0.0,0.0,0.0,0.0,0.0,0.0,0.0,0.0,0.0,0.0,0.0,0.0,0.0,0.0,0.0,0.0,0.0,0.0,0.0,0.0,0.0,0.0,0.0,0.0,0.0,0.0,0.0,0.0,0.0,0.0,0.0,0.0,0.0,0.0,0.0,1.1151,1.1227,1.1165,1.1234,1.1234,1.1234,1.1234,1.1234,1.1227,0.0,0.0,0.0,0.0,0.0,0.0,0.0,0.0,0.0,0.0,0.0,0.0,0.0,0.0,0.0,0.0,0.0,0.0,0.0,0.0,0.0,0.0,0.0,0.0,0.0,0.0,0.0,0.0,0.0,0.0,0.0,0.0,0.0,0.0,0.0,0.0,0.0,0.0,0.0,0.0,0.0,1.5489,1.5489,1.5498,1.6059,0.0,0.0,1.9881,1.9881,1.9893,1.9881,1.9881,0.0,0.0,0.0,0.0,0.0,0.0,0.0,0.0,0.0,0.0,0.0,0.0,0.0,0.0,0.0,0.0,0.0,0.0,0.0,0.0,0.0,0.0,0.0,0.0,0.0,0.0,0.0,0.0,0.0,0.0,0.0,0.0,0.0,0.0,0.0,0.0,0.0,0.0,0.0,0.0,0.0,0.0,0.0,0.0,0.0,0.0,0.0,0.0,0.0,0.0,0.0,0.0,0.0,1.1301,1.1307,1.1396,1.1443,1.1443,1.1443,1.1443,1.1443,1.1443,1.1402,0.0,0.0,0.0,0.0,0.0,0.0,0.0,0.0,0.0,0.0,0.0,0.0,0.0,0.0,0.0,0.0,0.0,0.0,0.0,0.0,0.0,0.0,0.0,0.0,0.0,0.0,0.0,0.0,1.1043,1.1077,1.1084,0.0,0.0,0.0,0.0,0.0,0.0,0.0,0.0,0.0,0.0,1.5971,1.6871,1.72,0.0,0.0,2.0078,2.0364,2.0364,2.0364,2.0364,2.0376,2.0376,0.0,0.0,0.0,0.0,0.0,0.0,0.0,0.0,0.0,0.0,0.0,0.0,0.0,0.0,0.0,0.0,0.0,0.0,0.0,0.0,0.0,0.0,0.0,0.0,0.0,0.0,0.0,0.0,0.0,0.0,0.0,0.0,0.0,0.0,0.0,0.0,0.0,0.0,0.0,0.0,0.0,0.0,0.0,0.0,0.0,0.0,0.0,0.0,0.0,0.0,0.0,0.0,1.1463,1.1463,1.1606,1.166,1.1619,1.166,1.166,1.1619,1.1619,1.1565,0.0,0.0,0.0,0.0,0.0,0.0,0.0,0.0,0.0,0.0,0.0,0.0,0.0,0.0,0.0,0.0,0.0,0.0,0.0,0.0,0.0,0.0,0.0,0.0,0.0,0.0,0.0,0.0,1.1206,1.1246,1.1294,0.0,0.0,0.0,0.0,0.0,0.0,0.0,0.0,0.0,0.0,1.6192,1.7302,1.7945,1.8971,2.0457,2.0665,2.0702,2.0774,2.0425,2.0099,2.018,0.0,0.0,0.0,0.0,0.0,0.0,0.0,0.0,0.0,0.0,0.0,0.0,0.0,0.0,0.0,0.0,0.0,0.0,0.0,0.0,0.0,0.0,0.0,0.0,0.0,0.0,0.0,0.0,0.0,0.0,1.1116,0.0,0.0,0.0,0.0,0.0,0.0,0.0,0.0,0.0,0.0,0.0,0.0,0.0,0.0,0.0,0.0,0.0,0.0,0.0,0.0,0.0,0.0,1.1619,1.1619,1.1762,1.1762,1.1633,1.1755,1.1769,1.1633,1.1626,1.1619,1.1613,0.0,0.0,0.0,0.0,0.0,0.0,0.0,0.0,0.0,0.0,0.0,0.0,0.0,0.0,0.0,0.0,0.0,0.0,0.0,0.0,0.0,0.0,0.0,0.0,0.0,0.0,1.1241,1.1301,1.1443,0.0,0.0,0.0,0.0,0.0,0.0,0.0,0.0,0.0,0.0,1.5203,1.6122,1.6202,1.7489,1.8993,2.0469,2.0678,2.0762,2.0945,1.9671,1.8749,0.0,0.0,0.0,0.0,0.0,0.0,0.0,0.0,0.0,0.0,0.0,0.0,0.0,0.0,0.0,0.0,0.0,0.0,0.0,0.0,0.0,0.0,0.0,0.0,0.0,0.0,0.0,1.0101,1.0101,0.0,0.0,0.0,0.0,0.0,0.0,0.0,0.0,0.0,0.0,0.0,1.1694,1.1843,0.0,0.0,0.0,0.0,0.0,0.0,0.0,0.0,0.0,0.0,0.0,0.0,1.1616,1.1918,1.1959,1.1959,1.1918,1.1959,1.1965,1.1918,1.1918,1.1864,1.1762,0.0,0.0,0.0,0.0,0.0,0.0,0.0,0.0,0.0,0.0,0.0,0.0,0.0,0.0,0.0,0.0,0.0,0.0,0.0,0.0,0.0,0.0,0.0,0.0,0.0,1.1355,0.0,0.0,0.0,0.0,0.0,0.0,0.0,0.0,0.0,0.0,0.0,1.5061,1.4122,1.5426,1.6396,1.6528,1.8803,2.0258,0.0,0.0,0.0,0.0,0.0,0.0,0.0,0.0,0.0,0.0,0.0,0.0,0.0,0.0,1.1701,1.1504,1.1616,1.1914,1.2323,0.0,0.0,0.0,0.0,0.0,0.0,0.0,0.0,0.0,0.0,0.0,0.0,0.0,0.0,1.0583,0.0,1.0878,0.0,0.0,0.0,0.0,0.0,0.0,0.0,0.0,1.1797,1.1911,1.1911,1.2013,1.206,0.0,1.206,1.1737,0.0,0.0,0.0,0.0,0.0,0.0,0.0,0.0,1.1836,1.2067,1.2115,1.2115,1.2142,1.2115,1.2115,1.206,1.206,1.2013,1.1911,1.1911,1.1864,0.0,0.0,0.0,0.0,0.0,0.0,0.0,0.0,0.0,0.0,0.0,0.0,0.0,0.0,0.0,0.0,0.0,0.0,0.0,0.0,0.0,0.0,0.0,1.0934,0.0,0.0,0.0,0.0,0.0,0.0,0.0,0.0,0.0,1.7531,1.5542,1.4042,1.4221,1.5622,1.6831,1.755,0.0,0.0,0.0,0.0,0.0,0.0,0.0,1.7118,1.6154,1.6387,1.661,1.6089,1.4695,1.3768,1.4356,0.0,0.0,1.1809,1.1917,1.2206,1.2427,1.25,1.2536,1.2933,1.2844,1.2763,0.0,0.0,0.0,0.0,0.0,0.0,0.0,0.0,1.132,1.1469,0.0,1.1469,0.0,0.0,0.0,0.0,0.0,1.1307,0.0,0.0,1.1911,1.2149,1.2142,1.2081,1.2081,1.2088,1.2094,1.2169,1.2094,1.2169,0.0,0.0,0.0,0.0,0.0,0.0,1.2088,1.2108,1.225,1.2244,1.219,1.2237,1.223,1.2088,1.2081,1.2081,1.2074,1.2067,1.2142,1.206,1.2054,0.0,0.0,0.0,0.0,0.0,0.0,0.0,0.0,0.0,0.0,0.0,0.0,0.0,0.0,0.0,0.0,0.0,0.0,0.0,0.0,0.9291,0.0,0.0,0.0,0.0,0.0,0.0,0.0,0.0,0.0,0.0,1.6192,1.4954,1.4156,1.4473,0.0,0.0,0.0,0.0,2.0836,1.9155,1.8925,1.8487,1.6973,1.5512,1.4665,1.4835,0.0,0.0,1.4552,1.3442,1.2823,1.4323,1.3221,1.2074,1.2162,1.2373,1.2515,1.2589,1.2596,1.2604,1.2618,1.2526,1.2388,1.1352,0.0,0.0,0.0,0.0,1.0715,1.0995,1.1466,1.1618,1.1618,1.1618,1.1618,0.0,0.0,0.0,0.0,0.0,0.0,1.1687,1.1918,1.2176,1.2223,1.223,1.2325,1.2433,1.2535,1.2535,1.2596,1.2698,1.2783,1.2589,1.2379,0.0,0.0,0.0,0.0,1.239,1.2705,1.2745,1.2824,1.2705,1.2637,1.2528,1.2379,1.2379,1.2332,1.223,1.2223,1.2176,1.2142,1.206,0.0,0.0,0.0,0.0,0.0,0.0,0.0,0.0,0.0,0.0,0.0,0.0,0.0,0.0,0.0,0.0,0.0,0.0,0.0,1.0959,0.9945,0.9945,0.0,0.0,0.0,0.0,0.0,0.0,0.0,0.0,0.0,1.4951,1.3683,1.3163,0.0,0.0,1.6367,1.9212,1.999,1.9692,1.8111,1.7875,0.0,1.4175,1.4336,1.4428,1.3337,1.2804,1.2656,1.3112,1.2776,1.2594,1.3048,1.2713,1.2406,1.2501,1.2435,1.2388,1.2381,1.2457,1.256,1.267,1.2654,1.263,1.2086,1.1856,1.1467,1.134,1.1414,1.1497,1.1773,1.2245,1.2245,1.2212,1.2075,1.2075,1.1919,1.1555,1.1555,0.0,0.0,0.0,1.201,1.2244,1.2393,1.2461,1.2474,1.2617,1.2732,1.282,1.282,1.2868,1.3043,1.3043,1.2895,1.2773,0.0,0.0,1.2956,1.2722,1.2715,1.2963,1.3043,1.3043,1.3036,1.2868,1.2779,1.2691,1.2684,1.2644,1.2562,1.2556,1.2488,1.2332,1.2325,1.2277,0.0,0.0,0.0,0.0,0.0,0.0,0.0,0.0,0.0,0.0,0.0,0.9507,1.0599,0.0,0.0,0.0,1.0161,1.0696,1.0752,0.9948,0.0,0.0,0.0,0.0,0.0,0.0,0.0,1.4382,1.3889,1.3665,1.3891,1.3084,1.3041,1.4665,1.496,1.5966,1.8605,0.0,1.8394,1.6861,1.6629,1.5699,1.3148,1.3532,1.3767,1.2841,1.2684,1.2684,1.2684,1.2684,1.2684,1.2684,1.2684,1.2712,1.2807,1.2671,1.2556,1.2556,1.2623,1.2712,1.2807,1.2827,1.2847,1.2588,1.2916,1.2185,1.2012,1.2314,1.2314,1.2555,1.3043,1.2956,1.2881,1.2752,1.2745,1.2671,1.2535,1.2542,0.0,1.2535,1.2535,1.2535,1.2464,1.2606,1.2667,1.2594,1.2815,1.2969,1.2976,1.2976,1.2983,1.3077,1.2996,1.3064,1.3186,1.3057,1.2996,1.2996,1.2996,1.2996,1.2996,1.3077,1.2996,1.2976,1.2976,1.2969,1.2956,1.3043,1.3036,1.3036,1.3036,1.2895,1.2759,1.2745,1.2623,1.2359,0.0,0.0,0.0,0.0,0.0,0.0,0.0,0.0,0.0,0.0,0.0,0.0,0.0,0.0,0.0,0.9318,0.0,0.9702,0.9707,0.0,0.0,0.0,1.2731,1.4003,1.3051,1.2882,1.4499,0.0,0.0,1.3002,1.305,1.3561,1.4892,1.5161,1.5877,1.7599,1.7669,1.7047,1.5701,1.5408,1.4851,1.3248,1.3009,1.3089,1.3009,1.3043,1.3022,1.2942,1.2942,1.3036,1.2942,1.3036,1.3043,1.2969,1.2963,1.2983,1.2983,1.3043,1.2956,1.3056,1.2976,1.299,1.2712,1.2801,1.2966,1.2922,1.2802,1.2802,1.2882,1.3043,1.3043,1.2942,1.2908,1.2908,1.2888,1.2854,1.2854,1.2927,1.2854,1.2854,1.2695,1.2377,1.2728,1.2582,1.1863,1.2301,1.2533,1.2625,1.2631,1.2853,1.3295,1.3295,1.3315,1.3342,1.3315,1.3295,1.3295,1.3295,1.3295,1.3295,1.3295,1.3241,1.3125,1.3125,1.3071,1.3043,1.3043,1.3043,1.3043,1.3043,1.2942,1.2908,1.2908,1.2874,1.2807,1.2691,0.0,0.0,0.0,0.0,0.0,0.0,0.0,0.0,0.0,0.8465,1.0967,0.0,0.9386,0.0,0.9631,1.0093,1.1324,1.1479,0.0,0.0,1.3089,1.3551,1.3046,1.3694,1.3975,1.3447,1.3086,1.2881,1.2956,1.3057,1.3267,1.363,1.3639,1.462,1.7284,1.6739,1.5885,1.5496,1.5345,1.4859,1.337,1.3043,1.305,1.3043,1.3043,1.3043,1.3043,1.3043,1.3043,1.3043,1.3043,1.3084,1.3112,1.3119,1.3173,1.3254,1.3119,1.2996,1.3098,1.3125,1.3159,1.2235,1.2484,1.2733,1.2725,1.2589,1.299,1.3159,1.3159,1.3159,1.3119,1.3131,1.299,1.3043,1.3043,1.3043,1.3043,1.3043,1.3043,1.2882,1.2642,1.2943,1.2728,1.2006,1.2306,1.254,1.2611,1.2611,1.2903,1.3397,1.3397,1.3437,1.3498,1.3498,1.3539,1.3587,1.3464,1.3397,1.3397,1.3397,1.3363,1.3275,1.3275,1.3241,1.3159,1.3152,1.3159,1.3159,1.3152,1.3125,1.3057,1.3057,1.303,1.2963,1.2881,1.2834,0.0,0.0,0.0,0.0,0.0,0.0,0.0,0.0,0.0,0.0,0.0,0.9722,1.0691,1.0832,1.1271,1.2175,1.2318,1.2386,1.2531,1.3223,1.3443,1.277,1.349,1.3742,1.3192,1.3057,1.3085,1.3146,1.3227,1.3275,1.3275,1.3207,1.3796,1.5312,1.5077,1.4526,1.4526,1.4518,1.4283,1.3234,1.3159,1.3159,1.3159,1.3159,1.3159,1.3159,1.3152,1.3173,1.3241,1.3261,1.3302,1.3437,1.3471,1.3505,1.3546,1.3464,1.337,1.3376,1.3376,1.3424,1.1706,1.2034,1.2124,1.2124,1.2207,1.2958,1.3271,1.3321,1.3238,1.3157,1.3112,1.3071,1.3017,1.3017,1.3017,1.3017,1.3017,1.3017,1.3017,1.2943,1.3146,1.2955,1.2471,1.2592,1.274,1.2759,1.2759,1.3022,1.3458,1.3458,1.3526,1.3654,1.3577,1.3715,1.3824,1.3587,1.3458,1.3458,1.3458,1.3458,1.3458,1.3458,1.3458,1.3458,1.3458,1.3458,1.3458,1.3437,1.337,1.3241,1.3214,1.3146,1.3024,1.2996,1.299,0.0,1.2969,0.0,0.0,0.0,0.0,0.0,0.0,0.0,0.0,0.9796,1.0416,1.21,1.2298,1.2427,1.2549,1.2684,1.2813,1.2942,1.3043,1.2969,1.2983,1.299,1.3044,1.3186,1.32,1.3254,1.337,1.3397,1.3397,1.339,1.341,1.3493,1.3507,1.3562,1.3542,1.3397,1.3397,1.3535,1.341,1.3424,1.3431,1.3451,1.3458,1.3458,1.3458,1.3458,1.3498,1.3614,1.3634,1.3682,1.3817,1.3824,1.3738,1.3817,1.3711,1.3763,1.3675,1.3725,1.3787,1.1806,1.1886,1.2228,1.2319,1.2313,1.249,1.2699,1.2816,1.2484,1.2554,1.2777,1.3164,1.3315,1.3315,1.3315,1.3315,1.3315,1.3315,1.315,1.2738,1.3177,1.2943,1.2198,1.2554,1.2798,1.2907,1.2907,1.3219,1.3756,1.3756,1.377,1.3797,1.3804,1.3725,1.3752,0.0,0.0,0.0,1.3763,1.3756,1.3756,1.3756,1.3756,1.3756,1.3756,0.0,1.3756,1.3648,1.3573,1.3546,1.3424,0.0,0.0,0.0,0.0,0.0,0.0,0.0,0.0,0.0,0.0,0.0,1.2496,1.2259,1.2148,1.2239,1.247,1.2793,1.282,1.2847,1.2874,1.2901,1.2929,1.3036,1.2963,1.309,1.3112,1.3132,1.3193,1.3336,1.3356,1.337,1.3397,1.3397,1.3403,1.3424,1.3512,1.358,1.3587,1.3485,1.341,1.3403,1.3424,1.3458,1.3566,1.3587,1.3627,1.3722,1.3756,1.3749,1.3743,1.3743,1.3749,1.3797,1.3804,1.3804,1.3759,1.3752,1.3772,1.3759,1.3759,1.3745,1.3804,1.4145,1.4415,1.1446,0.0,1.1704,1.179,0.0,1.179,1.2057,1.2602,1.2602,1.2855,1.3277,1.3452,1.362,1.362,1.362,1.362,1.362,1.362,1.3445,1.3277,1.3529,1.3283,1.2608,1.2855,1.2978,1.3134,1.3055,1.3344,1.3752,1.3752,1.3878,1.3953,1.396,1.3994,1.4061,1.4068,1.3994,1.3752,1.3752,1.3752,1.3752,1.3752,1.3752,1.3752,1.3752,0.0,0.0,0.0,0.0,0.0,0.0,0.0,0.0,1.3444,0.0,1.3288,1.322,1.318,1.318,1.318,1.318,1.318,1.318,1.3085,1.2861,1.2915,1.3043,1.2963,1.3024,1.3064,1.3071,1.3132,1.318,1.318,1.318,1.3214,1.3268,1.3281,1.3315,1.339,1.3464,1.3512,1.3512,1.358,1.3614,1.362,1.3682,1.3736,1.3729,1.3668,1.362,1.3614,1.362,1.3641,1.3715,1.3736,1.3749,1.3824,1.3752,1.3752,1.3752,1.3752,1.3865,1.3933,1.3953,1.3973,1.4055,1.4068,1.4068,1.4068,1.4068,1.4155,1.4315,1.4527,1.4678,1.1166,1.1166,1.1166,1.1166,1.1166,1.1166,1.1681,1.2619,0.0,0.0,0.0,1.3752,1.3752,1.3752,1.3752,1.3752,1.3752,1.3752,1.3752,1.3752,1.3752,1.3666,1.3324,1.3324,1.3343,1.3363,1.3363,1.3548,1.3833,1.3919,1.3987,1.4102,1.4109,1.4177,1.4292,1.4299,1.4177,1.3933,1.3926,1.3919,1.3919,1.3919,1.3926,1.3919,1.3919,1.3919,1.3919,1.3899,1.3885,1.3878,1.3858,1.379,1.3675,1.3668,1.3614,1.3492,1.3478,1.3478,1.3478,1.3478,1.3478,1.3478,1.3478,1.3356,1.3064,1.3037,1.3037,1.3037,1.3146,1.3214,1.3214,1.3322,1.3397,1.3397,1.3424,1.3437,1.3444,1.3464,1.3492,1.3492,1.3593,1.3668,1.3668,1.3756,1.3752,1.3844,1.3858,1.3899,1.3905,1.3865,1.381,1.381,1.3797,1.3752,1.3878,1.3885,1.3892,1.3939,1.396,1.396,1.396,1.398,1.4048,1.4197,1.419,1.4251,1.4346,1.4346,1.434,1.4333,1.4401,1.4564,1.4896,1.5067,1.5199,1.1494,1.1406,1.1406,1.1494,1.1494,1.1406,1.1937,1.289,1.3435,1.3502,1.3324,1.3666,1.3752,1.3752,1.3752,1.3752,1.3752,1.3752,1.3752,1.3752,1.3752,1.3752,1.3673,1.3752,1.3826,1.3947,1.3954,1.4022,1.4224,1.4231,1.4251,1.4265,1.4272,1.4278,1.4299,1.4299,1.4278,1.4238,1.4238,1.4238,1.4238,1.4238,1.4238,1.4238,1.4231,1.4238,1.4231,1.4109,1.4041,1.4034,1.3912,1.3831,1.381,1.381,1.3804,1.3777,1.3777,1.3777,1.3777,1.3777,1.3777,1.3777,1.3777,1.3654,1.337,1.3336,1.3336,1.3342,1.3363,1.337,1.337,1.3397,1.3417,1.3417,1.3519,1.3593,1.36,1.3695,1.3756,1.3756,1.3711,1.381,1.3817,1.3844,1.3878,1.3871,1.4007,1.4095,1.4163,1.4007,1.3858,1.3752,1.3752,1.3899,1.4034,1.4041,1.4109,1.4217,1.4326,1.438,1.438,1.4468,1.4543,1.4624,1.4597,1.4624,1.4652,1.4563,1.4502,1.4475,1.4757,1.4939,1.5123,1.5616,1.6122,1.1543,1.1543,1.1543,1.1543,1.1543,1.2077,1.2343,1.2603,1.3624,1.4001,1.3827,1.4001,1.4089,1.4089,1.4089,1.4089,1.4089,1.4089,1.4089,1.4089,1.4089,1.4089,1.4089,1.4089,1.4129,1.4197,1.4197,1.4231,1.4292,1.4299,1.4299,1.4306,1.4373,1.4455,1.4536,1.4543,1.4543,1.4536,1.438,1.4299,1.4299,1.4299,1.4299,1.4299,1.4299,1.4299,1.4299,1.4231,1.4197,1.4197,1.4129,1.4055,1.3973,1.3966,1.3926,1.3759,1.3752,1.3752,1.3752,1.3752,1.3752,1.3752,1.3752,1.3783,1.3654,1.3641,1.3641,1.3641,1.3641,1.3641,1.3641,1.3641,1.3634,1.3641,1.3709,1.3743,1.3749,1.3797,1.3752,1.3759,1.3919,1.3966,1.3966,1.4102,1.4204,1.4217,1.4333,1.4462,1.4523,1.4421,1.4292,1.4231,1.4183,1.4353,1.4414,1.4434,1.4468,1.4536,1.459,1.4631,1.4638,1.4706,1.4733,1.474,1.474,1.474,1.4649,1.4685,1.4735,1.4986,1.5125,1.5435,1.5883,1.6592,1.6975,1.1536,1.1536,1.1536,1.1626,1.1805,1.261,1.2878,1.2788,1.3859,1.4401,1.4394,1.4333,1.4299,1.4299,1.4299,1.4299,1.4299,1.4299,1.4319,1.4346,1.4346,1.4367,1.4401,1.4401,1.4401,1.4401,1.4401,1.4401,1.4401,1.4401,1.4401,1.4407,1.4509,1.4618,1.4733,1.474,1.474,1.4726,1.4516,1.4401,1.4401,1.4367,1.4346,1.4346,1.4319,1.4299,1.4299,1.4299,1.4299,1.4299,1.4299,1.4245,1.4129,1.4122,1.4068,1.396,1.3946,1.3946,1.3946,1.3946,1.3946,1.3946,1.3946,1.3946,1.3946,1.3946,1.3905,1.3851,1.3738,1.3745,1.3738,1.3831,1.3752,1.3752,1.3878,1.3912,1.3939,1.3966,1.4007,1.3954,1.415,1.4231,1.4265,1.4421,1.4536,1.4563,1.4665,1.4733,1.474,1.476,1.4733,1.4672,1.4692,1.4706,1.474,1.4719,1.4719,1.474,1.4767,1.4787,1.4801,1.4814,1.4474,1.4303,1.4205,1.3843,1.3732,1.3609,1.3682,1.3852,1.3906,1.4517,1.5063,1.5517,1.628,1.1781,1.1786,1.1775,1.2055,1.25,1.3047,1.3412,1.3867,1.4426,1.4699,1.4568,1.4421,1.4312,1.4299,1.4306,1.4312,1.4312,1.4299,1.4373,1.4482,1.4489,1.4563,1.4679,1.4692,1.4699,1.4685,1.4685,1.4672,1.4672,1.4679,1.4692,1.4699,1.4713,1.4726,1.4746,1.4746,1.4746,1.474,1.4713,1.4699,1.4692,1.4563,1.4489,1.4496,1.4367,1.4299,1.4319,1.4299,1.4299,1.4299,1.4306,1.4299,1.4285,1.4278,1.4272,1.4258,1.4251,1.4258,1.4258,1.4258,1.4251,1.4258,1.4258,1.4258,1.4258,1.4258,1.4136,1.3946,1.3772,1.3871,1.3759,1.3871,1.3905,1.3926,1.4007,1.4102,1.4238,1.4373,1.4502,1.4645,1.4611,1.4672,1.4631,1.4685,1.4719,1.474,1.4774,1.4794,1.4794,1.4882,1.4943,1.4903,1.4841,1.4767,1.4767,1.474,1.478,1.478,1.4862,1.4837,1.4778,1.4673,1.4665,1.2835,1.2782,1.25,1.1339,1.054,1.1046,1.1713,1.184,1.1727,1.2072,1.2558,1.3181,1.1819,1.1819,1.1819,1.2088,1.2632,1.309,1.3364,1.3638,1.4375,1.4557,1.4362,1.443,1.4557,1.4563,1.4557,1.4557,1.4563,1.4563,1.459,1.4645,1.4645,1.4685,1.4733,1.474,1.474,1.474,1.474,1.474,1.474,1.474,1.478,1.4869,1.4875,1.4916,1.4997,1.5004,1.5004,1.5004,1.5004,1.4997,1.497,1.4767,1.4645,1.4638,1.459,1.4557,1.4557,1.4557,1.4563,1.4557,1.4563,1.4563,1.4557,1.4475,1.4428,1.4421,1.4346,1.4333,1.4421,1.4428,1.4468,1.455,1.4563,1.4563,1.4563,1.4557,1.4502,1.4394,1.4292,1.4238,1.4245,1.4319,1.4373,1.438,1.4434,1.4489,1.455,1.4604,1.4679,1.4733,1.474,1.474,1.4753,1.4821,1.4909,1.4977,1.4997,1.4984,1.5004,1.5059,1.5086,1.5086,1.5038,1.5011,1.4991,1.4997,1.4997,1.5011,1.5052,1.4906,1.3602,1.37,1.321,1.1207,1.1448,1.1387,1.083,1.0518,1.0668,1.083,1.1407,1.1831,1.2021,1.1967,1.2018,1.1917,1.1917,1.1917,1.2281,1.2921,1.329,1.3475,1.3659,1.4494,1.4586,1.4218,1.4626,1.4923,1.4903,1.4801,1.474,1.474,1.474,1.4767,1.4801,1.4801,1.4821,1.4855,1.4862,1.4862,1.4862,1.4869,1.4862,1.4862,1.4862,1.4916,1.5018,1.5031,1.5086,1.5167,1.5181,1.5181,1.5181,1.5181,1.5181,1.5147,1.497,1.4841,1.4808,1.476,1.474,1.474,1.474,1.474,1.474,1.474,1.474,1.4733,1.4631,1.4577,1.457,1.4482,1.4462,1.457,1.4577,1.4624,1.4726,1.474,1.474,1.474,1.474,1.474,1.4719,1.4679,1.4624,1.459,1.4672,1.4733,1.474,1.474,1.4753,1.4794,1.4801,1.4821,1.4855,1.4889,1.4862,1.4875,1.4964,1.5065,1.514,1.5167,1.5181,1.5181,1.5174,1.5174,1.5181,1.5181,1.5174,1.5181,1.516,1.5087,1.4435,1.4247,1.353,1.1915,1.1921,1.1513,0.9591,0.995,0.9582,0.8682,0.899,0.9692,1.0078,1.0463,1.0648,1.0025,1.0482,0.9876,1.2156,1.215,1.2156,1.271,1.3664,1.3651,1.3933,1.4283,1.4866,1.4866,1.4497,1.5093,1.5371,1.5323,1.4943,1.4753,1.476,1.478,1.4848,1.4964,1.4964,1.5031,1.516,1.516,1.5153,1.512,1.512,1.5133,1.514,1.5153,1.5167,1.5174,1.5174,1.5181,1.5208,1.5215,1.5194,1.5228,1.5235,1.5208,1.5208,1.5194,1.5126,1.5011,1.4828,1.4774,1.476,1.4746,1.4753,1.4746,1.476,1.4753,1.4746,1.474,1.4733,1.4719,1.4713,1.4713,1.4726,1.4726,1.474,1.4753,1.4774,1.4753,1.4808,1.4808,1.4814,1.4767,1.4916,1.4909,1.4801,1.4794,1.478,1.4774,1.476,1.4821,1.495,1.4957,1.5025,1.5106,1.512,1.5113,1.514,1.5167,1.516,1.5174,1.5181,1.5181,1.5181,1.5181,1.4993,1.4899,1.4899,1.5087,1.5087,1.4737,1.3971,1.3045,1.2164,1.174,1.0528,0.9503,0.8678,0.8224,0.8449,0.7966,0.648,0.6185,0.6883,0.7282,0.7387,0.7479,0.8092,0.7074,0.6863,1.2172,1.2172,1.2172,1.255,1.3211,1.3588,1.3964,1.4422,1.4993,1.5087,1.4999,1.5147,1.5316,1.5398,1.514,1.5133,1.5296,1.5215,1.5201,1.5242,1.5153,1.5133,1.5174,1.5181,1.5181,1.5181,1.5181,1.5181,1.5181,1.5181,1.5235,1.5316,1.533,1.5371,1.5459,1.5479,1.552,1.5601,1.5615,1.5655,1.573,1.5757,1.573,1.5669,1.5343,1.5167,1.5167,1.5167,1.5126,1.5025,1.5025,1.5025,1.5018,1.4936,1.4841,1.4753,1.474,1.478,1.4869,1.4889,1.493,1.5011,1.5025,1.5072,1.5147,1.5174,1.5208,1.5296,1.535,1.5364,1.5289,1.5147,1.5025,1.5025,1.5025,1.5031,1.5086,1.5106,1.5126,1.5167,1.5181,1.5181,1.5181,1.5181,1.5181,1.5181,1.5181,1.5181,1.4993,1.4234,1.3381,1.2999,1.215,1.1321,1.1302,1.255,1.2651,1.1151,1.0138,0.9419,0.8484,0.8347,0.7803,0.7042,0.7054,0.7283,0.6193,0.6198,0.6395,0.6395,0.6395,0.6395,0.6495,0.6376,0.6354,1.2172,1.2172,1.2172,1.2456,1.2928,1.3493,1.387,1.4241,1.4899,1.5087,1.4999,1.5134,1.5316,1.5391,1.535,1.5432,1.5601,1.5432,1.5337,1.533,1.5235,1.5181,1.5181,1.5181,1.5181,1.5194,1.5235,1.5276,1.5323,1.533,1.5384,1.5479,1.5486,1.556,1.5683,1.571,1.5778,1.59,1.5927,1.5981,1.6069,1.6083,1.611,1.6103,1.5859,1.5676,1.5635,1.5628,1.5581,1.5486,1.5425,1.5377,1.5323,1.5242,1.514,1.5045,1.5038,1.5072,1.5167,1.5187,1.5228,1.5316,1.533,1.5384,1.5472,1.5486,1.554,1.5615,1.5635,1.5635,1.5601,1.5445,1.5309,1.5262,1.5215,1.5181,1.5181,1.5181,1.5174,1.5181,1.5181,1.5181,1.5181,1.5181,1.5181,1.5181,1.5181,1.5087,1.4134,1.3187,1.1883,1.1242,1.0212,0.9212,0.8799,0.9419,0.9898,0.8656,0.8499,0.7655,0.7104,0.7057,0.7,0.6124,0.605,0.6387,0.651,0.6515,0.6515,0.6512,0.6515,0.6515,0.6496,0.6469,0.645,1.2172,1.2172,1.2172,1.2456,1.2928,1.3493,1.3682,1.3964,1.4811,1.4993,1.4724,1.5133,1.5377,1.5432,1.5493,1.5608,1.5588,1.5357,1.5235,1.5228,1.5194,1.5187,1.5201,1.5208,1.5221,1.5235,1.5343,1.5479,1.5594,1.5594,1.5608,1.5635,1.5635,1.571,1.595,1.5859,1.5927,1.6049,1.6083,1.609,1.609,1.6117,1.6185,1.6293,1.6273,1.6191,1.6076,1.6056,1.6001,1.5981,1.5866,1.5771,1.5615,1.5581,1.5608,1.5567,1.5601,1.5518,1.5601,1.5588,1.5567,1.5588,1.5615,1.5601,1.5628,1.5642,1.5655,1.5689,1.5683,1.5669,1.5676,1.5635,1.556,1.5432,1.5309,1.5242,1.5208,1.5187,1.5181,1.5181,1.5181,1.5181,1.5181,1.5181,1.5181,1.5181,1.5181,1.4516,1.2999,1.2161,1.1157,0.9694,0.8388,0.7265,0.6649,0.6212,0.6303,0.6305,0.6629,0.6462,0.5994,0.5829,0.6379,0.5898,0.6218,0.6559,0.6575,0.6583,0.6591,0.6594,0.6611,0.6608,0.6578,0.6548,0.6545,1.2172,1.2172,1.2172,1.2456,1.2928,1.3493,1.387,1.4241,1.4899,1.5087,1.4999,1.5134,1.5309,1.5377,1.5364,1.5445,1.5608,1.5432,1.5343,1.5323,1.5235,1.5248,1.5323,1.5343,1.5391,1.5486,1.554,1.5588,1.5635,1.5642,1.5683,1.5771,1.5791,1.5866,1.6001,1.6015,1.609,1.6218,1.6239,1.6279,1.6374,1.6381,1.6408,1.6449,1.6456,1.6429,1.6381,1.6191,1.5988,1.5811,1.573,1.5683,1.5649,1.5635,1.5635,1.5635,1.5635,1.5635,1.5635,1.5642,1.5649,1.5642,1.5642,1.5696,1.5771,1.5784,1.5832,1.5913,1.5947,1.5947,1.5927,1.5839,1.5737,1.5588,1.5527,1.5438,1.535,1.5255,1.5187,1.5181,1.5181,1.5181,1.5181,1.5181,1.5181,1.5181,1.5093,1.4335,1.2539,1.0892,0.9403,0.7522,0.631,0.5487,0.5052,0.4892,0.5098,0.5302,0.5523,0.5944,0.5361,0.5381,0.583,0.6175,0.6399,0.6521,0.664,0.6651,0.666,0.6651,0.6643,0.6638,0.6635,0.6627,0.6616,1.2308,1.2308,1.2494,1.278,1.3161,1.3829,1.4305,1.4685,1.516,1.535,1.5357,1.5357,1.5398,1.5466,1.5391,1.5459,1.5615,1.554,1.5493,1.5486,1.5404,1.5411,1.5493,1.5493,1.5574,1.5696,1.5716,1.575,1.5798,1.5805,1.5845,1.5927,1.594,1.6015,1.6151,1.6171,1.6239,1.6368,1.6388,1.6429,1.6503,1.6517,1.6517,1.6517,1.6517,1.6497,1.6435,1.6259,1.611,1.5981,1.592,1.5866,1.5818,1.5811,1.5805,1.5805,1.5805,1.5811,1.5805,1.5818,1.5805,1.5805,1.5798,1.5839,1.592,1.594,1.6008,1.6137,1.6164,1.6185,1.6212,1.611,1.5988,1.59,1.5723,1.5615,1.5493,1.5411,1.533,1.5303,1.5276,1.5242,1.5201,1.5181,1.5181,1.5181,1.4562,1.3352,1.1377,0.9344,0.7365,0.5656,0.452,0.3873,0.3514,0.3636,0.3954,0.437,0.4788,0.5311,0.5431,0.585,0.6291,0.6449,0.6687,0.6717,0.6736,0.6728,0.6728,0.6706,0.6703,0.6714,0.6725,0.6687,0.6673,1.2531,1.2634,1.3114,1.34,1.3594,1.4486,1.488,1.5081,1.5468,1.5662,1.5662,1.5662,1.5669,1.5669,1.5669,1.5689,1.5683,1.5689,1.5703,1.5703,1.5676,1.5669,1.5649,1.5676,1.5757,1.5852,1.5866,1.5934,1.6022,1.6035,1.6076,1.6062,1.6062,1.6137,1.6225,1.6286,1.632,1.6415,1.6456,1.6463,1.649,1.6497,1.651,1.6517,1.6517,1.6469,1.6374,1.6334,1.6368,1.6442,1.6279,1.6151,1.609,1.6083,1.6049,1.6042,1.6076,1.6083,1.609,1.6096,1.6103,1.6103,1.6103,1.6103,1.6123,1.6137,1.6185,1.63,1.632,1.6368,1.6442,1.6381,1.6293,1.6246,1.5913,1.5689,1.5655,1.5628,1.554,1.5452,1.5418,1.5377,1.5269,1.5248,1.5147,1.4594,1.343,1.1841,0.9469,0.7495,0.5609,0.4357,0.3481,0.3514,0.3449,0.3776,0.41,0.4741,0.5061,0.5377,0.5809,0.6234,0.6457,0.6617,0.6774,0.6801,0.682,0.6815,0.682,0.6828,0.6828,0.6828,0.6804,0.6771,0.6744,1.3109,1.312,1.3798,1.4226,1.463,1.502,1.5467,1.577,1.5869,1.5961,1.5967,1.5967,1.5967,1.5967,1.5967,1.6022,1.6069,1.6008,1.6035,1.6103,1.6008,1.59,1.5845,1.5913,1.5974,1.6008,1.6008,1.6042,1.6076,1.6083,1.6083,1.6083,1.6083,1.6096,1.6137,1.6151,1.6157,1.6191,1.6205,1.6273,1.6368,1.6381,1.6422,1.6517,1.6517,1.6503,1.6469,1.6463,1.6361,1.6205,1.6171,1.613,1.6103,1.6096,1.611,1.6117,1.6198,1.6252,1.6273,1.6341,1.6395,1.6408,1.6374,1.6408,1.6408,1.6402,1.6422,1.6463,1.6469,1.6483,1.651,1.649,1.6429,1.6286,1.5909,1.5707,1.5784,1.5703,1.5615,1.5588,1.5574,1.5547,1.5506,1.5198,1.4815,1.356,1.2331,1.0906,0.8203,0.6589,0.4968,0.3997,0.3316,0.3552,0.3786,0.4017,0.4458,0.5326,0.5755,0.5859,0.6193,0.6528,0.6655,0.6799,0.6845,0.688,0.6902,0.691,0.6927,0.6927,0.6932,0.6918,0.6894,0.6864,0.6837,1.3836,1.3947,1.4582,1.5038,1.5344,1.5723,1.5964,1.6266,1.6266,1.6266,1.6266,1.6266,1.6266,1.6266,1.6266,1.6313,1.6374,1.6307,1.632,1.6354,1.6239,1.6096,1.6008,1.6049,1.6083,1.6083,1.6083,1.6076,1.6083,1.6083,1.6083,1.6083,1.6083,1.6083,1.609,1.6083,1.6117,1.6171,1.6178,1.6252,1.6388,1.6402,1.6435,1.651,1.6524,1.6537,1.6605,1.668,1.6578,1.6347,1.6273,1.6266,1.6266,1.6266,1.6266,1.6266,1.6354,1.6402,1.6415,1.6483,1.6517,1.6517,1.6517,1.6517,1.651,1.6524,1.653,1.6612,1.6612,1.6653,1.6693,1.6659,1.6524,1.6233,1.5338,1.5116,1.5862,1.5886,1.5798,1.5757,1.5723,1.5696,1.5559,1.4861,1.3782,1.2418,1.049,0.8747,0.6704,0.5767,0.4808,0.383,0.3249,0.3482,0.3927,0.4163,0.4707,0.5584,0.6238,0.6344,0.6571,0.6809,0.6837,0.6864,0.6913,0.6951,0.6967,0.6976,0.6973,0.6978,0.6997,0.6992,0.6962,0.6946,0.6921,1.4785,1.4797,1.5558,1.5629,1.5513,1.5943,1.5635,1.5738,1.543,1.5635,1.5949,1.6154,1.584,1.6257,1.6264,1.6469,1.6161,1.6333,1.649,1.6435,1.6313,1.6171,1.6069,1.6069,1.6083,1.6083,1.6083,1.6083,1.6083,1.6083,1.6083,1.6083,1.6083,1.6083,1.609,1.6103,1.6185,1.6279,1.632,1.6402,1.6517,1.6551,1.6578,1.6625,1.6666,1.6741,1.6849,1.6944,1.6904,1.6639,1.6592,1.6571,1.6571,1.6564,1.6544,1.6544,1.6564,1.6585,1.6558,1.6578,1.6592,1.6605,1.6598,1.6571,1.6605,1.6625,1.6666,1.6768,1.6775,1.6829,1.689,1.6829,1.6337,1.5717,1.4196,1.4202,1.4931,1.5592,1.5823,1.5906,1.5781,1.5511,1.4847,1.3624,1.1968,1.0277,0.872,0.7249,0.5685,0.462,0.4047,0.3564,0.3283,0.3412,0.3858,0.4417,0.4965,0.5627,0.6392,0.6722,0.673,0.6861,0.6894,0.6929,0.6976,0.7,0.7014,0.7017,0.7025,0.7038,0.7066,0.7041,0.7011,0.7011,0.6992,1.5291,1.5417,1.6181,1.5453,1.4106,1.4087,1.3184,1.1706,1.1601,1.2744,1.3912,1.4232,1.4226,1.4336,1.5689,1.6034,1.4516,1.5478,1.6585,1.6341,1.6198,1.613,1.6083,1.6083,1.6083,1.6083,1.6083,1.6083,1.6083,1.6083,1.6083,1.6083,1.6083,1.6083,1.609,1.6191,1.6273,1.6327,1.6415,1.6551,1.6673,1.6707,1.6754,1.6856,1.6971,1.7114,1.7243,1.7311,1.729,1.7188,1.7026,1.691,1.6883,1.6876,1.6836,1.6781,1.6829,1.6829,1.6754,1.6815,1.6883,1.6863,1.6849,1.6883,1.6876,1.6863,1.6883,1.6931,1.6931,1.6937,1.6636,1.6738,1.5679,1.4323,1.3264,1.2333,1.1782,1.2616,1.4054,1.503,1.4415,1.3509,1.3376,1.157,0.9782,0.82,0.6812,0.5623,0.4641,0.3651,0.3472,0.3288,0.3314,0.3443,0.4093,0.4653,0.5417,0.5869,0.6535,0.6902,0.691,0.6916,0.6951,0.6989,0.7033,0.7052,0.7068,0.7101,0.7115,0.7125,0.7123,0.7101,0.7082,0.7076,0.7066,1.4404,1.4278,1.3847,1.2907,1.2016,1.1964,1.1359,1.0301,1.0196,1.083,1.1781,1.1993,1.1993,1.2098,1.3158,1.2942,1.2495,1.3032,1.3509,1.3548,1.403,1.4674,1.505,1.5611,1.6083,1.6083,1.6083,1.6083,1.6083,1.6083,1.6083,1.6083,1.6083,1.6083,1.6103,1.6239,1.6341,1.6429,1.6558,1.6707,1.6829,1.6863,1.6931,1.7073,1.7222,1.7372,1.75,1.7595,1.7623,1.7589,1.7473,1.7317,1.7209,1.7188,1.7141,1.7107,1.7127,1.7154,1.7114,1.7066,1.7073,1.7073,1.7026,1.6985,1.6978,1.6978,1.6978,1.6978,1.6866,1.6656,1.5592,1.5333,1.4104,1.2241,1.0803,0.9988,0.9905,1.0721,1.1759,1.2663,1.1953,1.1554,1.0758,0.9356,0.8349,0.6926,0.5429,0.4236,0.4265,0.337,0.3398,0.3318,0.3344,0.3578,0.4229,0.4995,0.5869,0.6321,0.6668,0.6948,0.6997,0.7003,0.7011,0.7049,0.7085,0.7115,0.7134,0.7169,0.7175,0.7161,0.715,0.715,0.7145,0.7128,0.712,1.2593,1.2487,1.0847,1.0001,0.9745,0.9659,0.9349,0.9031,0.9137,0.9031,0.9666,0.9666,0.9662,0.9772,1.0301,1.0297,1.0252,1.0282,1.079,1.0897,1.2014,1.2478,1.286,1.3813,1.457,1.5174,1.5778,1.6083,1.6083,1.6083,1.6083,1.6083,1.6083,1.611,1.6144,1.6266,1.6422,1.6558,1.6707,1.6829,1.6937,1.6965,1.7046,1.7229,1.7331,1.75,1.7656,1.7772,1.784,1.786,1.786,1.7724,1.7568,1.7487,1.7467,1.7453,1.7433,1.7392,1.7338,1.7277,1.7222,1.7202,1.7093,1.6683,1.6459,1.6124,1.5809,1.5599,1.5283,1.475,1.3364,1.3037,1.1835,0.9888,0.7875,0.76,0.8222,0.8734,0.8787,0.9961,0.9757,0.9256,0.8453,0.7349,0.6548,0.5645,0.4143,0.3245,0.3268,0.3294,0.3321,0.3343,0.3367,0.391,0.4458,0.4914,0.59,0.6574,0.6924,0.6992,0.7063,0.7079,0.7085,0.7101,0.7131,0.7155,0.7164,0.7172,0.7175,0.7175,0.7172,0.7164,0.7166,0.7175,0.7166,1.0405,1.0436,1.0195,0.9128,0.7471,0.7417,0.6382,0.4687,0.4898,0.564,0.7228,0.7332,0.7335,0.7759,0.9455,1.0049,0.9449,0.9261,0.9384,0.94,1.0033,1.0297,1.0493,1.1182,1.1263,1.1764,1.3672,1.5479,1.5678,1.6083,1.5379,1.5877,1.5691,1.5738,1.5756,1.6314,1.5827,1.5744,1.5989,1.6197,1.6223,1.6354,1.6452,1.6554,1.6518,1.6883,1.7305,1.7722,1.786,1.786,1.786,1.7716,1.7325,1.7312,1.7375,1.7636,1.7609,1.7568,1.748,1.7305,1.7203,1.7222,1.673,1.5792,1.4669,1.4107,1.358,1.2309,1.1887,1.1359,1.083,1.072,0.9659,0.7939,0.6852,0.6081,0.5213,0.5158,0.6208,0.8197,0.7673,0.695,0.6248,0.5652,0.5057,0.4566,0.387,0.327,0.329,0.332,0.3351,0.337,0.3388,0.4036,0.4792,0.5148,0.5717,0.6621,0.6981,0.7038,0.7098,0.7136,0.7155,0.715,0.7153,0.7166,0.7172,0.7175,0.7175,0.7175,0.7175,0.7175,0.7175,0.7175,0.7175,0.8127,0.8072,0.7046,0.5959,0.5153,0.509,0.4473,0.3517,0.3411,0.3944,0.4792,0.5003,0.5003,0.5322,0.6066,0.6655,0.6673,0.6502,0.6443,0.6491,0.7364,0.7955,0.8256,0.8959,0.9661,1.0262,1.1864,1.2868,1.2768,1.2663,1.2973,1.2784,1.2822,1.2791,1.2872,1.2811,1.3221,1.3423,1.3515,1.358,1.358,1.3586,1.3689,1.3803,1.3912,1.3917,1.4162,1.4165,1.4181,1.407,1.4181,1.4181,1.4292,1.4503,1.5377,1.7099,1.7532,1.7621,1.7309,1.6705,1.5608,1.5374,1.4553,1.3168,1.2238,1.1676,1.1147,1.0513,1.009,0.9666,0.8604,0.8498,0.7335,0.5636,0.5086,0.454,0.3785,0.3443,0.4751,0.6534,0.5581,0.4855,0.4645,0.4048,0.3555,0.3265,0.3283,0.3299,0.3314,0.3343,0.3375,0.3495,0.3617,0.427,0.5035,0.5392,0.5864,0.6556,0.7033,0.709,0.7125,0.7158,0.7169,0.7169,0.7175,0.7175,0.7175,0.7175,0.7175,0.7175,0.7175,0.7175,0.7175,0.7175,0.7175,0.577,0.5711,0.4019,0.3329,0.336,0.339,0.3405,0.3411,0.3411,0.3411,0.3411,0.3411,0.3517,0.341,0.3503,0.3579,0.3313,0.3489,0.3668,0.3944,0.5043,0.5745,0.6346,0.7251,0.7955,0.7653,0.8152,0.8854,1.0158,1.0258,0.987,1.0209,0.9872,0.9722,1.0086,1.0609,1.0049,1.0106,1.0151,1.0192,1.0196,1.02,1.0236,1.0421,1.0499,1.0795,1.1221,1.1277,1.1201,1.121,1.1108,1.0899,1.0809,1.0706,1.2492,1.5628,1.6409,1.6409,1.582,1.4762,1.3424,1.3166,1.1474,1.0413,0.9265,0.8925,0.8607,0.8819,0.8607,0.7865,0.6382,0.6169,0.5322,0.4261,0.3623,0.3403,0.3489,0.3365,0.3348,0.3934,0.3275,0.3364,0.3674,0.3676,0.3283,0.3294,0.3311,0.3328,0.3344,0.3363,0.3389,0.3617,0.3845,0.4505,0.5174,0.5643,0.6122,0.6827,0.7082,0.7128,0.715,0.7172,0.7175,0.7175,0.7175,0.7175,0.7175,0.7175,0.7175,0.7175,0.7175,0.7175,0.7175,0.7175,0.7175,0.3534,0.3541,0.3371,0.3299,0.333,0.336,0.3389,0.3411,0.3411,0.3411,0.3411,0.3411,0.3411,0.3403,0.3378,0.3336,0.3296,0.3273,0.3257,0.3333,0.3734,0.3934,0.3734,0.3734,0.474,0.494,0.4539,0.6346,0.8159,0.9063,0.9303,0.9155,0.8993,0.9558,0.895,0.8901,1.0098,0.9952,0.9976,0.9878,0.9772,0.9772,0.9815,0.9973,0.9913,0.9848,0.9704,0.9637,0.9863,1.0074,1.0284,1.0534,1.0706,1.0722,1.0772,1.1372,1.151,1.1621,1.1839,1.1488,1.1065,1.0933,1.0119,0.9172,0.7598,0.5754,0.5011,0.4157,0.4474,0.4685,0.4368,0.4048,0.3624,0.3624,0.3411,0.3411,0.34,0.3386,0.3371,0.3362,0.3326,0.3317,0.3419,0.3419,0.3317,0.3326,0.3339,0.3356,0.3371,0.3388,0.3405,0.3527,0.3865,0.4526,0.5213,0.5685,0.6379,0.6985,0.7125,0.7158,0.7166,0.7175,0.7175,0.7175,0.7175,0.7175,0.7175,0.7175,0.7175,0.7175,0.7175,0.7175,0.7175,0.7175,0.7175,0.323,0.3232,0.3262,0.3294,0.3324,0.3354,0.3384,0.3407,0.3411,0.3411,0.3411,0.3411,0.3403,0.338,0.3339,0.3302,0.3275,0.326,0.3245,0.3234,0.323,0.323,0.323,0.323,0.323,0.323,0.333,0.3934,0.5851,0.6182,0.6111,0.6236,0.6193,0.5935,0.6725,0.6331,0.6251,0.6165,0.6278,0.6278,0.6384,0.6384,0.6501,0.6524,0.6663,0.6692,0.6824,0.654,0.6551,0.6551,0.6551,0.6561,0.6584,0.6589,0.6602,0.6617,0.6625,0.7978,1.0154,0.9278,0.8859,0.8123,0.7437,0.5894,0.4851,0.4185,0.3427,0.3412,0.3412,0.3411,0.3411,0.3411,0.3411,0.3411,0.3411,0.3411,0.341,0.3404,0.3393,0.3386,0.338,0.3367,0.3356,0.3351,0.3348,0.3354,0.3366,0.3384,0.3393,0.3401,0.3419,0.3438,0.3885,0.4441,0.5139,0.5731,0.6419,0.6906,0.7145,0.7166,0.7169,0.7175,0.7175,0.7175,0.7175,0.7175,0.7175,0.7175,0.7175,0.7175,0.7175,0.7175,0.7175,0.7175,0.7175,0.323,0.3232,0.3255,0.3281,0.3313,0.3343,0.3371,0.3399,0.3408,0.3407,0.3399,0.339,0.337,0.3341,0.33,0.3275,0.3262,0.324,0.3232,0.323,0.323,0.323,0.323,0.323,0.323,0.3231,0.323,0.3538,0.3454,0.3575,0.38,0.329,0.4062,0.3785,0.3592,0.382,0.4047,0.4048,0.3944,0.3837,0.373,0.373,0.3624,0.3633,0.3431,0.3445,0.3449,0.3679,0.3692,0.3801,0.3906,0.4125,0.4141,0.4253,0.4263,0.4271,0.4278,0.5281,0.6971,0.7096,0.6402,0.5707,0.5031,0.4037,0.379,0.3457,0.3445,0.3415,0.3412,0.3411,0.3411,0.3411,0.3411,0.3411,0.3411,0.3411,0.3411,0.3407,0.3404,0.34,0.3397,0.3403,0.3392,0.3384,0.3381,0.3382,0.3393,0.3408,0.3522,0.3523,0.3756,0.3886,0.4245,0.4807,0.5388,0.5986,0.6572,0.693,0.7169,0.7175,0.7175,0.7175,0.7175,0.7175,0.7175,0.7175,0.7175,0.7175,0.7175,0.7175,0.7175,0.7175,0.7175,0.7175,0.7175,0.323,0.3231,0.3234,0.3253,0.3283,0.3311,0.3341,0.3375,0.3399,0.3392,0.3367,0.3341,0.3315,0.3288,0.3279,0.3258,0.3235,0.3231,0.323,0.323,0.323,0.323,0.323,0.323,0.3231,0.3231,0.3236,0.325,0.3273,0.3302,0.3314,0.3324,0.3358,0.3382,0.3397,0.3407,0.3411,0.3411,0.3411,0.3411,0.3411,0.3411,0.3411,0.3411,0.3414,0.3415,0.3415,0.3425,0.343,0.343,0.3431,0.344,0.3456,0.346,0.3469,0.3482,0.3487,0.4147,0.4707,0.483,0.4152,0.3799,0.3685,0.348,0.3475,0.3461,0.3444,0.342,0.3416,0.3411,0.3411,0.3411,0.3411,0.3411,0.3411,0.3411,0.3411,0.3411,0.341,0.3411,0.3411,0.3411,0.3411,0.34,0.3396,0.3396,0.3717,0.3732,0.3961,0.4076,0.4203,0.4448,0.4828,0.5407,0.5974,0.6342,0.6595,0.694,0.7172,0.7175,0.7175,0.7175,0.7175,0.7175,0.7175,0.7175,0.7175,0.7175,0.7175,0.7175,0.7175,0.7175,0.7175,0.7175,0.7175,0.323,0.323,0.323,0.3247,0.3276,0.3288,0.3321,0.3359,0.3359,0.3351,0.3339,0.3307,0.3287,0.3275,0.3254,0.3243,0.3231,0.323,0.3232,0.323,0.323,0.323,0.323,0.3234,0.3231,0.3235,0.3247,0.3261,0.3277,0.3322,0.3344,0.3358,0.3378,0.3395,0.341,0.3411,0.3411,0.3411,0.3411,0.3411,0.3411,0.3411,0.3411,0.3411,0.3411,0.3411,0.3412,0.3412,0.3411,0.3411,0.3411,0.342,0.3429,0.3431,0.3438,0.3449,0.3452,0.3452,0.346,0.348,0.3502,0.351,0.3498,0.3489,0.3495,0.3494,0.3471,0.3448,0.3422,0.3416,0.3411,0.3411,0.3411,0.3411,0.3411,0.3411,0.3411,0.3411,0.3411,0.3411,0.3411,0.3411,0.3411,0.341,0.341,0.341,0.3732,0.4058,0.429,0.4641,0.4775,0.5022,0.5405,0.5662,0.6236,0.6483,0.6503,0.6839,0.7175,0.7175,0.7175,0.7175,0.7175,0.7175,0.7175,0.7175,0.7175,0.7175,0.7175,0.7175,0.7175,0.7175,0.7175,0.7175,0.7175,0.3236,0.3243,0.3243,0.325,0.3262,0.3272,0.3299,0.3333,0.3339,0.3335,0.3332,0.3305,0.329,0.3281,0.327,0.3261,0.3262,0.3262,0.326,0.3262,0.3262,0.3257,0.3257,0.3257,0.3261,0.3254,0.3272,0.3291,0.3295,0.3343,0.3366,0.3384,0.3399,0.3408,0.3411,0.3411,0.3411,0.3411,0.3411,0.3411,0.3411,0.3411,0.3411,0.3411,0.3411,0.3411,0.3411,0.3411,0.3411,0.3411,0.3411,0.3411,0.3412,0.3411,0.3411,0.3411,0.3411,0.3411,0.3425,0.3446,0.3489,0.3495,0.3494,0.3501,0.3517,0.3513,0.3486,0.3459,0.3435,0.3422,0.3416,0.3411,0.3411,0.3411,0.3411,0.3411,0.3411,0.3411,0.3411,0.3411,0.3411,0.3412,0.3526,0.3634,0.3849,0.3958,0.4287,0.4616,0.4849,0.5209,0.5475,0.5727,0.5877,0.6243,0.6495,0.6724,0.6839,0.6951,0.7175,0.7175,0.7175,0.7175,0.7175,0.7175,0.7175,0.7175,0.7175,0.7175,0.7175,0.7175,0.7175,0.7175,0.7175,0.7175,0.7175,0.325,0.3273,0.3275,0.326,0.3246,0.3264,0.3281,0.3303,0.3341,0.3359,0.3352,0.3328,0.3315,0.3314,0.3306,0.3303,0.3305,0.3307,0.3309,0.3305,0.3302,0.3311,0.3311,0.3305,0.3295,0.3287,0.3305,0.3321,0.3325,0.3358,0.3385,0.3399,0.3408,0.3411,0.3411,0.3411,0.3411,0.3411,0.3411,0.3411,0.3411,0.3411,0.3411,0.3411,0.3411,0.3411,0.3411,0.3411,0.3411,0.3411,0.3411,0.3411,0.3411,0.3411,0.3411,0.3411,0.3411,0.3411,0.3414,0.3415,0.3438,0.3467,0.3471,0.348,0.3498,0.3498,0.3489,0.3459,0.3446,0.3434,0.3423,0.3411,0.3411,0.3411,0.3411,0.3411,0.3411,0.3411,0.3411,0.3411,0.3411,0.3414,0.3744,0.3966,0.429,0.4617,0.4951,0.5185,0.5424,0.5785,0.6172,0.6318,0.6463,0.659,0.6836,0.706,0.7175,0.7175,0.7175,0.7175,0.7175,0.7175,0.7175,0.7175,0.7175,0.7175,0.7175,0.7175,0.7175,0.7175,0.7175,0.7175,0.7175,0.7175,0.7175,0.3296,0.3306,0.3306,0.33,0.3292,0.33,0.3317,0.3337,0.3355,0.3355,0.3337,0.3324,0.3321,0.3321,0.3324,0.3325,0.3324,0.3321,0.3321,0.3322,0.3325,0.3321,0.3322,0.3329,0.3328,0.3336,0.335,0.3363,0.3384,0.3389,0.3397,0.3411,0.3411,0.3411,0.3411,0.3411,0.3411,0.3411,0.3411,0.3411,0.3411,0.3411,0.3411,0.3411,0.3411,0.3411,0.3411,0.3411,0.3411,0.3411,0.3411,0.3411,0.3411,0.3411,0.3411,0.3411,0.3411,0.3411,0.3411,0.3415,0.3427,0.3445,0.3456,0.3467,0.3497,0.348,0.3468,0.3456,0.3444,0.3429,0.3414,0.3411,0.3411,0.3411,0.3411,0.3411,0.3411,0.3411,0.3411,0.3411,0.3411,0.3744,0.4078,0.4523,0.4961,0.5295,0.5634,0.6001,0.6362,0.6494,0.6758,0.6906,0.6937,0.7057,0.7175,0.7175,0.7175,0.7175,0.7175,0.7175,0.7175,0.6727,0.6724,0.6388,0.6839,0.7175,0.6612,0.6277,0.6951,0.7175,0.65,0.6727,0.7175,0.7175,0.7175,0.3328,0.3336,0.3336,0.3343,0.3348,0.333,0.3339,0.3363,0.3367,0.3359,0.3355,0.3354,0.3355,0.3354,0.3352,0.3352,0.3352,0.3354,0.3354,0.3352,0.3354,0.3358,0.3356,0.335,0.3358,0.3371,0.338,0.339,0.3389,0.3404,0.3411,0.3411,0.3411,0.3411,0.3411,0.3411,0.3411,0.3411,0.3411,0.3411,0.3411,0.3411,0.3411,0.3411,0.3411,0.3411,0.3411,0.3411,0.3411,0.3411,0.3411,0.3411,0.3411,0.3411,0.3411,0.3411,0.3411,0.3411,0.3411,0.3411,0.3422,0.3435,0.3441,0.3456,0.3478,0.3469,0.3463,0.3452,0.3434,0.3423,0.3415,0.3414,0.3411,0.3411,0.3411,0.3411,0.3411,0.3411,0.3411,0.3411,0.352,0.3962,0.441,0.5083,0.5532,0.5982,0.6436,0.6701,0.6966,0.7098,0.7004,0.6927,0.6948,0.6951,0.7063,0.7175,0.7175,0.7175,0.6839,0.6277,0.5717,0.5155,0.5379,0.5379,0.4931,0.4705,0.5041,0.5155,0.5155,0.5043,0.4707,0.5379,0.6839,0.6951,0.6724,0.3341,0.3366,0.3367,0.3384,0.3397,0.3351,0.3345,0.3369,0.337,0.3385,0.3408,0.3404,0.34,0.3405,0.3407,0.3404,0.3401,0.3403,0.3401,0.3403,0.3395,0.34,0.3401,0.34,0.3393,0.3388,0.3392,0.3397,0.338,0.3399,0.3411,0.3411,0.3411,0.3411,0.3411,0.3411,0.3411,0.3411,0.3411,0.3411,0.3411,0.3411,0.3411,0.3411,0.3411,0.3411,0.3411,0.3411,0.3411,0.3411,0.3411,0.3411,0.3411,0.3411,0.3411,0.3411,0.3411,0.3411,0.3411,0.3411,0.3412,0.342,0.3416,0.3431,0.3444,0.345,0.3446,0.3446,0.3437,0.3427,0.3418,0.3415,0.3411,0.3411,0.3411,0.3411,0.3411,0.3411,0.3411,0.3411,0.3517,0.3955,0.4614,0.5288,0.5753,0.5991,0.633,0.6464,0.673,0.7115,0.6908,0.6374,0.65,0.6612,0.6612,0.5938,0.5717,0.5155,0.4819,0.4371,0.3811,0.3475,0.3585,0.3361,0.2464,0.2352,0.3248,0.3137,0.2464,0.2464,0.3025,0.3697,0.5043,0.5603,0.5715,0.3392,0.3399,0.3399,0.3404,0.3408,0.3392,0.3392,0.3399,0.3399,0.3405,0.3411,0.3411,0.3411,0.3411,0.3411,0.3411,0.3411,0.3411,0.3411,0.3411,0.3411,0.3411,0.3411,0.3412,0.3416,0.342,0.3419,0.3415,0.3422,0.3425,0.3411,0.3411,0.3411,0.3411,0.3411,0.3411,0.3411,0.3411,0.3411,0.3411,0.3411,0.3411,0.3411,0.3411,0.3411,0.3411,0.3411,0.3411,0.3411,0.3411,0.3411,0.3411,0.3411,0.3411,0.3411,0.3411,0.3411,0.3411,0.3411,0.3411,0.3411,0.3411,0.3411,0.3414,0.3423,0.3427,0.3429,0.343,0.3431,0.342,0.3415,0.3414,0.3411,0.3411,0.3411,0.3411,0.3411,0.3411,0.3411,0.3412,0.3519,0.4063,0.4828,0.5168,0.5523,0.5873,0.6001,0.6012,0.604,0.6193,0.6446,0.5907,0.5257,0.5139,0.403,0.3248,0.3248,0.3025,0.2801,0.2577,0.2353,0.2017,0.1793,0.1456,0.0784,0.1121,0.2016,0.1456,0.0672,0.1456,0.2128,0.2577,0.3025,0.3697,0.4033,0.4261,0.3411,0.3411,0.3411,0.3411,0.3411,0.3411,0.3411,0.3411,0.3411,0.3411,0.3411,0.3411,0.3411,0.3411,0.3411,0.3411,0.3411,0.3411,0.3411,0.3411,0.3411,0.3411,0.3412,0.3419,0.3427,0.3426,0.3418,0.3431,0.3426,0.3411,0.3411,0.3411,0.3411,0.3411,0.3411,0.3411,0.3411,0.3411,0.3411,0.3411,0.3411,0.3411,0.3411,0.3411,0.3411,0.3411,0.3411,0.3411,0.3411,0.3411,0.3411,0.3411,0.3411,0.3411,0.3411,0.3411,0.3411,0.3411,0.3411,0.3411,0.3411,0.3411,0.3412,0.3412,0.3416,0.3415,0.3415,0.3414,0.3412,0.3411,0.3411,0.3411,0.3411,0.3411,0.3411,0.3411,0.3411,0.3412,0.352,0.3846,0.4284,0.4727,0.4953,0.5065,0.4849,0.4316,0.3786,0.3915,0.4055,0.4733,0.4858,0.3995,0.3228,0.2119,0.1341,0.1678,0.1678,0.1121,0.0897,0.0672,0.0,-0.0672,-0.0784,-0.0672,-0.0336,-0.0224,-0.0448,-0.0897,-0.0112,0.0112,-0.0112,0.0448,0.1681,0.2017,0.5428,0.3411,0.3411,0.3411,0.3411,0.3411,0.3411,0.3411,0.3411,0.3411,0.3411,0.3411,0.3411,0.3411,0.3411,0.3411,0.3411,0.3411,0.3411,0.3411,0.3411,0.3411,0.3411,0.3412,0.3416,0.3414,0.3412,0.3415,0.3412,0.3411,0.3411,0.3411,0.3411,0.3411,0.3411,0.3411,0.3411,0.3411,0.3411,0.3411,0.3411,0.3411,0.3411,0.3411,0.3411,0.3411,0.3411,0.3411,0.3411,0.3411,0.3411,0.3411,0.3411,0.3411,0.3411,0.3411,0.3411,0.3411,0.3411,0.3411,0.3411,0.3411,0.3411,0.3411,0.3411,0.3411,0.3411,0.3411,0.3411,0.3411,0.3411,0.3411,0.3411,0.3411,0.3411,0.3411,0.3411,0.3411,0.3412,0.32,0.2777,0.3211,0.2993,0.3106,0.225,0.2778,0.2778,0.1822,0.1722,0.1953,0.24,0.3173,0.2421,0.1327,0.0553,0.0,0.0557,0.0447,-0.0335,-0.0897,-0.1121,-0.213,-0.3365,-0.2803,-0.2018,-0.2691,-0.2803,-0.2579,-0.2355,-0.2467,-0.2467,-0.314,-0.2355,-0.056,-0.0224,0.5428,0.3411,0.3411,0.3411,0.3411,0.3411,0.3411,0.3411,0.3411,0.3411,0.3411,0.3411,0.3411,0.3411,0.3411,0.3411,0.3411,0.3411,0.3411,0.3411,0.3411,0.3411,0.3411,0.3411,0.3411,0.3411,0.3411,0.3411,0.3411,0.3411,0.3411,0.3411,0.3411,0.3411,0.3411,0.3411,0.3411,0.3411,0.3411,0.3411,0.3411,0.3411,0.3411,0.3411,0.3411,0.3411,0.3411,0.3411,0.3411,0.3411,0.3411,0.3411,0.3411,0.3411,0.3411,0.3411,0.3411,0.3411,0.3411,0.3411,0.3411,0.3411,0.3411,0.3411,0.3411,0.3411,0.3411,0.3411,0.3411,0.3411,0.3411,0.3411,0.3411,0.3411,0.3411,0.3411,0.3411,0.3411,0.3411,0.256,0.1816,0.1601,0.1385,0.0746,-0.0106,-0.0213,0.0,-0.032,-0.0427,-0.0429,-0.0325,0.0217,0.0328,-0.0548,-0.1207,-0.1431,-0.1107,-0.1331,-0.2109,-0.2564,-0.2799,-0.314,-0.3589,-0.3589,-0.3477,-0.3589,-0.3589,-0.3477,-0.3365,-0.3589,-0.3589,-0.3589,-0.3589,-0.2243,-0.2355,0.6382,0.3517,0.3411,0.3411,0.3411,0.3411,0.3411,0.3411,0.3411,0.3411,0.3411,0.3411,0.3411,0.3411,0.3411,0.3411,0.3411,0.3411,0.3411,0.3411,0.3411,0.3411,0.3411,0.3411,0.3411,0.3411,0.3411,0.3411,0.3411,0.3411,0.3411,0.3411,0.3411,0.3411,0.3411,0.3411,0.3411,0.3411,0.3411,0.3411,0.3411,0.3411,0.3411,0.3411,0.3411,0.3411,0.3411,0.3411,0.3411,0.3411,0.3411,0.3411,0.3411,0.3411,0.3411,0.3411,0.3411,0.3411,0.3411,0.3411,0.3411,0.3411,0.3411,0.3411,0.3411,0.3411,0.3411,0.3411,0.3411,0.3411,0.3411,0.3411,0.3411,0.3411,0.3411,0.3411,0.3411,0.3411,0.2557,0.1278,0.0639,0.032,0.0,-0.0958,-0.1703,-0.1703,-0.1703,-0.1917,-0.213,-0.2023,-0.2146,-0.2265,-0.1735,-0.1957,-0.2503,-0.2841,-0.2856,-0.3301,-0.3525,-0.3322,-0.3226,-0.3355,-0.3589,-0.3589,-0.3589,-0.3589,-0.3589,-0.3589,-0.3589,-0.3589,-0.3589,-0.3589,-0.3589,-0.3589,-0.3365,0.7971,0.4048,0.3835,0.3624,0.3411,0.3411,0.3411,0.3411,0.3411,0.3411,0.3411,0.3411,0.3411,0.3411,0.3411,0.3411,0.3411,0.3411,0.3411,0.3411,0.3411,0.3411,0.3411,0.3411,0.3411,0.3411,0.3411,0.3411,0.3411,0.3411,0.3411,0.3411,0.3411,0.3411,0.3411,0.3411,0.3411,0.3411,0.3411,0.3411,0.3411,0.3411,0.3411,0.3411,0.3411,0.3411,0.3411,0.3411,0.3411,0.3411,0.3411,0.3411,0.3411,0.3411,0.3411,0.3411,0.3411,0.3411,0.3411,0.3411,0.3411,0.3411,0.3304,0.3304,0.3198,0.3198,0.3198,0.3198,0.3198,0.3304,0.3304,0.3304,0.3304,0.2985,0.2985,0.277,0.277,0.2557,0.1065,-0.0426,-0.0958,-0.1276,-0.1914,-0.2765,-0.3085,-0.3193,-0.3088,-0.3303,-0.3411,-0.2983,-0.2779,-0.2895,-0.2796,-0.3125,-0.3452,-0.3464,-0.348,-0.3493,-0.3498,-0.3517,-0.3536,-0.3558,-0.3577,-0.3589,-0.3589,-0.3588,-0.3589,-0.3589,-0.3589,-0.3589,-0.3589,-0.3589,-0.3589,-0.3589,-0.3589,1.0297,0.6169,0.6169,0.5109,0.3517,0.3411,0.3411,0.3411,0.3411,0.3411,0.3411,0.3411,0.3411,0.3411,0.3411,0.3411,0.3411,0.3411,0.3411,0.3411,0.3411,0.3411,0.3411,0.3411,0.3411,0.3411,0.3411,0.3411,0.3411,0.3411,0.3411,0.3411,0.3411,0.3411,0.3411,0.3411,0.3411,0.3411,0.3411,0.3411,0.3411,0.3411,0.3411,0.3411,0.3411,0.3411,0.3411,0.3411,0.3411,0.3411,0.3411,0.3411,0.3198,0.3091,0.2985,0.2664,0.2664,0.2451,0.2237,0.2237,0.213,0.2344,0.2238,0.2451,0.2451,0.2557,0.2557,0.2557,0.2664,0.2985,0.2985,0.2985,0.2878,0.2131,0.1811,0.0958,0.0532,-0.0532,-0.2021,-0.3189,-0.4039,-0.4145,-0.4253,-0.4999,-0.5319,-0.4896,-0.3623,-0.3837,-0.405,-0.373,-0.3411,-0.3415,-0.342,-0.3418,-0.342,-0.3427,-0.3441,-0.3454,-0.3472,-0.3493,-0.3516,-0.354,-0.3558,-0.3573,-0.3584,-0.3587,-0.3587,-0.3589,-0.3589,-0.3589,-0.3589,-0.3589,-0.3589,-0.3702,-0.3702]},{"header":{"parameterUnit":"m.s-1","parameterCategory":1,"la1":31.0,"la2":29.5877,"lo1":-88.7671,"lo2":-86.6584,"dy":0.0162,"dx":0.0185,"nx":115,"ny":88,"refTime":"2023-10-07T12:00:00:Z","depth":0,"parameterNumber":3,"parameterNumberName":"V-component_of_WINDS"},"data":[0.0,0.0,0.0,0.0,0.0,0.0,0.0,0.0,0.0,0.0,0.0,0.0,0.0,0.0,0.0,0.0,0.0,0.0,0.0,0.0,0.0,0.0,0.0,0.0,0.0,0.0,0.0,0.0,0.0,0.0,0.0,0.0,0.0,0.0,0.0,0.0,0.0,0.0,0.0,0.0,0.0,0.0,0.0,0.0,0.0,0.0,0.0,0.0,0.0,0.0,0.0,0.0,0.0,0.0,0.0,0.0,0.0,0.0,0.0,0.0,0.0,0.0,0.0,0.0,0.0,0.0,0.0,0.0,0.0,0.0,0.0,0.0,0.0,0.0,0.0,0.0,0.0,0.0,0.0,0.0,0.0,0.0,0.0,0.0,0.0,0.0,0.0,0.0,0.0,0.0,0.0,0.0,0.0,0.0,0.0,0.0,0.0,0.0,0.0,0.0,0.0,0.0,0.0,0.0,0.0,0.0,0.0,0.0,0.0,0.0,0.0,0.0,0.0,0.0,0.0,0.0,0.0,0.0,0.0,0.0,0.0,0.0,0.0,0.0,0.0,0.0,0.0,0.0,0.0,0.0,0.0,0.0,0.0,0.0,0.0,0.0,0.0,0.0,0.0,0.0,0.0,0.0,0.0,0.0,0.0,0.0,0.0,0.0,0.0,0.0,0.0,0.0,0.0,0.0,0.0,0.0,0.0,0.0,0.0,0.0,0.0,0.0,0.0,0.0,0.0,0.0,0.0,0.0,0.0,0.0,0.0,0.0,0.0,0.0,0.0,0.0,0.0,0.0,0.0,0.0,0.0,0.0,0.0,0.0,0.0,0.0,0.0,0.0,0.0,0.0,0.0,0.0,0.0,0.0,0.0,0.0,0.0,0.0,0.0,0.0,0.0,0.0,0.0,0.0,0.0,0.0,0.0,0.0,0.0,0.0,0.0,0.0,0.0,0.0,0.0,0.0,0.0,0.0,0.0,0.0,0.0,0.0,0.0,0.0,0.0,0.0,0.0,0.0,0.0,0.0,0.0,0.0,0.0,0.0,0.0,0.0,0.0,0.0,0.0,0.0,0.0,0.0,0.0,0.0,0.0,0.0,0.0,0.0,0.0,0.0,0.0,0.0,0.0,0.0,0.0,0.0,0.0,0.0,0.0,0.0,0.0,0.0,0.0,0.0,0.0,0.0,0.0,0.0,0.0,0.0,0.0,0.0,0.0,0.0,0.0,0.0,0.0,0.0,0.0,0.0,0.0,0.0,0.0,0.0,0.0,0.0,0.0,0.0,0.0,0.0,0.0,0.0,0.0,0.0,0.0,0.0,0.0,0.0,0.0,0.0,0.0,0.0,0.0,0.0,0.0,0.0,0.0,0.0,0.0,0.0,0.0,0.0,0.0,0.0,0.0,0.0,0.0,0.0,0.0,0.0,0.0,0.0,0.0,0.0,0.0,0.0,0.0,0.0,0.0,0.0,0.0,0.0,0.0,0.0,0.0,0.0,0.0,0.0,0.0,0.0,0.0,0.0,0.0,0.0,0.0,0.0,0.0,0.0,0.0,0.0,0.0,0.0,0.0,0.0,0.0,0.0,0.0,0.0,0.0,0.0,0.0,0.0,0.0,0.0,0.0,0.0,0.0,0.0,0.0,0.0,0.0,0.0,0.0,0.0,0.0,0.0,0.0,0.0,0.0,0.0,0.0,0.0,0.0,0.0,0.0,0.0,0.0,0.0,0.0,0.0,0.0,0.0,0.0,0.0,0.0,0.0,0.0,0.0,0.0,0.0,0.0,0.0,0.0,0.0,0.0,0.0,0.0,0.0,0.0,0.0,0.0,0.0,0.0,0.0,0.0,0.0,0.0,0.0,0.0,0.0,0.0,0.0,0.0,0.0,0.0,0.0,0.0,0.0,0.0,0.0,0.0,0.0,0.0,0.0,0.0,0.0,0.0,0.0,0.0,0.0,0.0,0.0,0.0,0.0,0.0,0.0,0.0,0.0,0.0,0.0,0.0,0.0,0.0,0.0,0.0,0.0,0.0,0.0,0.0,0.0,0.0,0.0,0.0,0.0,0.0,0.0,0.0,0.0,0.0,0.0,0.0,0.0,0.0,0.0,0.0,0.0,0.0,0.0,0.0,0.0,0.0,0.0,0.0,0.0,0.0,0.0,0.0,0.0,0.0,0.0,0.0,0.0,0.0,0.0,0.0,0.0,0.0,0.0,0.0,0.0,0.0,0.0,0.0,0.0,0.0,0.0,0.0,0.0,0.0,0.0,0.0,0.0,0.0,0.0,0.0,0.0,0.0,0.0,0.0,0.0,0.0,0.0,0.0,0.0,0.0,0.0,0.0,0.0,0.0,0.0,0.0,0.0,0.0,0.0,0.0,0.0,0.0,0.0,0.0,0.0,0.0,0.0,0.0,0.0,0.0,0.0,0.0,0.0,0.0,0.0,0.0,0.0,0.0,0.0,0.0,0.0,0.0,0.0,0.0,0.0,0.0,0.0,0.0,0.0,0.0,0.0,0.0,0.0,0.0,0.0,0.0,0.0,0.0,0.0,0.0,0.0,0.0,0.0,0.0,0.0,0.0,0.0,0.0,0.0,0.0,0.0,0.0,0.0,0.0,0.0,0.0,0.0,0.0,0.0,0.0,0.0,0.0,0.0,0.0,0.0,0.0,0.0,0.0,0.0,0.0,0.0,0.0,0.0,0.0,0.0,0.0,0.0,0.0,0.0,0.0,0.0,0.0,0.0,0.0,0.0,0.0,0.0,0.0,0.0,0.0,0.0,0.0,0.0,0.0,0.0,0.0,0.0,0.0,0.0,0.0,0.0,0.0,0.0,0.0,0.0,0.0,0.0,0.0,0.0,0.0,0.0,0.0,0.0,0.0,0.0,0.0,0.0,0.0,0.0,0.0,0.0,0.0,0.0,0.0,0.0,0.0,0.0,0.0,0.0,0.0,0.0,0.0,0.0,0.0,0.0,0.0,0.0,0.0,0.0,0.0,0.0,0.0,0.0,0.0,0.0,0.0,0.0,0.0,0.0,0.0,0.0,0.0,0.0,0.0,0.0,0.0,0.0,0.0,0.0,0.0,0.0,0.0,0.0,0.0,0.0,0.0,0.0,0.0,0.0,0.0,0.0,0.0,0.0,0.0,0.0,0.0,0.0,0.0,0.0,0.0,0.0,0.0,0.0,0.0,0.0,0.0,0.0,0.0,0.0,0.0,0.0,0.0,0.0,0.0,0.0,0.0,0.0,0.0,0.0,0.0,0.0,0.0,0.0,0.0,0.0,0.0,0.0,0.0,0.0,0.0,0.0,0.0,0.0,0.0,0.0,0.0,0.0,0.0,0.0,0.0,0.0,0.0,0.0,0.0,0.0,0.0,0.0,0.0,0.0,0.0,0.0,0.0,0.0,0.0,0.0,0.0,0.0,0.0,0.0,0.0,0.0,0.0,0.0,0.0,0.0,0.0,0.0,0.0,0.0,0.0,0.0,0.0,0.0,0.0,0.0,0.0,0.0,0.0,0.0,0.0,0.0,0.0,0.0,0.0,0.0,0.0,0.0,0.0,0.0,0.0,0.0,0.0,0.0,0.0,0.0,0.0,0.0,0.0,0.0,0.0,0.0,0.0,0.0,0.0,0.0,0.0,0.0,0.0,0.0,0.0,0.0,0.0,0.0,0.0,0.0,0.0,0.0,0.0,0.0,0.0,0.0,0.0,0.0,0.0,0.0,0.0,0.0,0.0,0.0,0.0,0.0,0.0,0.0,0.0,0.0,0.0,0.0,0.0,0.0,0.0,0.0,0.0,0.0,0.0,0.0,0.0,0.0,0.0,0.0,0.0,0.0,0.0,0.0,0.0,0.0,0.0,0.0,0.0,0.0,0.0,0.0,0.0,0.0,0.0,0.0,0.0,0.0,0.0,0.0,0.0,0.0,0.0,0.0,0.0,0.0,0.0,0.0,0.0,0.0,0.0,0.0,0.0,0.0,0.0,0.0,0.0,0.0,0.0,0.0,0.0,0.0,0.0,0.0,0.0,0.0,0.0,0.0,0.0,0.0,0.0,0.0,0.0,0.0,0.0,0.0,0.0,0.0,0.0,0.0,0.0,0.0,0.0,0.0,0.0,0.0,0.0,0.0,0.0,0.0,0.0,0.0,0.0,0.0,0.0,0.0,0.0,0.0,0.0,0.0,0.0,0.0,0.0,0.0,0.0,0.0,0.0,0.0,0.0,0.0,0.0,0.0,0.0,0.0,0.0,0.0,0.0,0.0,0.0,0.0,0.0,0.0,5.1406,0.0,0.0,0.0,0.0,0.0,0.0,0.0,0.0,0.0,0.0,0.0,0.0,0.0,0.0,0.0,0.0,0.0,0.0,0.0,0.0,0.0,0.0,0.0,0.0,0.0,0.0,0.0,0.0,0.0,0.0,0.0,0.0,0.0,0.0,0.0,0.0,0.0,0.0,0.0,0.0,0.0,0.0,0.0,0.0,0.0,0.0,0.0,0.0,0.0,0.0,0.0,0.0,0.0,0.0,0.0,0.0,0.0,0.0,0.0,0.0,0.0,0.0,0.0,0.0,0.0,0.0,0.0,0.0,0.0,0.0,0.0,0.0,0.0,0.0,0.0,0.0,0.0,0.0,0.0,0.0,0.0,0.0,0.0,0.0,0.0,0.0,0.0,0.0,0.0,0.0,0.0,0.0,0.0,0.0,0.0,0.0,0.0,0.0,0.0,0.0,0.0,0.0,0.0,0.0,0.0,0.0,0.0,0.0,0.0,0.0,5.1406,5.1406,5.1406,5.1406,5.1406,0.0,0.0,0.0,0.0,0.0,0.0,0.0,0.0,0.0,0.0,0.0,0.0,0.0,0.0,0.0,0.0,0.0,0.0,0.0,0.0,0.0,0.0,0.0,0.0,0.0,0.0,0.0,0.0,0.0,0.0,0.0,0.0,0.0,0.0,0.0,0.0,0.0,0.0,0.0,0.0,0.0,0.0,0.0,0.0,0.0,0.0,0.0,0.0,0.0,0.0,0.0,0.0,0.0,0.0,0.0,0.0,0.0,0.0,0.0,0.0,0.0,0.0,0.0,0.0,0.0,0.0,0.0,0.0,0.0,0.0,0.0,0.0,0.0,0.0,0.0,0.0,0.0,0.0,0.0,0.0,0.0,0.0,0.0,0.0,0.0,0.0,0.0,0.0,0.0,0.0,0.0,0.0,0.0,0.0,0.0,0.0,0.0,0.0,0.0,0.0,0.0,0.0,0.0,0.0,0.0,0.0,0.0,0.0,0.0,0.0,0.0,0.0,5.1406,5.1406,5.1406,0.0,0.0,0.0,0.0,0.0,0.0,0.0,0.0,0.0,0.0,0.0,0.0,0.0,0.0,0.0,0.0,0.0,0.0,0.0,0.0,0.0,0.0,0.0,0.0,0.0,0.0,0.0,0.0,0.0,0.0,0.0,0.0,0.0,0.0,0.0,0.0,0.0,0.0,0.0,0.0,0.0,0.0,0.0,0.0,0.0,0.0,0.0,0.0,0.0,0.0,0.0,0.0,0.0,0.0,0.0,0.0,0.0,0.0,0.0,0.0,0.0,0.0,0.0,0.0,0.0,0.0,0.0,0.0,0.0,0.0,0.0,0.0,0.0,0.0,0.0,0.0,0.0,0.0,0.0,0.0,0.0,0.0,0.0,0.0,0.0,0.0,0.0,0.0,0.0,0.0,0.0,0.0,0.0,0.0,0.0,0.0,0.0,0.0,0.0,0.0,0.0,0.0,0.0,0.0,0.0,0.0,0.0,0.0,0.0,0.0,5.1406,5.1406,5.1406,0.0,5.1406,0.0,0.0,0.0,0.0,0.0,0.0,0.0,0.0,0.0,0.0,0.0,0.0,0.0,0.0,0.0,0.0,0.0,0.0,0.0,0.0,0.0,0.0,0.0,0.0,0.0,0.0,0.0,0.0,0.0,0.0,0.0,0.0,0.0,0.0,0.0,0.0,0.0,0.0,0.0,0.0,0.0,0.0,0.0,0.0,0.0,0.0,0.0,0.0,0.0,0.0,0.0,0.0,0.0,0.0,0.0,0.0,0.0,0.0,0.0,0.0,0.0,0.0,0.0,0.0,0.0,0.0,0.0,0.0,0.0,0.0,0.0,0.0,0.0,0.0,0.0,0.0,0.0,0.0,0.0,0.0,0.0,0.0,0.0,0.0,0.0,0.0,0.0,0.0,0.0,0.0,0.0,0.0,0.0,0.0,0.0,0.0,0.0,0.0,0.0,0.0,0.0,0.0,0.0,0.0,0.0,0.0,0.0,0.0,0.0,0.0,5.1406,5.1406,5.1405,5.1404,0.0,0.0,0.0,0.0,0.0,0.0,0.0,0.0,0.0,0.0,0.0,0.0,0.0,0.0,0.0,0.0,0.0,0.0,0.0,0.0,0.0,0.0,0.0,0.0,0.0,0.0,0.0,0.0,0.0,0.0,0.0,0.0,0.0,0.0,0.0,0.0,0.0,0.0,0.0,0.0,0.0,0.0,0.0,0.0,0.0,0.0,0.0,0.0,0.0,0.0,0.0,0.0,0.0,0.0,0.0,0.0,0.0,0.0,0.0,0.0,0.0,0.0,0.0,0.0,0.0,0.0,0.0,0.0,0.0,0.0,0.0,0.0,0.0,0.0,0.0,0.0,0.0,0.0,0.0,0.0,0.0,0.0,0.0,0.0,0.0,0.0,0.0,0.0,0.0,0.0,0.0,0.0,0.0,0.0,0.0,0.0,0.0,0.0,0.0,0.0,0.0,0.0,0.0,0.0,0.0,0.0,0.0,0.0,0.0,0.0,5.1406,5.1405,5.1403,5.14,5.14,5.1403,0.0,0.0,0.0,0.0,0.0,0.0,0.0,0.0,0.0,0.0,0.0,0.0,0.0,0.0,0.0,0.0,0.0,0.0,0.0,0.0,0.0,0.0,0.0,0.0,0.0,0.0,0.0,0.0,0.0,0.0,0.0,0.0,0.0,0.0,0.0,0.0,0.0,0.0,0.0,0.0,0.0,0.0,0.0,0.0,0.0,0.0,0.0,0.0,0.0,0.0,0.0,0.0,0.0,0.0,0.0,0.0,0.0,0.0,0.0,0.0,0.0,0.0,0.0,0.0,0.0,0.0,0.0,0.0,0.0,0.0,0.0,0.0,0.0,0.0,0.0,0.0,0.0,0.0,0.0,0.0,0.0,0.0,0.0,0.0,0.0,0.0,0.0,0.0,0.0,0.0,0.0,0.0,0.0,0.0,0.0,0.0,0.0,0.0,0.0,0.0,0.0,0.0,0.0,0.0,0.0,0.0,0.0,0.0,5.1405,5.1401,5.1398,5.1398,5.1398,5.1398,0.0,0.0,0.0,0.0,0.0,0.0,0.0,0.0,0.0,0.0,0.0,0.0,0.0,0.0,0.0,0.0,0.0,0.0,0.0,0.0,0.0,0.0,0.0,0.0,0.0,0.0,0.0,0.0,0.0,0.0,0.0,0.0,0.0,0.0,0.0,0.0,0.0,0.0,0.0,0.0,0.0,0.0,0.0,0.0,0.0,0.0,0.0,0.0,0.0,0.0,0.0,0.0,0.0,0.0,0.0,0.0,0.0,0.0,0.0,0.0,0.0,0.0,0.0,0.0,0.0,0.0,0.0,0.0,0.0,0.0,0.0,0.0,0.0,0.0,0.0,0.0,0.0,0.0,0.0,0.0,0.0,0.0,0.0,0.0,0.0,0.0,0.0,0.0,0.0,0.0,0.0,0.0,0.0,0.0,0.0,0.0,0.0,0.0,0.0,0.0,0.0,0.0,0.0,0.0,0.0,0.0,0.0,0.0,0.0,5.1401,5.1396,5.1345,5.1279,5.1336,5.1377,0.0,0.0,0.0,0.0,0.0,0.0,0.0,0.0,0.0,0.0,0.0,0.0,0.0,0.0,0.0,0.0,0.0,0.0,0.0,0.0,0.0,0.0,0.0,0.0,0.0,0.0,0.0,0.0,0.0,0.0,0.0,0.0,0.0,0.0,0.0,0.0,0.0,0.0,0.0,0.0,0.0,0.0,0.0,0.0,0.0,0.0,0.0,0.0,0.0,0.0,0.0,0.0,0.0,0.0,0.0,0.0,0.0,0.0,0.0,0.0,0.0,0.0,0.0,0.0,0.0,0.0,0.0,0.0,0.0,0.0,0.0,0.0,0.0,0.0,0.0,0.0,0.0,0.0,0.0,0.0,0.0,0.0,0.0,0.0,0.0,0.0,0.0,0.0,0.0,0.0,0.0,0.0,0.0,0.0,0.0,0.0,0.0,0.0,0.0,0.0,0.0,0.0,0.0,0.0,0.0,0.0,0.0,0.0,0.0,5.1338,0.0,5.1249,5.1229,5.1297,5.1308,0.0,0.0,0.0,0.0,0.0,0.0,0.0,0.0,0.0,0.0,0.0,0.0,0.0,0.0,0.0,0.0,0.0,0.0,0.0,0.0,0.0,0.0,0.0,0.0,0.0,0.0,0.0,0.0,0.0,0.0,0.0,0.0,0.0,0.0,0.0,0.0,0.0,0.0,0.0,0.0,0.0,0.0,0.0,0.0,0.0,0.0,0.0,0.0,0.0,0.0,0.0,0.0,0.0,0.0,0.0,0.0,0.0,0.0,0.0,0.0,0.0,0.0,0.0,0.0,0.0,0.0,0.0,0.0,0.0,0.0,0.0,0.0,0.0,0.0,0.0,0.0,0.0,0.0,0.0,0.0,0.0,0.0,0.0,0.0,0.0,0.0,0.0,0.0,0.0,0.0,0.0,0.0,0.0,0.0,0.0,0.0,0.0,0.0,0.0,0.0,0.0,0.0,0.0,0.0,0.0,0.0,0.0,0.0,5.1334,5.1207,5.1074,5.1069,5.1195,5.1199,5.1275,0.0,0.0,0.0,0.0,0.0,0.0,0.0,0.0,0.0,0.0,0.0,0.0,0.0,0.0,0.0,0.0,0.0,0.0,0.0,0.0,0.0,0.0,0.0,0.0,0.0,0.0,0.0,0.0,0.0,0.0,0.0,0.0,0.0,0.0,0.0,0.0,0.0,0.0,0.0,0.0,0.0,0.0,0.0,0.0,0.0,0.0,0.0,0.0,0.0,0.0,0.0,0.0,0.0,0.0,0.0,0.0,0.0,0.0,0.0,0.0,0.0,0.0,0.0,0.0,0.0,0.0,0.0,0.0,0.0,0.0,0.0,0.0,0.0,0.0,0.0,0.0,0.0,0.0,0.0,0.0,0.0,0.0,0.0,0.0,0.0,0.0,0.0,0.0,0.0,0.0,0.0,0.0,0.0,0.0,0.0,0.0,0.0,0.0,0.0,0.0,0.0,0.0,0.0,0.0,0.0,0.0,0.0,0.0,0.0,5.1238,5.1063,5.0984,5.0979,5.102,5.1079,0.0,0.0,0.0,0.0,0.0,0.0,0.0,0.0,0.0,0.0,0.0,0.0,0.0,0.0,0.0,0.0,0.0,0.0,0.0,0.0,0.0,0.0,0.0,0.0,0.0,0.0,0.0,0.0,0.0,0.0,0.0,0.0,0.0,0.0,0.0,0.0,0.0,0.0,0.0,0.0,0.0,0.0,0.0,0.0,0.0,0.0,0.0,0.0,0.0,0.0,0.0,0.0,0.0,0.0,0.0,0.0,0.0,0.0,0.0,0.0,0.0,0.0,0.0,0.0,0.0,0.0,0.0,0.0,0.0,0.0,0.0,0.0,0.0,0.0,0.0,0.0,0.0,0.0,0.0,0.0,0.0,0.0,0.0,0.0,0.0,0.0,0.0,0.0,0.0,0.0,0.0,0.0,0.0,0.0,0.0,0.0,0.0,0.0,0.0,0.0,0.0,0.0,0.0,0.0,0.0,0.0,0.0,0.0,0.0,5.2047,5.189,5.1834,5.1834,5.1886,5.1917,5.1967,0.0,0.0,0.0,0.0,0.0,0.0,0.0,0.0,0.0,0.0,0.0,0.0,0.0,0.0,0.0,0.0,0.0,0.0,0.0,0.0,0.0,0.0,0.0,0.0,0.0,0.0,0.0,0.0,0.0,0.0,0.0,0.0,0.0,0.0,0.0,0.0,0.0,0.0,0.0,0.0,0.0,0.0,0.0,0.0,0.0,0.0,0.0,0.0,0.0,0.0,0.0,0.0,0.0,0.0,0.0,0.0,0.0,0.0,0.0,0.0,0.0,0.0,0.0,0.0,0.0,0.0,0.0,0.0,0.0,0.0,0.0,0.0,0.0,0.0,0.0,0.0,0.0,0.0,0.0,0.0,0.0,0.0,0.0,0.0,0.0,0.0,0.0,0.0,0.0,0.0,0.0,0.0,0.0,0.0,0.0,0.0,0.0,0.0,0.0,0.0,0.0,0.0,0.0,0.0,0.0,0.0,0.0,0.0,5.3473,5.3379,5.3331,5.3348,5.3348,5.3476,0.0,0.0,0.0,0.0,0.0,0.0,0.0,0.0,0.0,0.0,0.0,0.0,0.0,0.0,0.0,0.0,0.0,0.0,0.0,0.0,0.0,0.0,0.0,0.0,0.0,0.0,0.0,0.0,0.0,0.0,0.0,0.0,0.0,0.0,0.0,0.0,0.0,0.0,0.0,0.0,0.0,0.0,0.0,0.0,0.0,0.0,0.0,0.0,0.0,0.0,0.0,0.0,0.0,0.0,0.0,0.0,0.0,0.0,0.0,0.0,0.0,0.0,0.0,0.0,0.0,0.0,0.0,0.0,0.0,0.0,0.0,0.0,0.0,0.0,0.0,0.0,0.0,0.0,0.0,0.0,0.0,0.0,0.0,0.0,0.0,0.0,0.0,0.0,0.0,0.0,0.0,0.0,0.0,0.0,0.0,0.0,0.0,0.0,0.0,0.0,0.0,0.0,0.0,0.0,0.0,0.0,0.0,0.0,0.0,5.4255,5.4734,5.4493,5.3311,5.3282,5.3361,0.0,0.0,0.0,0.0,0.0,0.0,0.0,0.0,0.0,0.0,0.0,0.0,0.0,0.0,0.0,0.0,0.0,0.0,0.0,0.0,0.0,0.0,0.0,0.0,0.0,0.0,0.0,0.0,0.0,0.0,0.0,0.0,0.0,0.0,0.0,0.0,0.0,0.0,0.0,0.0,0.0,0.0,0.0,0.0,0.0,0.0,0.0,0.0,0.0,0.0,0.0,0.0,0.0,0.0,0.0,0.0,0.0,0.0,0.0,0.0,0.0,0.0,0.0,0.0,0.0,0.0,0.0,0.0,0.0,0.0,0.0,0.0,0.0,0.0,0.0,0.0,0.0,0.0,0.0,0.0,0.0,0.0,0.0,0.0,0.0,0.0,0.0,0.0,0.0,0.0,0.0,0.0,0.0,0.0,0.0,0.0,0.0,0.0,0.0,0.0,0.0,0.0,0.0,0.0,0.0,0.0,0.0,0.0,5.5103,5.5021,5.5434,5.5395,5.4818,5.4434,5.4314,0.0,0.0,0.0,0.0,0.0,0.0,0.0,0.0,0.0,0.0,0.0,0.0,0.0,0.0,0.0,0.0,0.0,0.0,0.0,0.0,0.0,0.0,0.0,0.0,0.0,0.0,0.0,0.0,0.0,0.0,0.0,0.0,0.0,0.0,0.0,0.0,0.0,0.0,0.0,0.0,0.0,0.0,0.0,0.0,0.0,0.0,0.0,0.0,0.0,0.0,0.0,0.0,0.0,0.0,0.0,0.0,0.0,0.0,0.0,0.0,0.0,0.0,0.0,0.0,0.0,0.0,0.0,0.0,0.0,0.0,0.0,0.0,0.0,0.0,0.0,0.0,0.0,0.0,0.0,0.0,0.0,0.0,0.0,0.0,0.0,0.0,0.0,0.0,0.0,0.0,0.0,0.0,0.0,0.0,0.0,0.0,0.0,0.0,0.0,0.0,0.0,0.0,0.0,0.0,0.0,0.0,0.0,0.0,5.6088,5.5983,5.5972,5.6357,5.706,5.6291,5.5868,0.0,0.0,0.0,0.0,0.0,0.0,0.0,0.0,0.0,0.0,0.0,0.0,0.0,0.0,0.0,0.0,0.0,0.0,0.0,0.0,0.0,0.0,0.0,0.0,0.0,0.0,0.0,0.0,0.0,0.0,0.0,0.0,0.0,0.0,0.0,0.0,0.0,0.0,0.0,0.0,0.0,0.0,0.0,0.0,0.0,0.0,0.0,0.0,0.0,0.0,0.0,0.0,0.0,0.0,0.0,0.0,0.0,0.0,0.0,0.0,0.0,0.0,0.0,0.0,0.0,0.0,0.0,0.0,0.0,0.0,0.0,0.0,0.0,0.0,0.0,0.0,0.0,0.0,0.0,0.0,0.0,0.0,0.0,0.0,0.0,0.0,0.0,0.0,0.0,0.0,0.0,0.0,0.0,0.0,0.0,0.0,0.0,0.0,0.0,0.0,0.0,0.0,0.0,0.0,0.0,0.0,0.0,0.0,5.7786,5.7742,5.7742,5.7819,5.8011,5.7165,5.7097,0.0,0.0,0.0,0.0,0.0,0.0,0.0,0.0,0.0,0.0,0.0,0.0,0.0,0.0,0.0,0.0,0.0,0.0,0.0,0.0,0.0,0.0,0.0,0.0,0.0,0.0,0.0,0.0,0.0,0.0,0.0,0.0,0.0,0.0,0.0,0.0,0.0,0.0,0.0,0.0,0.0,0.0,0.0,0.0,0.0,0.0,0.0,0.0,5.8475,0.0,0.0,0.0,0.0,0.0,0.0,0.0,0.0,0.0,0.0,0.0,0.0,0.0,0.0,0.0,0.0,0.0,0.0,0.0,0.0,0.0,0.0,0.0,0.0,0.0,0.0,0.0,0.0,0.0,0.0,0.0,0.0,0.0,0.0,0.0,0.0,0.0,0.0,0.0,0.0,0.0,0.0,0.0,0.0,0.0,0.0,0.0,0.0,0.0,0.0,0.0,0.0,0.0,0.0,0.0,0.0,0.0,0.0,0.0,5.8269,5.8269,5.8269,5.8473,5.8819,5.8396,5.8259,0.0,0.0,0.0,0.0,0.0,0.0,0.0,0.0,0.0,0.0,0.0,0.0,0.0,0.0,0.0,0.0,0.0,0.0,0.0,0.0,0.0,0.0,0.0,0.0,0.0,0.0,0.0,0.0,0.0,0.0,0.0,0.0,0.0,0.0,0.0,0.0,0.0,0.0,0.0,0.0,0.0,0.0,0.0,0.0,0.0,0.0,0.0,0.0,0.0,0.0,0.0,0.0,0.0,0.0,0.0,0.0,0.0,0.0,0.0,0.0,0.0,0.0,0.0,0.0,0.0,0.0,0.0,0.0,0.0,0.0,0.0,0.0,0.0,0.0,0.0,0.0,0.0,0.0,0.0,0.0,0.0,0.0,0.0,0.0,0.0,0.0,0.0,0.0,0.0,0.0,0.0,0.0,0.0,0.0,0.0,0.0,0.0,0.0,0.0,0.0,0.0,0.0,0.0,0.0,0.0,0.0,0.0,5.8704,5.8704,5.8665,5.8665,5.9011,5.9665,5.9704,5.9358,5.8704,0.0,0.0,0.0,0.0,0.0,0.0,0.0,0.0,0.0,0.0,0.0,0.0,0.0,0.0,0.0,0.0,0.0,0.0,0.0,0.0,0.0,0.0,0.0,0.0,0.0,0.0,0.0,0.0,0.0,0.0,0.0,0.0,0.0,0.0,0.0,0.0,0.0,0.0,6.0335,6.003,0.0,0.0,0.0,0.0,0.0,0.0,0.0,0.0,5.8677,0.0,0.0,0.0,0.0,0.0,0.0,0.0,0.0,0.0,0.0,0.0,0.0,0.0,0.0,0.0,0.0,0.0,0.0,0.0,0.0,0.0,0.0,0.0,0.0,0.0,0.0,0.0,0.0,0.0,0.0,0.0,0.0,0.0,0.0,0.0,0.0,0.0,0.0,0.0,0.0,0.0,0.0,0.0,0.0,0.0,0.0,0.0,0.0,0.0,0.0,0.0,0.0,0.0,0.0,0.0,0.0,6.0358,6.0396,6.0396,6.0396,6.0396,6.0435,6.0589,6.0589,6.0512,6.0396,0.0,0.0,0.0,0.0,0.0,0.0,0.0,0.0,0.0,0.0,0.0,0.0,0.0,0.0,0.0,0.0,0.0,0.0,0.0,0.0,0.0,0.0,0.0,0.0,0.0,0.0,0.0,0.0,0.0,0.0,0.0,0.0,0.0,0.0,0.0,0.0,0.0,0.0,0.0,6.003,5.9793,0.0,0.0,0.0,0.0,0.0,0.0,0.0,0.0,5.8677,0.0,0.0,0.0,0.0,0.0,0.0,0.0,0.0,0.0,0.0,0.0,0.0,0.0,0.0,0.0,0.0,0.0,0.0,0.0,0.0,0.0,0.0,0.0,0.0,0.0,0.0,0.0,0.0,0.0,0.0,0.0,0.0,0.0,0.0,0.0,0.0,0.0,0.0,0.0,0.0,0.0,0.0,0.0,0.0,0.0,0.0,0.0,0.0,0.0,0.0,0.0,0.0,0.0,0.0,0.0,6.0781,6.0781,6.0781,6.0781,6.0781,6.0781,6.0781,6.0781,6.0781,0.0,0.0,0.0,0.0,0.0,0.0,0.0,0.0,0.0,0.0,0.0,0.0,0.0,0.0,0.0,0.0,0.0,0.0,0.0,0.0,0.0,0.0,0.0,0.0,0.0,0.0,0.0,0.0,0.0,0.0,0.0,0.0,0.0,0.0,0.0,0.0,0.0,0.0,0.0,0.0,6.003,5.9874,6.0007,0.0,0.0,0.0,0.0,0.0,0.0,5.8677,5.8677,0.0,0.0,0.0,0.0,0.0,0.0,0.0,0.0,0.0,0.0,0.0,0.0,0.0,0.0,0.0,0.0,0.0,0.0,0.0,0.0,0.0,0.0,0.0,0.0,0.0,0.0,0.0,0.0,0.0,0.0,0.0,0.0,0.0,0.0,0.0,0.0,0.0,0.0,0.0,0.0,0.0,0.0,0.0,0.0,0.0,0.0,0.0,0.0,0.0,0.0,0.0,0.0,0.0,0.0,0.0,6.0781,6.0781,6.0781,6.0781,6.0781,6.0781,6.0781,6.0781,6.0781,0.0,0.0,0.0,0.0,0.0,0.0,0.0,0.0,0.0,0.0,0.0,0.0,0.0,0.0,0.0,0.0,0.0,0.0,0.0,0.0,0.0,0.0,0.0,0.0,0.0,0.0,0.0,0.0,0.0,0.0,0.0,0.0,0.0,0.0,0.0,0.0,0.0,0.0,0.0,0.0,0.0,5.9946,6.0179,5.9984,0.0,0.0,0.0,0.0,5.8677,5.8677,0.0,0.0,0.0,0.0,0.0,0.0,0.0,0.0,0.0,0.0,0.0,0.0,0.0,0.0,0.0,0.0,0.0,0.0,0.0,0.0,0.0,0.0,0.0,0.0,0.0,0.0,0.0,0.0,0.0,0.0,0.0,0.0,0.0,0.0,0.0,0.0,0.0,0.0,0.0,0.0,0.0,0.0,0.0,0.0,0.0,0.0,0.0,0.0,0.0,0.0,0.0,0.0,0.0,0.0,0.0,0.0,6.0781,6.0781,6.0781,6.0781,6.0781,6.0781,6.0781,6.0781,6.0781,0.0,0.0,0.0,0.0,0.0,0.0,0.0,0.0,0.0,0.0,0.0,0.0,0.0,0.0,0.0,0.0,0.0,0.0,0.0,0.0,0.0,0.0,0.0,0.0,0.0,0.0,0.0,0.0,0.0,0.0,0.0,0.0,0.0,0.0,0.0,0.0,0.0,0.0,0.0,0.0,0.0,6.0165,5.9906,5.9842,5.9639,0.0,0.0,5.8677,5.8677,5.8677,0.0,0.0,0.0,0.0,0.0,0.0,0.0,0.0,0.0,0.0,0.0,0.0,0.0,0.0,0.0,0.0,0.0,0.0,0.0,0.0,0.0,0.0,0.0,0.0,0.0,0.0,0.0,0.0,0.0,0.0,0.0,0.0,0.0,0.0,0.0,0.0,0.0,0.0,0.0,0.0,0.0,0.0,0.0,0.0,0.0,0.0,0.0,0.0,0.0,0.0,0.0,0.0,0.0,0.0,0.0,6.1524,6.155,6.1973,6.2243,6.2204,6.2204,6.2204,6.2204,6.2204,6.2012,0.0,0.0,0.0,0.0,0.0,0.0,0.0,0.0,0.0,0.0,0.0,0.0,0.0,0.0,0.0,0.0,0.0,0.0,0.0,0.0,0.0,0.0,0.0,0.0,0.0,0.0,0.0,0.0,0.0,0.0,0.0,0.0,0.0,0.0,0.0,0.0,0.0,0.0,0.0,0.0,0.0,0.0,6.0508,6.0871,0.0,0.0,0.0,6.011,6.0147,0.0,0.0,0.0,0.0,0.0,0.0,0.0,0.0,0.0,0.0,0.0,0.0,0.0,0.0,0.0,0.0,0.0,0.0,0.0,0.0,0.0,0.0,0.0,0.0,0.0,0.0,0.0,0.0,0.0,0.0,0.0,0.0,0.0,0.0,0.0,0.0,0.0,0.0,0.0,0.0,0.0,0.0,0.0,0.0,0.0,0.0,0.0,0.0,0.0,0.0,0.0,0.0,0.0,0.0,0.0,0.0,0.0,6.2397,6.3012,6.3308,6.3308,6.3308,6.3308,6.3308,6.3308,0.0,0.0,0.0,0.0,0.0,0.0,0.0,0.0,0.0,0.0,0.0,0.0,0.0,0.0,0.0,0.0,0.0,0.0,0.0,0.0,0.0,0.0,0.0,0.0,0.0,0.0,0.0,6.1793,0.0,0.0,0.0,0.0,0.0,0.0,0.0,0.0,0.0,0.0,0.0,0.0,0.0,0.0,6.1304,6.1309,6.1818,6.2097,0.0,0.0,6.1187,6.1187,6.1187,6.1187,0.0,0.0,0.0,0.0,0.0,0.0,0.0,0.0,0.0,0.0,0.0,0.0,0.0,0.0,0.0,0.0,0.0,0.0,0.0,0.0,0.0,0.0,0.0,0.0,0.0,0.0,0.0,0.0,0.0,0.0,0.0,0.0,0.0,0.0,0.0,0.0,0.0,0.0,0.0,0.0,0.0,0.0,0.0,0.0,0.0,0.0,0.0,0.0,0.0,0.0,0.0,0.0,0.0,0.0,0.0,6.3243,6.3269,6.332,6.3308,6.3308,6.3308,6.3308,6.3308,6.3269,0.0,0.0,0.0,0.0,0.0,0.0,0.0,0.0,0.0,0.0,0.0,0.0,0.0,0.0,0.0,0.0,0.0,0.0,0.0,0.0,0.0,0.0,0.0,0.0,0.0,0.0,0.0,0.0,0.0,0.0,0.0,0.0,0.0,0.0,0.0,0.0,0.0,0.0,0.0,0.0,0.0,6.2122,6.2122,6.2159,6.2097,0.0,0.0,6.1187,6.1187,6.1224,6.1187,6.1187,0.0,0.0,0.0,0.0,0.0,0.0,0.0,0.0,0.0,0.0,0.0,0.0,0.0,0.0,0.0,0.0,0.0,0.0,0.0,0.0,0.0,0.0,0.0,0.0,0.0,0.0,0.0,0.0,0.0,0.0,0.0,0.0,0.0,0.0,0.0,0.0,0.0,0.0,0.0,0.0,0.0,0.0,0.0,0.0,0.0,0.0,0.0,0.0,0.0,0.0,0.0,0.0,0.0,6.4089,6.4128,6.4628,6.4897,6.4897,6.4897,6.4897,6.4897,6.4897,6.4666,0.0,0.0,0.0,0.0,0.0,0.0,0.0,0.0,0.0,0.0,0.0,0.0,0.0,0.0,0.0,0.0,0.0,0.0,0.0,0.0,0.0,0.0,0.0,0.0,0.0,0.0,0.0,0.0,6.2627,6.282,6.2858,0.0,0.0,0.0,0.0,0.0,0.0,0.0,0.0,0.0,0.0,6.2886,6.2691,6.3088,0.0,0.0,6.2724,6.2673,6.2673,6.2673,6.2673,6.271,6.271,0.0,0.0,0.0,0.0,0.0,0.0,0.0,0.0,0.0,0.0,0.0,0.0,0.0,0.0,0.0,0.0,0.0,0.0,0.0,0.0,0.0,0.0,0.0,0.0,0.0,0.0,0.0,0.0,0.0,0.0,0.0,0.0,0.0,0.0,0.0,0.0,0.0,0.0,0.0,0.0,0.0,0.0,0.0,0.0,0.0,0.0,0.0,0.0,0.0,0.0,0.0,0.0,6.5013,6.5013,6.582,6.6128,6.5897,6.6128,6.6128,6.5897,6.5897,6.559,0.0,0.0,0.0,0.0,0.0,0.0,0.0,0.0,0.0,0.0,0.0,0.0,0.0,0.0,0.0,0.0,0.0,0.0,0.0,0.0,0.0,0.0,0.0,0.0,0.0,0.0,0.0,0.0,6.3551,6.3782,6.4051,0.0,0.0,0.0,0.0,0.0,0.0,0.0,0.0,0.0,0.0,6.3757,6.3465,6.3895,6.4046,6.3669,6.3602,6.3713,6.3936,6.4048,6.4233,6.4494,0.0,0.0,0.0,0.0,0.0,0.0,0.0,0.0,0.0,0.0,0.0,0.0,0.0,0.0,0.0,0.0,0.0,0.0,0.0,0.0,0.0,0.0,0.0,0.0,0.0,0.0,0.0,0.0,0.0,0.0,6.3447,0.0,0.0,0.0,0.0,0.0,0.0,0.0,0.0,0.0,0.0,0.0,0.0,0.0,0.0,0.0,0.0,0.0,0.0,0.0,0.0,0.0,0.0,6.5897,6.5897,6.6705,6.6705,6.5974,6.6667,6.6744,6.5974,6.5936,6.5897,6.5859,0.0,0.0,0.0,0.0,0.0,0.0,0.0,0.0,0.0,0.0,0.0,0.0,0.0,0.0,0.0,0.0,0.0,0.0,0.0,0.0,0.0,0.0,0.0,0.0,0.0,0.0,6.3346,6.4089,6.4897,0.0,0.0,0.0,0.0,0.0,0.0,0.0,0.0,0.0,0.0,6.4883,6.4661,6.4681,6.4426,6.4121,6.3706,6.3639,6.3899,6.4702,6.5101,6.5656,0.0,0.0,0.0,0.0,0.0,0.0,0.0,0.0,0.0,0.0,0.0,0.0,0.0,0.0,0.0,0.0,0.0,0.0,0.0,0.0,0.0,0.0,0.0,0.0,0.0,0.0,0.0,6.6108,6.6108,0.0,0.0,0.0,0.0,0.0,0.0,0.0,0.0,0.0,0.0,0.0,6.632,6.7167,0.0,0.0,0.0,0.0,0.0,0.0,0.0,0.0,0.0,0.0,0.0,0.0,6.7603,6.759,6.7821,6.7821,6.759,6.7821,6.7859,6.759,6.759,6.7282,6.6705,0.0,0.0,0.0,0.0,0.0,0.0,0.0,0.0,0.0,0.0,0.0,0.0,0.0,0.0,0.0,0.0,0.0,0.0,0.0,0.0,0.0,0.0,0.0,0.0,0.0,6.4397,0.0,0.0,0.0,0.0,0.0,0.0,0.0,0.0,0.0,0.0,0.0,6.5237,6.6086,6.5834,6.576,6.6291,6.5844,6.5493,0.0,0.0,0.0,0.0,0.0,0.0,0.0,0.0,0.0,0.0,0.0,0.0,0.0,0.0,6.6359,6.5243,6.5462,6.5884,6.6087,0.0,0.0,0.0,0.0,0.0,0.0,0.0,0.0,0.0,0.0,0.0,0.0,0.0,0.0,6.7772,0.0,6.7726,0.0,0.0,0.0,0.0,0.0,0.0,0.0,0.0,6.7334,6.7552,6.7552,6.8129,6.8398,0.0,6.8398,6.786,0.0,0.0,0.0,0.0,0.0,0.0,0.0,0.0,6.8437,6.8436,6.8706,6.8706,6.8423,6.8706,6.8706,6.8398,6.8398,6.8129,6.7552,6.7552,6.7282,0.0,0.0,0.0,0.0,0.0,0.0,0.0,0.0,0.0,0.0,0.0,0.0,0.0,0.0,0.0,0.0,0.0,0.0,0.0,0.0,0.0,0.0,0.0,6.5341,0.0,0.0,0.0,0.0,0.0,0.0,0.0,0.0,0.0,6.486,6.5365,6.6063,6.6904,6.6671,6.6577,6.6957,0.0,0.0,0.0,0.0,0.0,0.0,0.0,6.7713,6.8271,6.8256,6.8202,6.8327,6.84,6.8433,6.8272,0.0,0.0,6.6974,6.7154,6.7499,6.7459,6.7445,6.7637,6.8119,6.8056,6.8032,0.0,0.0,0.0,0.0,0.0,0.0,0.0,0.0,6.8564,6.8539,0.0,6.8539,0.0,0.0,0.0,0.0,0.0,6.8487,0.0,0.0,6.8424,6.8462,6.8423,6.8513,6.8513,6.8552,6.859,6.8577,6.859,6.8577,0.0,0.0,0.0,0.0,0.0,0.0,6.8552,6.8667,6.9475,6.9436,6.8692,6.9398,6.936,6.8552,6.8513,6.8513,6.8475,6.8436,6.8423,6.8398,6.8359,0.0,0.0,0.0,0.0,0.0,0.0,0.0,0.0,0.0,0.0,0.0,0.0,0.0,0.0,0.0,0.0,0.0,0.0,0.0,0.0,6.6108,0.0,0.0,0.0,0.0,0.0,0.0,0.0,0.0,0.0,0.0,6.6173,6.6423,6.6957,6.7728,0.0,0.0,0.0,0.0,6.6336,6.68,6.6825,6.7231,6.8394,6.89,6.9365,7.0168,0.0,0.0,7.0346,6.997,6.961,6.9237,6.8819,6.8475,6.8538,6.8421,6.8356,6.8342,6.8381,6.8419,6.8496,6.9267,6.9808,7.1171,0.0,0.0,0.0,0.0,6.8621,6.8933,6.945,6.9425,6.9425,6.9425,6.9425,0.0,0.0,0.0,0.0,0.0,0.0,6.8463,6.8462,6.9052,6.9321,6.936,6.9898,7.0514,7.1091,7.1091,7.1437,7.2014,7.2038,7.1398,7.0206,0.0,0.0,0.0,0.0,7.2107,7.2052,7.2283,7.2269,7.2052,7.1668,7.1052,7.0206,7.0206,6.9937,6.936,6.9321,6.9052,6.8423,6.8398,0.0,0.0,0.0,0.0,0.0,0.0,0.0,0.0,0.0,0.0,0.0,0.0,0.0,0.0,0.0,0.0,0.0,0.0,0.0,6.5931,6.6052,6.6052,0.0,0.0,0.0,0.0,0.0,0.0,0.0,0.0,0.0,6.8145,6.8012,6.8115,0.0,0.0,6.8501,6.8408,6.8307,6.8393,6.8789,6.881,0.0,7.0065,7.0072,7.0133,7.0666,7.0805,7.0871,7.0748,7.0651,7.0525,7.0402,7.0305,7.036,7.0898,7.0077,6.9371,6.9333,6.9756,7.0333,7.0948,7.1308,7.1629,7.2713,7.1326,7.1389,7.1093,7.0567,7.0593,7.0825,7.126,7.126,7.1068,7.0734,7.0734,7.0285,6.9515,6.9515,0.0,0.0,0.0,6.9438,6.9436,7.0283,7.0667,7.0744,7.1552,7.2206,7.2706,7.2706,7.2976,7.35,7.35,7.3129,7.2437,0.0,0.0,7.3476,7.3556,7.3518,7.3514,7.35,7.35,7.3462,7.2976,7.2476,7.1975,7.1937,7.1706,7.1245,7.1206,7.0821,6.9937,6.9898,6.9629,0.0,0.0,0.0,0.0,0.0,0.0,0.0,0.0,0.0,0.0,0.0,6.6077,6.599,0.0,0.0,0.0,6.6019,6.6133,6.648,6.6565,0.0,0.0,0.0,0.0,0.0,0.0,0.0,6.8027,6.8648,6.9489,7.0639,7.0594,7.0364,7.0123,7.0381,7.056,7.0355,0.0,7.0491,7.0913,7.0968,7.118,7.1814,7.1703,7.1658,7.1909,7.1937,7.1937,7.1937,7.1937,7.1937,7.1937,7.1937,7.2091,7.2629,7.186,7.1206,7.1206,7.1591,7.2091,7.2629,7.2745,7.286,7.3738,7.3721,7.3805,7.3755,7.3586,7.3586,7.3545,7.35,7.3476,7.3053,7.2322,7.2283,7.186,7.1091,7.1129,0.0,7.1091,7.1091,7.1091,7.1143,7.1951,7.2297,7.2349,7.3144,7.3553,7.3591,7.3591,7.363,7.3692,7.3707,7.4091,7.4784,7.4053,7.3707,7.3707,7.3707,7.3707,7.3707,7.3692,7.3707,7.3591,7.3591,7.3553,7.3476,7.35,7.3462,7.3462,7.3462,7.3129,7.236,7.2283,7.1591,7.009,0.0,0.0,0.0,0.0,0.0,0.0,0.0,0.0,0.0,0.0,0.0,0.0,0.0,0.0,0.0,6.6301,0.0,6.743,6.7469,0.0,0.0,0.0,6.8276,6.8067,6.8335,6.9083,7.0477,0.0,0.0,7.3269,7.3538,7.3168,7.1991,7.2494,7.274,7.2263,7.2205,7.2395,7.2699,7.2881,7.2997,7.3265,7.3308,7.3293,7.3308,7.35,7.3385,7.3399,7.3399,7.3462,7.3399,7.3462,7.35,7.3553,7.3514,7.363,7.363,7.35,7.3476,7.3577,7.3591,7.3668,7.546,7.5485,7.5456,7.4711,7.3542,7.3542,7.3528,7.35,7.35,7.3399,7.3206,7.3206,7.3091,7.2899,7.2899,7.2846,7.2899,7.2899,7.2927,7.2981,7.3119,7.3224,7.3344,7.3509,7.3906,7.4445,7.4483,7.4802,7.5399,7.5399,7.5515,7.5668,7.5515,7.5399,7.5399,7.5399,7.5399,7.5399,7.5399,7.5091,7.4437,7.4437,7.413,7.35,7.35,7.35,7.35,7.35,7.3399,7.3206,7.3206,7.3014,7.2629,7.1975,0.0,0.0,0.0,0.0,0.0,0.0,0.0,0.0,0.0,6.7124,6.688,0.0,6.7317,0.0,6.7993,6.8044,6.8128,6.8141,0.0,0.0,6.8129,6.8516,6.9966,7.0041,7.0662,7.2553,7.2818,7.3053,7.3476,7.4053,7.4293,7.3989,7.359,7.3083,7.2339,7.2507,7.2779,7.2902,7.2974,7.3035,7.3481,7.35,7.3538,7.35,7.35,7.35,7.35,7.35,7.35,7.35,7.35,7.3731,7.4361,7.4399,7.4707,7.5168,7.4399,7.3707,7.4284,7.4437,7.463,7.6172,7.6131,7.609,7.5537,7.4728,7.462,7.463,7.463,7.463,7.4399,7.4,7.3668,7.35,7.35,7.35,7.35,7.35,7.35,7.3528,7.357,7.3875,7.4071,7.423,7.4538,7.4934,7.5358,7.5358,7.5586,7.5976,7.5976,7.6207,7.6553,7.6553,7.6784,7.7053,7.6361,7.5976,7.5976,7.5976,7.5784,7.5284,7.5284,7.5091,7.463,7.4591,7.463,7.463,7.4591,7.4437,7.4053,7.4053,7.3899,7.3514,7.3053,7.2783,0.0,0.0,0.0,0.0,0.0,0.0,0.0,0.0,0.0,0.0,0.0,6.8098,6.8467,6.888,6.9205,6.9488,6.986,7.0244,7.0615,7.0489,7.0805,7.1962,7.1909,7.2379,7.387,7.4053,7.4207,7.4553,7.5014,7.5284,7.5284,7.4899,7.4435,7.4019,7.4107,7.4296,7.4296,7.4258,7.4343,7.4577,7.463,7.463,7.463,7.463,7.463,7.463,7.4591,7.4707,7.5091,7.5207,7.5438,7.6207,7.6399,7.6592,7.6823,7.6361,7.5822,7.5861,7.5861,7.613,7.6611,7.652,7.6546,7.6546,7.6532,7.6409,7.6236,7.6029,7.6044,7.5582,7.4836,7.413,7.3822,7.3822,7.3822,7.3822,7.3822,7.3822,7.3822,7.3875,7.4553,7.4903,7.5025,7.5757,7.6129,7.6244,7.6244,7.6279,7.6322,7.6322,7.6707,7.7438,7.7491,7.7784,7.84,7.7053,7.6322,7.6322,7.6322,7.6322,7.6322,7.6322,7.6322,7.6322,7.6322,7.6322,7.6322,7.6207,7.5822,7.5091,7.4938,7.4553,7.386,7.3707,7.3668,0.0,7.3553,0.0,0.0,0.0,0.0,0.0,0.0,0.0,0.0,6.9153,6.9181,6.9065,6.9744,7.0475,7.1168,7.1937,7.2668,7.3399,7.35,7.3553,7.363,7.3668,7.3976,7.4784,7.4861,7.5168,7.5822,7.5976,7.5976,7.5938,7.6053,7.6038,7.6115,7.5947,7.5831,7.5976,7.5976,7.5793,7.6053,7.613,7.6169,7.6284,7.6322,7.6322,7.6322,7.6322,7.6553,7.7207,7.7323,7.7592,7.8361,7.84,7.8415,7.8361,7.8261,7.8054,7.7553,7.7346,7.7692,7.8413,7.8361,7.8309,7.8334,7.8295,7.8307,7.7442,7.6076,7.6131,7.6041,7.5845,7.562,7.5515,7.5515,7.5515,7.5515,7.5515,7.5515,7.5543,7.5614,7.5697,7.5817,7.5941,7.6041,7.6475,7.713,7.713,7.7434,7.8015,7.8015,7.8092,7.8246,7.8284,7.8338,7.8492,0.0,0.0,0.0,7.8054,7.8015,7.8015,7.8015,7.8015,7.8015,7.8015,0.0,7.8015,7.74,7.6976,7.6823,7.613,0.0,0.0,0.0,0.0,0.0,0.0,0.0,0.0,0.0,0.0,0.0,7.2723,7.2288,7.1633,7.2172,7.2569,7.2552,7.2706,7.286,7.3014,7.3168,7.3322,7.3462,7.3514,7.3769,7.4361,7.4476,7.4822,7.563,7.5745,7.5822,7.5976,7.5976,7.6015,7.613,7.663,7.7015,7.7053,7.6476,7.6053,7.6015,7.613,7.6322,7.6938,7.7053,7.7284,7.7823,7.8015,7.7977,7.7938,7.7938,7.7977,7.8246,7.8284,7.8284,7.853,7.8492,7.8607,7.853,7.853,7.8453,7.8284,7.8223,7.8253,7.894,0.0,7.8902,7.8889,0.0,7.8889,7.8335,7.7379,7.7379,7.7337,7.7266,7.7275,7.7246,7.7246,7.7246,7.7246,7.7246,7.7246,7.7237,7.7266,7.7222,7.7304,7.7417,7.7337,7.7554,7.7964,7.8017,7.8166,7.8492,7.8492,7.8707,7.9131,7.9169,7.9361,7.9746,7.9785,7.9361,7.8492,7.8492,7.8492,7.8492,7.8492,7.8492,7.8492,7.8492,0.0,0.0,0.0,0.0,0.0,0.0,0.0,0.0,7.6245,0.0,7.5361,7.4976,7.4745,7.4745,7.4745,7.4745,7.4745,7.4745,7.4207,7.2937,7.3245,7.35,7.3514,7.386,7.4091,7.413,7.4476,7.4745,7.4745,7.4745,7.4938,7.5245,7.5322,7.5515,7.5938,7.6361,7.663,7.663,7.7015,7.7207,7.7246,7.7592,7.79,7.7861,7.7515,7.7246,7.7207,7.7246,7.7361,7.7784,7.79,7.7977,7.84,7.8492,7.8492,7.8492,7.8492,7.8631,7.9015,7.9131,7.9246,7.9708,7.9785,7.9785,7.9785,7.9785,7.9769,7.9661,7.9345,7.9198,7.9453,7.9453,7.9453,7.9453,7.9453,7.9453,7.934,7.9117,0.0,0.0,0.0,7.8492,7.8492,7.8492,7.8492,7.8492,7.8492,7.8492,7.8492,7.8492,7.8492,7.8507,7.8566,7.8566,7.8681,7.8797,7.8797,7.8844,7.8953,7.8938,7.9323,7.9977,8.0015,8.04,8.1054,8.1093,8.04,7.9015,7.8977,7.8938,7.8938,7.8938,7.8977,7.8938,7.8938,7.8938,7.8938,7.8823,7.8746,7.8707,7.8592,7.8207,7.7553,7.7515,7.7207,7.6515,7.6438,7.6438,7.6438,7.6438,7.6438,7.6438,7.6438,7.5745,7.4091,7.3937,7.3937,7.3937,7.4553,7.4938,7.4938,7.5553,7.5976,7.5976,7.613,7.6207,7.6245,7.6361,7.6515,7.6515,7.7092,7.7515,7.7515,7.8015,7.8492,7.8515,7.8592,7.8823,7.8861,7.8631,7.8323,7.8323,7.8246,7.8492,7.8707,7.8746,7.8784,7.9054,7.9169,7.9169,7.9169,7.9285,7.9669,8.0516,8.0477,8.0823,8.1362,8.1362,8.1323,8.1285,8.1154,8.1045,8.0866,8.0317,8.0054,8.1143,8.1155,8.1155,8.1143,8.1143,8.1155,8.1079,8.0814,7.922,7.8575,7.8566,7.8507,7.8492,7.8492,7.8492,7.8492,7.8492,7.8492,7.8492,7.8492,7.8492,7.8492,7.8545,7.8492,7.8915,7.9608,7.9646,8.0031,8.0669,8.0708,8.0823,8.09,8.0939,8.0977,8.1093,8.1093,8.0977,8.0746,8.0746,8.0746,8.0746,8.0746,8.0746,8.0746,8.0708,8.0746,8.0708,8.0015,7.9631,7.9592,7.89,7.8438,7.8323,7.8323,7.8284,7.813,7.813,7.813,7.813,7.813,7.813,7.813,7.813,7.7438,7.5822,7.563,7.563,7.5668,7.5784,7.5822,7.5822,7.5976,7.6092,7.6092,7.6669,7.7092,7.713,7.7669,7.8015,7.8015,7.8261,7.8323,7.8361,7.8515,7.8707,7.8669,7.9438,7.9939,8.0323,7.9438,7.8592,7.8492,7.8492,7.8823,7.9592,7.9631,8.0015,8.0631,8.1246,8.1554,8.1554,8.2054,8.2477,8.2939,8.2785,8.2939,8.3093,8.2593,8.2247,8.2093,8.1606,8.1096,8.1102,8.0809,8.0591,8.1491,8.1491,8.1491,8.1491,8.1491,8.1414,8.1374,8.1294,8.0337,7.9915,7.9946,7.9915,7.99,7.99,7.99,7.99,7.99,7.99,7.99,7.99,7.99,7.99,7.99,7.99,8.0131,8.0516,8.0516,8.0708,8.1054,8.1093,8.1093,8.1131,8.1516,8.1977,8.2439,8.2477,8.2477,8.2439,8.1554,8.1093,8.1093,8.1093,8.1093,8.1093,8.1093,8.1093,8.1093,8.0708,8.0516,8.0516,8.0131,7.9708,7.9246,7.9208,7.8977,7.853,7.8492,7.8492,7.8492,7.8492,7.8492,7.8492,7.8492,7.8169,7.7438,7.7361,7.7361,7.7361,7.7361,7.7361,7.7361,7.7361,7.7323,7.7361,7.7746,7.7938,7.7977,7.8246,7.8492,7.853,7.8938,7.9208,7.9208,7.9977,8.0554,8.0631,8.1285,8.2016,8.2362,8.1785,8.1054,8.0708,8.0954,8.14,8.1747,8.1862,8.2054,8.2439,8.2747,8.2978,8.3016,8.3401,8.3555,8.3593,8.3593,8.3593,8.3609,8.3285,8.3038,8.2874,8.2611,8.2276,8.219,8.201,8.1612,8.2084,8.2084,8.2084,8.2071,8.2046,8.1926,8.1884,8.1898,8.1724,8.167,8.1631,8.1285,8.1093,8.1093,8.1093,8.1093,8.1093,8.1093,8.1208,8.1362,8.1362,8.1477,8.167,8.167,8.167,8.167,8.167,8.167,8.167,8.167,8.167,8.1708,8.2285,8.2901,8.3555,8.3593,8.3593,8.3516,8.2324,8.167,8.167,8.1477,8.1362,8.1362,8.1208,8.1093,8.1093,8.1093,8.1093,8.1093,8.1093,8.0785,8.0131,8.0092,7.9785,7.9169,7.9092,7.9092,7.9092,7.9092,7.9092,7.9092,7.9092,7.9092,7.9092,7.9092,7.8861,7.8554,7.8415,7.8453,7.8415,7.8438,7.8492,7.8492,7.8707,7.89,7.9054,7.9208,7.9438,7.9646,8.0246,8.0708,8.09,8.1785,8.2439,8.2593,8.317,8.3555,8.3593,8.3708,8.3555,8.3208,8.3324,8.3401,8.3593,8.3478,8.3478,8.3593,8.3747,8.3862,8.3939,8.4016,8.4234,8.4342,8.4319,8.4419,8.4319,8.4141,8.401,8.3903,8.3657,8.3394,8.3297,8.3214,8.2789,8.3824,8.3863,8.3786,8.3785,8.3641,8.3558,8.35,8.3425,8.341,8.3362,8.3147,8.1785,8.117,8.1093,8.1131,8.117,8.117,8.1093,8.1516,8.2131,8.217,8.2593,8.3247,8.3324,8.3362,8.3285,8.3285,8.3208,8.3208,8.3247,8.3324,8.3362,8.3439,8.3516,8.3632,8.3632,8.3632,8.3593,8.3439,8.3362,8.3324,8.2593,8.217,8.2208,8.1477,8.1093,8.1208,8.1093,8.1093,8.1093,8.1131,8.1093,8.1016,8.0977,8.0939,8.0862,8.0823,8.0862,8.0862,8.0862,8.0823,8.0862,8.0862,8.0862,8.0862,8.0862,8.0169,7.9092,7.8607,7.8669,7.853,7.8669,7.8861,7.8977,7.9438,7.9977,8.0746,8.1516,8.2247,8.3054,8.2862,8.3208,8.2978,8.3285,8.3478,8.3593,8.3785,8.3901,8.3901,8.4401,8.4747,8.4516,8.417,8.3747,8.3747,8.3593,8.3824,8.3824,8.4286,8.4686,8.4895,8.5389,8.5906,8.5882,8.6166,8.6208,8.6132,8.584,8.5343,8.5372,8.4921,8.4108,8.3901,8.4028,8.3813,8.4095,8.4095,8.4095,8.4017,8.3898,8.3828,8.3784,8.374,8.3657,8.3625,8.358,8.2894,8.2554,8.2593,8.2554,8.2554,8.2593,8.2593,8.2747,8.3054,8.3054,8.3285,8.3555,8.3593,8.3593,8.3593,8.3593,8.3593,8.3593,8.3593,8.3824,8.4324,8.4362,8.4593,8.5055,8.5093,8.5093,8.5093,8.5093,8.5055,8.4901,8.3747,8.3054,8.3016,8.2747,8.2554,8.2554,8.2554,8.2593,8.2554,8.2593,8.2593,8.2554,8.2093,8.1823,8.1785,8.1362,8.1285,8.1785,8.1823,8.2054,8.2516,8.2593,8.2593,8.2593,8.2554,8.2247,8.1631,8.1054,8.0746,8.0785,8.1208,8.1516,8.1554,8.1862,8.217,8.2516,8.2824,8.3247,8.3555,8.3593,8.3593,8.367,8.4055,8.4555,8.4939,8.5055,8.4978,8.5093,8.5401,8.5555,8.5555,8.5286,8.5132,8.5016,8.5055,8.5055,8.5132,8.5363,8.5626,8.5882,8.65,8.709,8.7331,8.7693,8.7977,8.8205,8.8046,8.7673,8.7417,8.7383,8.6933,8.6907,8.652,8.6197,8.4792,8.4792,8.4792,8.47,8.4565,8.4508,8.4479,8.4449,8.435,8.4334,8.4397,8.4565,8.4632,8.4516,8.3939,8.3593,8.3593,8.3593,8.3747,8.3939,8.3939,8.4055,8.4247,8.4286,8.4286,8.4286,8.4324,8.4286,8.4286,8.4286,8.4593,8.517,8.5247,8.5555,8.6017,8.6094,8.6094,8.6094,8.6094,8.6094,8.5901,8.4901,8.417,8.3978,8.3708,8.3593,8.3593,8.3593,8.3593,8.3593,8.3593,8.3593,8.3555,8.2978,8.267,8.2631,8.2131,8.2016,8.2631,8.267,8.2939,8.3516,8.3593,8.3593,8.3593,8.3593,8.3593,8.3478,8.3247,8.2939,8.2747,8.3208,8.3555,8.3593,8.3593,8.367,8.3901,8.3939,8.4055,8.4247,8.4439,8.4286,8.4362,8.4863,8.544,8.5863,8.6017,8.6094,8.6094,8.6055,8.6055,8.6094,8.6094,8.6055,8.6094,8.5978,8.611,8.6261,8.6293,8.6645,8.6842,8.7591,8.8197,8.8466,8.9055,8.9292,8.9148,8.9275,8.9398,8.9316,8.9232,8.9132,8.885,8.8561,8.8395,8.6494,8.6455,8.6494,8.6335,8.6268,8.6191,8.6146,8.593,8.595,8.595,8.6053,8.6704,8.7171,8.6901,8.4747,8.367,8.3708,8.3824,8.4209,8.4863,8.4863,8.5247,8.5978,8.5978,8.594,8.5747,8.5747,8.5824,8.5863,8.594,8.6017,8.6055,8.6055,8.6094,8.6247,8.6286,8.617,8.6363,8.6401,8.6247,8.6247,8.617,8.5786,8.5132,8.4093,8.3785,8.3708,8.3632,8.367,8.3632,8.3708,8.367,8.3632,8.3593,8.3555,8.3478,8.3439,8.3439,8.3516,8.3516,8.3593,8.367,8.3785,8.367,8.3978,8.3978,8.4016,8.3747,8.4593,8.4555,8.3939,8.3901,8.3824,8.3785,8.3708,8.4055,8.4786,8.4824,8.5209,8.567,8.5747,8.5709,8.5863,8.6017,8.5978,8.6055,8.6094,8.6094,8.6094,8.6094,8.6126,8.6143,8.6143,8.611,8.611,8.6329,8.6377,8.664,8.7242,8.7694,8.8123,8.8554,8.9109,8.9506,8.9799,8.9921,8.9845,8.9865,8.9971,9.0018,9.0088,9.0002,9.0224,8.9878,8.9699,8.661,8.661,8.661,8.6556,8.6457,8.6399,8.6339,8.6184,8.6126,8.611,8.6165,8.6456,8.6863,8.7325,8.5863,8.5824,8.6748,8.6286,8.6209,8.644,8.594,8.5824,8.6055,8.6094,8.6094,8.6094,8.6094,8.6094,8.6094,8.6094,8.6401,8.6863,8.694,8.7171,8.7671,8.7786,8.8017,8.8479,8.8556,8.8786,8.921,8.9363,8.921,8.8863,8.7017,8.6017,8.6017,8.6017,8.5786,8.5209,8.5209,8.5209,8.517,8.4709,8.417,8.367,8.3593,8.3824,8.4324,8.4439,8.467,8.5132,8.5209,8.5478,8.5901,8.6055,8.6247,8.6748,8.7055,8.7132,8.6709,8.5901,8.5209,8.5209,8.5209,8.5247,8.5555,8.567,8.5786,8.6017,8.6094,8.6094,8.6094,8.6094,8.6094,8.6094,8.6094,8.6094,8.6126,8.6215,8.6312,8.6331,8.6455,8.6725,8.7318,8.7227,8.7251,8.7653,8.8129,8.8681,8.9128,8.9769,9.0327,9.0743,9.0898,9.1272,9.1431,9.1509,9.1456,9.1456,9.1456,9.1456,9.1449,9.1183,9.0872,8.661,8.661,8.661,8.6569,8.65,8.6414,8.6354,8.6254,8.6143,8.611,8.6165,8.6379,8.6863,8.7286,8.7055,8.7517,8.8479,8.7517,8.6978,8.694,8.6401,8.6094,8.6094,8.6094,8.6094,8.617,8.6401,8.6632,8.6901,8.694,8.7248,8.7786,8.7825,8.8248,8.894,8.9094,8.9479,9.0171,9.0325,9.0633,9.1133,9.121,9.1364,9.1325,8.994,8.8902,8.8671,8.8632,8.8363,8.7825,8.7478,8.7209,8.6901,8.644,8.5863,8.5324,8.5286,8.5478,8.6017,8.6132,8.6363,8.6863,8.694,8.7248,8.7748,8.7825,8.8132,8.8556,8.8671,8.8671,8.8479,8.7594,8.6824,8.6555,8.6286,8.6094,8.6094,8.6094,8.6055,8.6094,8.6094,8.6094,8.6094,8.6094,8.6094,8.6094,8.6094,8.611,8.6192,8.6303,8.661,8.6853,8.7098,8.7642,8.8352,8.8681,8.8589,8.8876,8.9284,8.9752,9.0268,9.0937,9.149,9.1905,9.2302,9.2788,9.3093,9.3171,9.3171,9.3132,9.3171,9.3171,9.2898,9.2508,9.2235,8.661,8.661,8.661,8.6569,8.65,8.6414,8.6384,8.6339,8.6197,8.6126,8.6252,8.6935,8.7209,8.7517,8.7863,8.8517,8.8402,8.7094,8.6401,8.6363,8.617,8.6132,8.6209,8.6247,8.6324,8.6401,8.7017,8.7786,8.844,8.844,8.8517,8.8671,8.8671,8.9094,8.9885,8.994,9.0325,9.1018,9.121,9.1248,9.1248,9.1402,9.1787,9.2402,9.2287,9.1825,9.1171,9.1056,9.0748,9.0633,8.9979,8.944,8.8556,8.8363,8.8517,8.8286,8.8479,8.8573,8.8479,8.8402,8.8286,8.8402,8.8556,8.8479,8.8632,8.8709,8.8786,8.8979,8.894,8.8863,8.8902,8.8671,8.8248,8.7517,8.6824,8.644,8.6247,8.6132,8.6094,8.6094,8.6094,8.6094,8.6094,8.6094,8.6094,8.6094,8.6094,8.6168,8.6331,8.6532,8.6943,8.7629,8.8117,8.8609,8.948,9.0255,9.0131,9.017,9.0539,9.0982,9.1444,9.2003,9.2671,9.3094,9.3308,9.3794,9.4028,9.4145,9.4262,9.4301,9.4535,9.4496,9.4067,9.3638,9.3599,8.661,8.661,8.661,8.6569,8.65,8.6414,8.6354,8.6254,8.6143,8.611,8.6165,8.6379,8.6824,8.7209,8.7132,8.7594,8.8517,8.7517,8.7017,8.6901,8.6401,8.6478,8.6901,8.7017,8.7286,8.7825,8.8132,8.8402,8.8671,8.8709,8.894,8.944,8.9556,8.9979,9.0748,9.0825,9.1248,9.1979,9.2095,9.2326,9.2864,9.2903,9.3056,9.3287,9.3326,9.3172,9.2903,9.1825,9.0671,8.9671,8.921,8.894,8.8748,8.8671,8.8671,8.8671,8.8671,8.8671,8.8671,8.8709,8.8748,8.8709,8.8709,8.9017,8.944,8.9517,8.9787,9.0248,9.0441,9.0441,9.0325,8.9825,8.9248,8.8402,8.8055,8.7555,8.7055,8.6517,8.6132,8.6094,8.6094,8.6094,8.6094,8.6094,8.6094,8.6094,8.6149,8.6238,8.6478,8.7134,8.7622,8.8195,8.8839,8.9715,9.0719,9.1432,9.1538,9.1604,9.1943,9.223,9.2618,9.2969,9.3647,9.4212,9.4471,9.4737,9.4963,9.5119,9.5236,9.5119,9.5002,9.4924,9.4885,9.4768,9.4613,8.7577,8.7577,8.7511,8.747,8.7413,8.731,8.7233,8.717,8.7089,8.7055,8.7094,8.7094,8.7325,8.7709,8.7286,8.7671,8.8556,8.8132,8.7863,8.7825,8.7363,8.7401,8.7863,8.7863,8.8325,8.9017,8.9133,8.9325,8.9594,8.9633,8.9863,9.0325,9.0402,9.0825,9.1595,9.171,9.2095,9.2826,9.2941,9.3172,9.3595,9.3672,9.3672,9.3672,9.3672,9.3557,9.321,9.221,9.1364,9.0633,9.0287,8.9979,8.971,8.9671,8.9633,8.9633,8.9633,8.9671,8.9633,8.971,8.9633,8.9633,8.9594,8.9825,9.0287,9.0402,9.0787,9.1518,9.1672,9.1787,9.1941,9.1364,9.0671,9.0171,8.9171,8.8556,8.7863,8.7401,8.694,8.6786,8.6632,8.644,8.6209,8.6094,8.6094,8.6094,8.6438,8.6752,8.7151,8.7982,8.864,8.9274,9.0004,9.0972,9.2003,9.2546,9.2884,9.31,9.3315,9.3521,9.3827,9.3958,9.44,9.5211,9.5626,9.6054,9.6327,9.621,9.621,9.5898,9.5859,9.6015,9.6171,9.5626,9.5431,8.9163,8.9188,8.9079,8.8997,8.8967,8.8945,8.892,8.8925,8.8859,8.8825,8.8825,8.8825,8.8863,8.8863,8.8863,8.8979,8.894,8.8979,8.9056,8.9056,8.8902,8.8863,8.8748,8.8902,8.9363,8.9902,8.9979,9.0364,9.0864,9.0941,9.1171,9.1095,9.1095,9.1518,9.2018,9.2364,9.2556,9.3095,9.3326,9.3364,9.3518,9.3557,9.3633,9.3672,9.3672,9.3403,9.2864,9.2633,9.2826,9.3249,9.2326,9.1595,9.1248,9.121,9.1018,9.0979,9.1171,9.121,9.1248,9.1287,9.1325,9.1325,9.1325,9.1325,9.1441,9.1518,9.1787,9.2441,9.2556,9.2826,9.3249,9.2903,9.2402,9.2133,9.0248,8.8979,8.8786,8.8632,8.8132,8.7632,8.744,8.7209,8.6594,8.6478,8.6456,8.6631,8.7254,8.772,8.8243,8.9021,9.0099,9.0716,9.1144,9.2003,9.2944,9.3517,9.3895,9.4412,9.4591,9.4691,9.4979,9.5108,9.5328,9.6139,9.6873,9.7262,9.7535,9.7457,9.7535,9.7652,9.7652,9.7652,9.7301,9.6834,9.6444,8.904,8.9117,8.9647,8.9818,8.9832,9.0362,9.0603,9.0591,9.0573,9.0517,9.0556,9.0556,9.0556,9.0556,9.0556,9.0864,9.1133,9.0787,9.0941,9.1325,9.0787,9.0171,8.9863,9.0248,9.0594,9.0787,9.0787,9.0979,9.1171,9.121,9.121,9.121,9.121,9.1287,9.1518,9.1595,9.1633,9.1825,9.1902,9.2287,9.2826,9.2903,9.3133,9.3672,9.3672,9.3595,9.3403,9.3364,9.2787,9.1902,9.171,9.1479,9.1325,9.1287,9.1364,9.1402,9.1864,9.2172,9.2287,9.2672,9.2979,9.3056,9.2864,9.3056,9.3056,9.3018,9.3133,9.3364,9.3403,9.348,9.3633,9.3518,9.3172,9.2364,9.0804,8.965,8.9517,8.9056,8.8556,8.8402,8.8325,8.8171,8.794,8.7875,8.794,8.8103,8.8441,8.8825,8.9272,8.9993,9.0997,9.1553,9.2089,9.2979,9.3751,9.4367,9.4973,9.5633,9.5804,9.5797,9.6089,9.638,9.6685,9.7223,9.7886,9.8392,9.8704,9.8821,9.9055,9.9055,9.9133,9.8938,9.8587,9.8159,9.7769,9.055,9.0612,9.1422,9.1705,9.1694,9.2105,9.2301,9.2249,9.2249,9.2249,9.2249,9.2249,9.2249,9.2249,9.2249,9.2518,9.2864,9.2479,9.2556,9.2749,9.2095,9.1287,9.0787,9.1018,9.121,9.121,9.121,9.1171,9.121,9.121,9.121,9.121,9.121,9.121,9.1248,9.121,9.1402,9.171,9.1748,9.2172,9.2941,9.3018,9.321,9.3633,9.371,9.3787,9.4172,9.4595,9.4018,9.271,9.2287,9.2249,9.2249,9.2249,9.2249,9.2249,9.2749,9.3018,9.3095,9.348,9.3672,9.3672,9.3672,9.3672,9.3633,9.371,9.3749,9.421,9.421,9.4441,9.4672,9.448,9.371,9.2651,9.1655,9.094,9.0535,9.0094,8.9594,8.9363,8.9171,8.9017,8.8803,8.8804,8.8899,8.906,8.9465,8.9809,9.022,9.1028,9.1749,9.2342,9.3029,9.3841,9.4684,9.5339,9.5822,9.6479,9.6791,9.6784,9.7004,9.7379,9.7769,9.8159,9.886,9.9405,9.9639,9.9756,9.9717,9.9795,10.0068,9.999,9.9561,9.9328,9.8977,9.2695,9.2772,9.3598,9.4022,9.3962,9.4009,9.4061,9.4044,9.4095,9.4061,9.4048,9.4013,9.4026,9.3995,9.4033,9.3998,9.4051,9.3823,9.3518,9.321,9.2518,9.171,9.1133,9.1133,9.121,9.121,9.121,9.121,9.121,9.121,9.121,9.121,9.121,9.121,9.1248,9.1325,9.1787,9.2326,9.2556,9.3018,9.3672,9.3864,9.4018,9.4287,9.4518,9.4941,9.5557,9.6095,9.5865,9.4364,9.4095,9.398,9.398,9.3941,9.3826,9.3826,9.3941,9.4057,9.3903,9.4018,9.4095,9.4172,9.4134,9.398,9.4172,9.4287,9.4518,9.5095,9.5134,9.5441,9.5788,9.5441,9.4457,9.3295,9.2906,9.2273,9.1682,9.1335,9.0898,9.021,9.0073,8.9684,8.9321,8.916,8.9398,9.0197,9.0558,9.0844,9.1307,9.1993,9.2685,9.3291,9.4005,9.4743,9.5547,9.6344,9.6747,9.722,9.7525,9.7659,9.7776,9.812,9.8587,9.9094,9.9756,10.0107,10.0302,10.0341,10.0458,10.0652,10.1042,10.0691,10.0263,10.0263,9.999,9.2613,9.2751,9.4167,9.4883,9.5092,9.5687,9.6092,9.6204,9.6217,9.5993,9.595,9.5942,9.5904,9.5927,9.5675,9.5816,9.5702,9.5037,9.4057,9.2672,9.1864,9.1479,9.121,9.121,9.121,9.121,9.121,9.121,9.121,9.121,9.121,9.121,9.121,9.121,9.1248,9.1825,9.2287,9.2595,9.3095,9.3864,9.4557,9.4749,9.5018,9.5595,9.6249,9.7057,9.7788,9.8173,9.8057,9.748,9.6557,9.5903,9.5749,9.5711,9.548,9.5172,9.5441,9.5441,9.5018,9.5365,9.5749,9.5634,9.5557,9.5749,9.5711,9.5634,9.5749,9.6019,9.6019,9.6057,9.6189,9.5537,9.4964,9.4428,9.3635,9.2896,9.2613,9.1951,9.1307,9.1033,9.1014,9.1074,9.0856,9.0946,9.1156,9.143,9.1661,9.1937,9.2422,9.2936,9.3568,9.4161,9.4903,9.5602,9.6163,9.688,9.7271,9.7714,9.8064,9.8704,9.8821,9.8899,9.9405,9.9951,10.0574,10.0847,10.1081,10.1549,10.1744,10.1899,10.186,10.1549,10.1276,10.1198,10.1042,9.2913,9.3446,9.4775,9.5617,9.6127,9.6566,9.6875,9.6993,9.7005,9.6936,9.6825,9.6799,9.6799,9.6786,9.6687,9.6676,9.6538,9.5758,9.4626,9.3437,9.2496,9.2001,9.1782,9.145,9.121,9.121,9.121,9.121,9.121,9.121,9.121,9.121,9.121,9.121,9.1325,9.2095,9.2672,9.3172,9.3903,9.4749,9.5441,9.5634,9.6019,9.6826,9.7673,9.8519,9.925,9.9788,9.9942,9.975,9.9096,9.8211,9.7596,9.748,9.7211,9.7019,9.7134,9.7288,9.7057,9.6788,9.6826,9.6826,9.6557,9.6326,9.6288,9.6288,9.6288,9.6288,9.6268,9.6304,9.6403,9.6128,9.5803,9.5389,9.4816,9.4041,9.3264,9.2309,9.1631,9.155,9.1567,9.1618,9.1754,9.1908,9.1965,9.1848,9.2066,9.2403,9.3027,9.3572,9.4353,9.502,9.5762,9.6418,9.6861,9.7333,9.7714,9.8078,9.8446,9.9367,10.0068,10.0146,10.0263,10.0808,10.1315,10.1744,10.2016,10.2523,10.2601,10.2406,10.225,10.225,10.2172,10.1938,10.1821,9.3294,9.4057,9.5204,9.6161,9.6776,9.6981,9.709,9.712,9.711,9.712,9.7059,9.7059,9.702,9.7048,9.6993,9.6954,9.6527,9.5817,9.47,9.3822,9.2819,9.2443,9.2233,9.1739,9.1345,9.1286,9.1224,9.121,9.121,9.121,9.121,9.121,9.121,9.1364,9.1556,9.2249,9.3133,9.3903,9.4749,9.5441,9.6057,9.6211,9.6673,9.7711,9.8288,9.925,10.0135,10.0789,10.1173,10.1289,10.1289,10.0519,9.9635,9.9173,9.9058,9.8981,9.8865,9.8634,9.8327,9.798,9.7673,9.7557,9.6942,9.6458,9.6417,9.6355,9.6408,9.6442,9.6492,9.6536,9.6619,9.6585,9.6385,9.6094,9.6045,9.5244,9.3977,9.2832,9.2317,9.1883,9.1866,9.1918,9.1995,9.209,9.2189,9.2288,9.2563,9.2912,9.3576,9.4317,9.5098,9.5723,9.6425,9.6835,9.7241,9.7845,9.8221,9.8648,9.9016,9.999,10.1003,10.1237,10.1315,10.1549,10.1977,10.2328,10.2445,10.2562,10.2601,10.2601,10.2562,10.2445,10.2484,10.2601,10.2484,9.3131,9.3403,9.5001,9.5894,9.6273,9.6943,9.7369,9.7583,9.7533,9.7454,9.7271,9.7224,9.7263,9.723,9.708,9.6627,9.5942,9.5097,9.4221,9.3356,9.2543,9.2161,9.2099,9.19,9.1733,9.167,9.1484,9.1275,9.1241,9.121,9.1292,9.1206,9.1318,9.1587,9.2297,9.3113,9.3949,9.4716,9.5546,9.6145,9.6299,9.6435,9.7013,9.8264,9.8705,9.9555,10.0711,10.1154,10.1289,10.1289,10.1289,10.1116,10.0827,10.075,10.0461,10.0019,9.9865,9.9635,9.9135,9.8769,9.8192,9.7673,9.7362,9.6964,9.6706,9.6553,9.6628,9.6759,9.6812,9.6875,9.6936,9.6909,9.6981,9.6823,9.6476,9.5979,9.5483,9.4468,9.3153,9.2528,9.2338,9.216,9.2249,9.2405,9.2635,9.2935,9.3318,9.3654,9.42,9.5059,9.5957,9.6503,9.7011,9.7299,9.7538,9.8224,9.878,9.935,9.9834,10.0652,10.151,10.2055,10.2328,10.225,10.2289,10.2484,10.2562,10.2601,10.2601,10.2601,10.2601,10.2601,10.2601,10.2601,10.2601,9.2887,9.3441,9.4816,9.5713,9.6307,9.7132,9.7554,9.7671,9.7675,9.7655,9.7538,9.7489,9.7489,9.7472,9.7428,9.6685,9.5431,9.4464,9.3606,9.282,9.2285,9.2079,9.2052,9.1986,9.1915,9.185,9.1657,9.1561,9.1575,9.155,9.1585,9.1691,9.1962,9.2479,9.3059,9.4132,9.4825,9.5506,9.6164,9.6628,9.6628,9.6667,9.7402,9.8214,9.8988,9.9815,10.0767,10.1595,10.1711,10.1727,10.1711,10.1711,10.1696,10.1587,10.1379,10.0826,10.0712,10.0577,10.0076,9.9823,9.9249,9.8455,9.8106,9.7553,9.7044,9.6837,9.69,9.6971,9.7016,9.7059,9.7119,9.7129,9.7263,9.7376,9.7054,9.6729,9.6332,9.5602,9.4607,9.3443,9.2918,9.2646,9.25,9.2724,9.3057,9.3497,9.4005,9.4473,9.4903,9.5723,9.666,9.7046,9.7472,9.7797,9.8113,9.8759,9.9436,10.002,10.0574,10.1393,10.1899,10.2367,10.2523,10.2523,10.2601,10.2601,10.2601,10.2601,10.2601,10.2601,10.2601,10.2601,10.2601,10.2601,10.2601,9.2672,9.338,9.4406,9.5332,9.623,9.7089,9.7518,9.7675,9.7675,9.7675,9.7675,9.7675,9.7671,9.7636,9.728,9.6457,9.4864,9.4037,9.3365,9.265,9.2362,9.2282,9.2204,9.2137,9.2079,9.2104,9.2022,9.1957,9.1822,9.1811,9.1972,9.2288,9.2954,9.348,9.3991,9.4956,9.5606,9.615,9.6577,9.6966,9.7005,9.7043,9.7393,9.812,9.8858,9.9573,10.043,10.0934,10.1257,10.1335,10.1425,10.1565,10.1771,10.1861,10.1736,10.1538,10.1455,10.1455,10.1311,10.1036,10.0277,9.9169,9.8789,9.8042,9.7333,9.713,9.7158,9.7139,9.7158,9.7221,9.7369,9.7383,9.7472,9.7602,9.7628,9.744,9.689,9.6347,9.5879,9.484,9.3771,9.3416,9.3521,9.356,9.4005,9.4317,9.4825,9.5293,9.5762,9.6308,9.705,9.7472,9.7854,9.8256,9.8731,9.9371,10.0086,10.0784,10.1276,10.1938,10.225,10.2562,10.2601,10.2601,10.2601,10.2601,10.2601,10.2601,10.2601,10.2601,10.2601,10.2601,10.2601,10.2601,10.2601,9.251,9.2706,9.3611,9.4473,9.5371,9.623,9.705,9.7675,9.7675,9.7675,9.7675,9.7675,9.7675,9.744,9.6738,9.5527,9.4395,9.3732,9.3263,9.2557,9.2463,9.2416,9.2463,9.2463,9.2378,9.2329,9.2388,9.2204,9.21,9.2016,9.2384,9.2948,9.3396,9.389,9.5127,9.572,9.6072,9.6716,9.6949,9.7037,9.7048,9.7048,9.7476,9.797,9.8447,9.8886,9.9646,10.0084,10.014,10.0041,9.9941,10.0229,10.08,10.0955,10.1422,10.1788,10.2009,10.1996,10.1932,10.1815,10.1036,9.9833,9.9408,9.8637,9.7909,9.7565,9.7645,9.7646,9.7593,9.7544,9.7597,9.7611,9.7667,9.7667,9.7675,9.7675,9.7362,9.6972,9.6542,9.6269,9.5254,9.4981,9.4938,9.4938,9.4981,9.5254,9.5606,9.6113,9.6542,9.7011,9.7518,9.7944,9.8361,9.8724,9.9473,10.0112,10.0696,10.1478,10.1899,10.2367,10.2484,10.2601,10.2601,10.2601,10.2601,10.2601,10.2601,10.2601,10.2601,10.2601,10.2601,10.2601,10.2601,10.2601,10.2601,9.2482,9.2561,9.3419,9.4317,9.5176,9.6035,9.6894,9.7558,9.7675,9.7675,9.7675,9.7675,9.744,9.6777,9.5606,9.4552,9.3771,9.3341,9.2912,9.26,9.2482,9.2482,9.2482,9.2482,9.2482,9.2482,9.2479,9.2416,9.2354,9.2763,9.3237,9.3581,9.4485,9.5323,9.6171,9.6589,9.6986,9.7305,9.7415,9.7415,9.7408,9.7408,9.7557,9.7908,9.8368,9.8797,9.914,9.9786,9.9942,9.9942,9.9942,10.0097,10.0448,10.0526,10.0721,10.0955,10.1072,10.1366,10.1956,10.2197,10.1254,10.0414,10.0075,9.9943,9.8748,9.8309,9.8143,9.7714,9.7714,9.7675,9.7675,9.7675,9.7675,9.7675,9.7675,9.7675,9.7636,9.7479,9.7167,9.6972,9.6777,9.6425,9.6113,9.5957,9.5879,9.6035,9.6386,9.6894,9.7167,9.7401,9.7909,9.8455,9.8869,9.9236,10.0141,10.0931,10.132,10.1954,10.2172,10.2484,10.2523,10.2601,10.2601,10.2601,10.2601,10.2601,10.2601,10.2601,10.2601,10.2601,10.2601,10.2601,10.2601,10.2601,10.2601,9.2482,9.2561,9.3224,9.3966,9.4864,9.5723,9.6542,9.7323,9.7597,9.7558,9.7323,9.7089,9.6503,9.5684,9.4512,9.3771,9.3419,9.2795,9.2561,9.2482,9.2482,9.2482,9.2482,9.2482,9.2482,9.2522,9.2482,9.2628,9.31,9.3603,9.4103,9.42,9.5421,9.6332,9.6808,9.7229,9.7572,9.7611,9.7655,9.7659,9.7663,9.7663,9.7667,9.7901,9.826,9.8651,9.8768,9.915,9.9502,9.9498,9.9415,9.9446,9.9836,9.9909,10.0143,10.0339,10.0495,10.076,10.1284,10.1471,10.1047,10.0502,10.0186,9.9957,9.9224,9.9002,9.8651,9.7792,9.7714,9.7675,9.7675,9.7675,9.7675,9.7675,9.7675,9.7675,9.7675,9.7558,9.7479,9.7362,9.7284,9.744,9.7128,9.6894,9.6816,9.6855,9.7167,9.7597,9.7788,9.7827,9.8327,9.8908,9.9714,10.008,10.0715,10.1503,10.1976,10.2304,10.2523,10.2601,10.2601,10.2601,10.2601,10.2601,10.2601,10.2601,10.2601,10.2601,10.2601,10.2601,10.2601,10.2601,10.2601,10.2601,10.2601,9.2482,9.2522,9.26,9.3146,9.4005,9.4825,9.5684,9.666,9.7323,9.7128,9.6425,9.5684,9.4942,9.4161,9.3888,9.3302,9.2639,9.2522,9.2482,9.2482,9.2482,9.2482,9.2482,9.2482,9.2522,9.2522,9.2678,9.3068,9.3732,9.4552,9.4903,9.5176,9.6152,9.6855,9.7284,9.7558,9.7675,9.7675,9.7675,9.7675,9.7675,9.7675,9.7675,9.7675,9.7753,9.7792,9.7792,9.8065,9.8221,9.8221,9.826,9.8494,9.8963,9.908,9.9353,9.9705,9.9861,9.9992,10.028,10.0548,10.0109,9.9458,9.9306,9.9666,9.9509,9.9119,9.8612,9.7948,9.7831,9.7675,9.7675,9.7675,9.7675,9.7675,9.7675,9.7675,9.7675,9.7675,9.7636,9.7675,9.7675,9.7675,9.7675,9.7362,9.7245,9.7245,9.7312,9.7702,9.8084,9.8275,9.8738,9.9392,10.0509,10.1066,10.1308,10.1873,10.2327,10.246,10.2562,10.2601,10.2601,10.2601,10.2601,10.2601,10.2601,10.2601,10.2601,10.2601,10.2601,10.2601,10.2601,10.2601,10.2601,10.2601,10.2601,9.2482,9.2482,9.2482,9.299,9.381,9.4161,9.5098,9.6191,9.6191,9.5957,9.5606,9.4708,9.4122,9.3771,9.3185,9.2873,9.2522,9.2482,9.2561,9.2482,9.2482,9.2482,9.2482,9.26,9.2522,9.2639,9.299,9.338,9.3849,9.5137,9.5762,9.6152,9.6738,9.7206,9.7636,9.7675,9.7675,9.7675,9.7675,9.7675,9.7675,9.7675,9.7675,9.7675,9.7675,9.7675,9.7714,9.7714,9.7675,9.7675,9.7675,9.7948,9.8182,9.826,9.8455,9.8768,9.8846,9.8846,9.908,9.9666,10.029,10.0524,10.0173,9.99,10.0095,10.0056,9.9392,9.8729,9.7987,9.7831,9.7675,9.7675,9.7675,9.7675,9.7675,9.7675,9.7675,9.7675,9.7675,9.7675,9.7675,9.7675,9.7675,9.7636,9.7636,9.7636,9.7702,9.7845,9.8266,9.8875,9.9416,9.9991,10.1027,10.1678,10.1958,10.2334,10.2646,10.2624,10.2601,10.2601,10.2601,10.2601,10.2601,10.2601,10.2601,10.2601,10.2601,10.2601,10.2601,10.2601,10.2601,10.2601,10.2601,10.2601,10.2601,9.2678,9.2873,9.2873,9.3068,9.3419,9.3693,9.4473,9.5449,9.5606,9.5488,9.541,9.463,9.42,9.3966,9.3654,9.338,9.3419,9.3419,9.3341,9.3419,9.3419,9.3263,9.3263,9.3263,9.338,9.3185,9.3693,9.4239,9.4356,9.5723,9.6386,9.6894,9.7323,9.7597,9.7675,9.7675,9.7675,9.7675,9.7675,9.7675,9.7675,9.7675,9.7675,9.7675,9.7675,9.7675,9.7675,9.7675,9.7675,9.7675,9.7675,9.7675,9.7714,9.7675,9.7675,9.7675,9.7675,9.7675,9.8065,9.869,9.99,10.0095,10.0056,10.0251,10.072,10.0603,9.9822,9.9041,9.8377,9.7987,9.7831,9.7675,9.7675,9.7675,9.7675,9.7675,9.7675,9.7675,9.7675,9.7675,9.7675,9.7714,9.7905,9.794,9.7971,9.8006,9.8187,9.8329,9.8709,9.9395,10.028,10.0853,10.1549,10.2075,10.2529,10.2592,10.2624,10.2616,10.2601,10.2601,10.2601,10.2601,10.2601,10.2601,10.2601,10.2601,10.2601,10.2601,10.2601,10.2601,10.2601,10.2601,10.2601,10.2601,10.2601,9.3068,9.3732,9.3771,9.3341,9.2951,9.3458,9.3966,9.4591,9.5684,9.6191,9.5996,9.5293,9.4942,9.4903,9.4669,9.4591,9.463,9.4708,9.4747,9.463,9.4552,9.4825,9.4825,9.463,9.4356,9.4122,9.463,9.5098,9.5215,9.6152,9.6933,9.7323,9.7597,9.7675,9.7675,9.7675,9.7675,9.7675,9.7675,9.7675,9.7675,9.7675,9.7675,9.7675,9.7675,9.7675,9.7675,9.7675,9.7675,9.7675,9.7675,9.7675,9.7675,9.7675,9.7675,9.7675,9.7675,9.7675,9.7753,9.7792,9.8455,9.9275,9.9392,9.9666,10.0173,10.0173,9.99,9.9041,9.869,9.8338,9.8026,9.7675,9.7675,9.7675,9.7675,9.7675,9.7675,9.7675,9.7675,9.7675,9.7675,9.7753,9.8014,9.8201,9.8266,9.8368,9.8586,9.8927,9.9344,9.995,10.0905,10.1483,10.2022,10.2249,10.2585,10.257,10.2601,10.2601,10.2601,10.2601,10.2601,10.2601,10.2601,10.2601,10.2601,10.2601,10.2601,10.2601,10.2601,10.2601,10.2601,10.2601,10.2601,10.2601,10.2601,9.4395,9.4669,9.4669,9.4512,9.4278,9.4512,9.4981,9.5567,9.6074,9.6074,9.5567,9.5176,9.5098,9.5098,9.5176,9.5215,9.5176,9.5098,9.5098,9.5137,9.5215,9.5098,9.5137,9.5332,9.5293,9.5527,9.5918,9.6308,9.6894,9.705,9.7284,9.7675,9.7675,9.7675,9.7675,9.7675,9.7675,9.7675,9.7675,9.7675,9.7675,9.7675,9.7675,9.7675,9.7675,9.7675,9.7675,9.7675,9.7675,9.7675,9.7675,9.7675,9.7675,9.7675,9.7675,9.7675,9.7675,9.7675,9.7675,9.7792,9.8143,9.8651,9.8963,9.9275,10.0134,9.9666,9.9314,9.8963,9.8612,9.8182,9.7753,9.7675,9.7675,9.7675,9.7675,9.7675,9.7675,9.7675,9.7675,9.7675,9.7675,9.8014,9.8314,9.8646,9.8782,9.896,9.9215,9.9898,10.0423,10.0767,10.1415,10.1954,10.2421,10.2531,10.2601,10.2601,10.2601,10.2601,10.2601,10.2601,10.2601,10.2631,10.2592,10.2614,10.2624,10.2601,10.2599,10.262,10.2616,10.2601,10.2607,10.2631,10.2601,10.2601,10.2601,9.5293,9.5527,9.5527,9.5723,9.5879,9.5371,9.5606,9.6308,9.6425,9.6191,9.6074,9.6035,9.6074,9.6035,9.5996,9.5996,9.5996,9.6035,9.6035,9.5996,9.6035,9.6152,9.6113,9.5918,9.6152,9.6542,9.6777,9.7089,9.705,9.7479,9.7675,9.7675,9.7675,9.7675,9.7675,9.7675,9.7675,9.7675,9.7675,9.7675,9.7675,9.7675,9.7675,9.7675,9.7675,9.7675,9.7675,9.7675,9.7675,9.7675,9.7675,9.7675,9.7675,9.7675,9.7675,9.7675,9.7675,9.7675,9.7675,9.7675,9.7987,9.8377,9.8533,9.8963,9.9588,9.9353,9.9158,9.8846,9.8338,9.8026,9.7792,9.7753,9.7675,9.7675,9.7675,9.7675,9.7675,9.7675,9.7675,9.7675,9.7749,9.8123,9.8534,9.9049,9.9338,9.9586,9.9871,10.0558,10.1206,10.151,10.1751,10.2265,10.2577,10.2616,10.2609,10.2601,10.2601,10.2601,10.2624,10.262,10.2653,10.2644,10.2632,10.2632,10.2655,10.2626,10.261,10.2644,10.2644,10.2649,10.2665,10.2632,10.2624,10.2616,10.2592,9.5684,9.6386,9.6425,9.6894,9.7284,9.5957,9.5801,9.6464,9.6503,9.6933,9.7597,9.7479,9.7362,9.7518,9.7558,9.7479,9.7401,9.744,9.7401,9.744,9.7206,9.7362,9.7401,9.7362,9.7167,9.7011,9.7128,9.7284,9.6777,9.7323,9.7675,9.7675,9.7675,9.7675,9.7675,9.7675,9.7675,9.7675,9.7675,9.7675,9.7675,9.7675,9.7675,9.7675,9.7675,9.7675,9.7675,9.7675,9.7675,9.7675,9.7675,9.7675,9.7675,9.7675,9.7675,9.7675,9.7675,9.7675,9.7675,9.7675,9.7714,9.7948,9.7831,9.826,9.8612,9.8807,9.869,9.869,9.8416,9.8143,9.787,9.7792,9.7675,9.7675,9.7675,9.7675,9.7675,9.7675,9.7675,9.7675,9.7671,9.7928,9.829,9.8843,9.9404,9.9742,9.9917,10.03,10.0987,10.1744,10.1993,10.238,10.2607,10.2599,10.2599,10.2601,10.2653,10.2644,10.266,10.268,10.2703,10.2714,10.2672,10.2679,10.2666,10.2668,10.2644,10.2686,10.2666,10.2666,10.269,10.2668,10.2649,10.262,10.2614,9.7128,9.7323,9.7323,9.7479,9.7597,9.7128,9.7128,9.7323,9.7323,9.7518,9.7675,9.7675,9.7675,9.7675,9.7675,9.7675,9.7675,9.7675,9.7675,9.7675,9.7675,9.7675,9.7675,9.7714,9.7831,9.7948,9.7909,9.7792,9.7987,9.8065,9.7675,9.7675,9.7675,9.7675,9.7675,9.7675,9.7675,9.7675,9.7675,9.7675,9.7675,9.7675,9.7675,9.7675,9.7675,9.7675,9.7675,9.7675,9.7675,9.7675,9.7675,9.7675,9.7675,9.7675,9.7675,9.7675,9.7675,9.7675,9.7675,9.7675,9.7675,9.7675,9.7675,9.7753,9.8026,9.8143,9.8182,9.8221,9.826,9.7948,9.7792,9.7753,9.7675,9.7675,9.7675,9.7675,9.7675,9.7675,9.7675,9.7714,9.771,9.7962,9.828,9.8614,9.9182,9.9592,9.9898,10.0093,10.0561,10.1256,10.1749,10.2056,10.2443,10.2332,10.2577,10.2644,10.2644,10.269,10.2696,10.2702,10.2707,10.2714,10.2718,10.2685,10.2731,10.2728,10.2675,10.2685,10.2732,10.2685,10.2673,10.2702,10.269,10.2668,10.2655,9.7602,9.7675,9.7675,9.7675,9.7675,9.7675,9.7675,9.7675,9.7675,9.7675,9.7675,9.7675,9.7675,9.7675,9.7675,9.7675,9.7675,9.7675,9.7675,9.7675,9.7675,9.7675,9.7675,9.7714,9.7909,9.8143,9.8104,9.787,9.826,9.8104,9.7675,9.7675,9.7675,9.7675,9.7675,9.7675,9.7675,9.7675,9.7675,9.7675,9.7675,9.7675,9.7675,9.7675,9.7675,9.7675,9.7675,9.7675,9.7675,9.7675,9.7675,9.7675,9.7675,9.7675,9.7675,9.7675,9.7675,9.7675,9.7675,9.7675,9.7675,9.7675,9.7675,9.7714,9.7714,9.7831,9.7792,9.7792,9.7753,9.7714,9.7675,9.7675,9.7675,9.7675,9.7675,9.7675,9.7675,9.7675,9.7714,9.7749,9.7893,9.8109,9.8402,9.8625,9.8698,9.8709,9.8851,9.9107,9.9649,10.0426,10.0826,10.1133,10.1679,10.2019,10.2243,10.2413,10.2525,10.2564,10.2728,10.273,10.2732,10.2734,10.2732,10.2731,10.2732,10.2734,10.2734,10.2733,10.273,10.2734,10.2734,10.2734,10.2733,10.272,10.2714,9.7466,9.7675,9.7675,9.7675,9.7675,9.7675,9.7675,9.7675,9.7675,9.7675,9.7675,9.7675,9.7675,9.7675,9.7675,9.7675,9.7675,9.7675,9.7675,9.7675,9.7675,9.7675,9.7675,9.7714,9.7831,9.7753,9.7714,9.7792,9.7714,9.7675,9.7675,9.7675,9.7675,9.7675,9.7675,9.7675,9.7675,9.7675,9.7675,9.7675,9.7675,9.7675,9.7675,9.7675,9.7675,9.7675,9.7675,9.7675,9.7675,9.7675,9.7675,9.7675,9.7675,9.7675,9.7675,9.7675,9.7675,9.7675,9.7675,9.7675,9.7675,9.7675,9.7675,9.7675,9.7675,9.7675,9.7675,9.7675,9.7675,9.7675,9.7675,9.7675,9.7675,9.7675,9.7675,9.7675,9.7675,9.7675,9.7714,9.776,9.789,9.8072,9.7962,9.8154,9.8216,9.7929,9.7929,9.8264,9.8657,9.9473,9.9971,10.0262,10.0869,10.1358,10.1444,10.1679,10.2186,10.2382,10.2499,10.273,10.2728,10.2751,10.2796,10.2774,10.2753,10.2777,10.2774,10.278,10.2785,10.2783,10.2783,10.2764,10.2785,10.2733,10.2734,9.7466,9.7675,9.7675,9.7675,9.7675,9.7675,9.7675,9.7675,9.7675,9.7675,9.7675,9.7675,9.7675,9.7675,9.7675,9.7675,9.7675,9.7675,9.7675,9.7675,9.7675,9.7675,9.7675,9.7675,9.7675,9.7675,9.7675,9.7675,9.7675,9.7675,9.7675,9.7675,9.7675,9.7675,9.7675,9.7675,9.7675,9.7675,9.7675,9.7675,9.7675,9.7675,9.7675,9.7675,9.7675,9.7675,9.7675,9.7675,9.7675,9.7675,9.7675,9.7675,9.7675,9.7675,9.7675,9.7675,9.7675,9.7675,9.7675,9.7675,9.7675,9.7675,9.7675,9.7675,9.7675,9.7675,9.7675,9.7675,9.7675,9.7675,9.7675,9.7675,9.7675,9.7675,9.7675,9.7675,9.7675,9.7675,9.7675,9.7779,9.7913,9.7838,9.7685,9.7653,9.7617,9.7656,9.7656,9.7773,9.785,9.8397,9.9218,9.9609,10.0155,10.0545,10.0618,10.0927,10.1439,10.1671,10.1736,10.2155,10.2618,10.2764,10.2789,10.2789,10.2793,10.2789,10.2789,10.2793,10.2796,10.2789,10.2789,10.2789,10.2789,10.2788,10.2785,9.7369,9.7671,9.7675,9.7675,9.7675,9.7675,9.7675,9.7675,9.7675,9.7675,9.7675,9.7675,9.7675,9.7675,9.7675,9.7675,9.7675,9.7675,9.7675,9.7675,9.7675,9.7675,9.7675,9.7675,9.7675,9.7675,9.7675,9.7675,9.7675,9.7675,9.7675,9.7675,9.7675,9.7675,9.7675,9.7675,9.7675,9.7675,9.7675,9.7675,9.7675,9.7675,9.7675,9.7675,9.7675,9.7675,9.7675,9.7675,9.7675,9.7675,9.7675,9.7675,9.7675,9.7675,9.7675,9.7675,9.7675,9.7675,9.7675,9.7675,9.7675,9.7675,9.7675,9.7675,9.7675,9.7675,9.7675,9.7675,9.7675,9.7675,9.7675,9.7675,9.7675,9.7675,9.7675,9.7675,9.7675,9.7675,9.7662,9.7648,9.7693,9.7656,9.7539,9.7534,9.7563,9.7563,9.7563,9.7637,9.7633,9.7596,9.8336,9.888,9.9399,9.9668,9.9734,10.0155,10.0662,10.0844,10.0954,10.1469,10.1941,10.2484,10.2789,10.2789,10.2789,10.2789,10.2789,10.2789,10.2789,10.2789,10.2789,10.2789,10.2789,10.2789,10.2796,9.7213,9.7611,9.762,9.7667,9.7675,9.7675,9.7675,9.7675,9.7675,9.7675,9.7675,9.7675,9.7675,9.7675,9.7675,9.7675,9.7675,9.7675,9.7675,9.7675,9.7675,9.7675,9.7675,9.7675,9.7675,9.7675,9.7675,9.7675,9.7675,9.7675,9.7675,9.7675,9.7675,9.7675,9.7675,9.7675,9.7675,9.7675,9.7675,9.7675,9.7675,9.7675,9.7675,9.7675,9.7675,9.7675,9.7675,9.7675,9.7675,9.7675,9.7675,9.7675,9.7675,9.7675,9.7675,9.7675,9.7675,9.7675,9.7675,9.7675,9.7675,9.7675,9.7678,9.7678,9.7682,9.7682,9.7682,9.7682,9.7682,9.7678,9.7678,9.7678,9.7678,9.7689,9.7689,9.7656,9.7656,9.7662,9.7611,9.7577,9.7534,9.7452,9.7481,9.7461,9.749,9.7526,9.7568,9.7639,9.7675,9.765,9.7968,9.8277,9.8554,9.8739,9.8846,9.9197,9.9666,10.0017,10.0173,10.072,10.1266,10.1891,10.2437,10.2789,10.2789,10.275,10.2789,10.2789,10.2789,10.2789,10.2789,10.2789,10.2789,10.2789,10.2789,9.6954,9.7383,9.7383,9.7483,9.7671,9.7675,9.7675,9.7675,9.7675,9.7675,9.7675,9.7675,9.7675,9.7675,9.7675,9.7675,9.7675,9.7675,9.7675,9.7675,9.7675,9.7675,9.7675,9.7675,9.7675,9.7675,9.7675,9.7675,9.7675,9.7675,9.7675,9.7675,9.7675,9.7675,9.7675,9.7675,9.7675,9.7675,9.7675,9.7675,9.7675,9.7675,9.7675,9.7675,9.7675,9.7675,9.7675,9.7675,9.7675,9.7675,9.7675,9.7675,9.7682,9.7685,9.7689,9.7659,9.7659,9.7664,9.763,9.763,9.7633,9.7667,9.7669,9.7664,9.7664,9.7662,9.7662,9.7662,9.7659,9.7689,9.7689,9.7689,9.7692,9.7672,9.7639,9.7612,9.7616,9.7537,9.7479,9.7409,9.7377,9.7373,9.7407,9.7411,9.7433,9.7494,9.7628,9.7659,9.765,9.7663,9.7675,9.7792,9.7948,9.787,9.7948,9.8143,9.8533,9.8924,9.9431,10.0017,10.0681,10.1383,10.1891,10.232,10.2633,10.2711,10.2711,10.2789,10.2789,10.2789,10.2789,10.2789,10.2789,10.2785,10.2785]}]]